GFSSW_sfc_temp_003.txt.gz
Temp
61 61 61 61 60 60 60 60 60 60 61 61 61 61 61 61 60 61 64 73 72 71 74 74 75 76 73 69 70 67 53 51 55 57 62 70 64 74 80 75 78 78 75 78 78
60 60 60 60 60 60 60 60 60 60 60 61 61 60 60 60 55 56 72 73 73 73 75 72 70 71 64 65 67 61 52 57 68 66 64 67 67 73 72 73 73 77 78 76 76
59 59 59 59 59 59 59 60 60 60 60 60 60 60 60 59 56 65 76 73 74 74 78 77 76 70 61 64 64 61 60 68 70 71 68 68 70 76 71 71 75 75 75 71 71
58 58 59 59 59 59 59 59 60 61 61 60 60 59 60 54 52 72 75 73 73 75 75 73 71 64 60 61 69 58 66 70 72 74 69 68 74 72 74 74 82 82 76 72 69
58 58 58 58 58 58 58 59 59 59 59 59 59 60 54 49 55 77 77 77 73 72 70 70 65 64 59 61 64 61 67 71 72 70 71 74 71 72 74 80 82 78 74 72 72
57 58 58 58 57 57 58 58 57 58 58 59 59 60 50 40 70 75 77 75 75 69 68 69 68 70 61 65 63 64 67 68 71 71 72 70 72 74 76 80 79 75 71 71 72
57 57 57 58 58 57 57 57 57 57 58 59 60 59 50 48 68 70 67 67 73 74 70 73 75 71 66 61 67 67 61 66 69 71 69 72 66 68 77 77 74 75 72 71 71
57 57 57 57 58 58 58 57 57 57 58 59 61 57 46 62 64 62 68 69 72 74 74 77 78 71 62 64 65 59 57 53 64 68 71 67 59 71 77 73 71 73 71 70 70
57 57 57 57 57 58 57 56 56 57 58 59 55 51 44 62 56 64 69 67 73 73 73 81 72 64 60 58 53 51 50 51 59 66 65 63 61 72 74 71 70 71 69 69 70
57 56 56 56 57 57 56 55 56 56 55 59 58 46 50 56 67 71 69 71 69 68 67 67 62 56 52 50 45 49 49 56 56 62 64 63 61 70 74 71 69 72 72 69 70
57 56 56 56 56 56 53 45 46 46 48 46 48 49 59 63 72 71 71 66 67 63 56 61 53 50 56 59 60 59 55 55 61 65 62 59 60 66 72 68 69 70 69 68 67
56 56 56 56 56 55 48 41 50 52 40 52 52 53 57 60 52 64 73 60 57 54 60 56 52 60 62 61 58 57 53 53 60 65 60 61 60 66 68 69 71 72 66 67 60
55 55 55 55 55 48 43 48 59 56 40 47 52 52 54 58 53 57 67 62 56 54 56 53 58 66 62 59 57 56 54 55 56 61 62 59 56 62 69 68 68 67 65 64 62
55 55 55 55 47 44 44 58 57 56 30 40 47 53 57 59 52 66 70 64 58 53 57 55 64 62 60 57 60 52 63 62 59 53 47 57 41 54 60 64 65 68 66 66 62
54 55 55 55 49 46 49 50 56 52 19 51 52 64 60 54 61 61 69 65 55 56 57 54 59 59 56 59 64 57 65 61 57 52 48 55 45 51 57 59 62 66 65 63 59
54 55 55 48 47 49 50 49 50 33 22 44 56 51 51 53 55 62 61 66 66 58 58 59 68 64 62 66 66 66 58 55 54 48 40 52 47 51 54 60 62 65 67 60 58
54 54 52 52 41 47 49 43 29 25 46 43 43 48 49 49 51 53 54 53 51 46 47 54 59 64 66 59 62 60 49 37 31 36 37 52 47 54 61 64 67 67 63 57 56
53 52 52 51 46 47 43 35 23 37 38 49 45 48 46 47 47 51 51 48 58 55 50 46 43 58 65 61 56 57 55 39 32 33 40 53 46 55 64 68 66 68 62 57 55
51 45 44 45 49 47 40 28 28 36 44 41 43 41 41 44 43 44 50 50 56 58 48 46 47 61 66 66 64 56 49 57 45 44 42 46 52 61 63 62 61 59 59 55 54
46 44 40 49 48 46 36 28 34 44 44 43 34 41 34 38 39 39 43 49 53 61 55 50 43 59 63 66 64 57 60 46 42 34 32 43 46 50 57 58 59 57 56 53 54
40 38 44 51 48 40 28 33 37 46 46 40 36 36 38 36 38 38 43 48 50 49 55 52 48 50 60 55 55 51 53 48 50 45 36 34 44 55 61 60 60 58 56 55 56
37 31 45 49 36 35 29 37 42 43 46 43 43 41 40 40 38 37 40 47 52 51 44 49 48 46 50 57 65 62 57 56 47 42 44 44 50 60 60 60 61 59 59 56 58
37 35 44 46 29 31 34 37 41 40 41 41 40 43 46 41 35 40 40 50 53 48 43 47 42 38 42 50 55 55 59 59 52 46 44 42 50 61 59 60 62 59 57 59 57
38 30 34 38 38 34 32 33 34 44 42 43 41 44 42 40 44 39 41 47 52 50 53 47 39 47 43 47 53 49 57 59 56 48 49 50 52 55 55 58 59 59 58 58 60
34 32 36 29 30 32 30 34 33 33 41 43 38 40 40 34 36 38 43 44 50 50 47 40 32 45 55 58 56 55 56 59 55 58 52 56 54 58 58 59 63 61 58 59 59
34 35 40 34 37 32 32 32 33 37 37 37 36 39 39 37 38 34 39 41 40 44 40 39 32 40 45 57 59 56 56 60 60 58 57 55 55 62 63 61 61 61 61 61 61
43 43 38 37 34 26 28 34 35 38 40 42 41 39 37 41 44 45 46 45 43 41 38 35 35 36 36 53 53 47 57 56 59 59 61 52 58 59 58 64 62 60 63 63 64

GFSSW_sfc_temp_006.txt.gz
Temp
60 60 60 60 60 60 60 60 60 60 60 61 61 61 60 60 59 58 59 73 71 71 73 72 73 75 71 65 66 64 52 49 52 54 60 63 62 69 75 71 72 76 74 76 72
59 59 59 59 60 60 59 59 60 60 60 60 60 60 60 60 52 54 72 73 73 73 73 71 68 71 62 63 64 59 51 54 65 65 62 62 62 67 68 70 69 73 77 76 71
59 59 59 58 58 58 59 59 59 60 60 60 60 60 60 58 51 62 75 73 74 74 75 75 74 68 59 60 62 59 58 66 68 71 65 65 65 67 67 67 72 69 75 73 69
58 59 59 59 58 58 58 58 59 59 59 59 59 60 60 52 49 67 74 73 73 74 73 72 69 61 56 57 64 54 63 68 70 72 67 65 68 69 70 71 78 77 76 72 68
58 58 58 58 58 58 58 58 58 58 58 58 59 60 55 46 51 73 75 75 72 70 70 70 65 62 55 57 64 58 63 67 67 66 69 68 66 68 70 77 78 77 74 71 68
57 58 58 58 58 58 58 58 57 57 57 58 59 60 52 40 64 69 66 70 72 68 66 67 66 67 60 61 59 61 64 66 65 68 71 67 67 69 72 77 75 75 72 70 68
57 57 57 57 57 58 58 57 57 57 57 58 59 58 49 47 63 65 63 60 67 70 67 71 72 69 62 57 63 63 57 60 64 68 66 69 62 65 74 73 70 72 73 71 68
57 56 57 57 57 57 58 57 56 57 58 58 59 56 45 60 62 60 62 60 66 68 69 74 75 67 59 61 60 55 54 48 62 65 66 64 55 69 73 69 70 72 73 70 68
57 56 56 57 57 57 57 56 57 58 58 58 54 51 42 61 55 60 62 61 70 67 68 77 71 61 59 56 52 49 49 50 55 65 63 62 58 69 68 67 67 69 69 69 68
56 56 56 56 56 56 55 55 56 55 56 58 56 45 48 51 59 64 64 64 65 64 62 62 58 53 50 50 44 45 46 50 53 61 60 57 57 66 70 68 66 66 66 66 66
56 56 56 56 56 55 53 45 45 44 47 43 45 45 51 60 65 64 65 61 63 59 52 55 51 48 54 56 56 54 53 52 54 63 59 56 56 61 67 64 63 66 68 67 66
56 56 56 56 56 55 48 40 50 49 39 49 50 51 55 58 49 56 67 55 55 51 58 53 49 58 60 58 55 53 51 51 56 62 59 56 56 62 65 66 64 67 69 69 61
55 55 55 55 55 46 42 46 57 55 39 45 51 49 50 54 47 51 59 58 53 51 55 52 57 63 59 55 52 52 51 52 51 60 59 55 53 56 64 64 65 65 64 63 62
55 55 55 55 47 42 42 51 54 55 33 37 43 49 53 53 47 61 65 60 55 50 55 54 62 59 56 54 56 48 58 57 55 53 44 53 37 52 57 62 63 65 64 64 62
54 55 55 54 48 45 47 47 50 47 19 47 49 60 56 49 53 56 64 60 52 52 53 50 55 56 54 56 60 53 63 57 57 50 43 48 41 50 53 55 62 64 65 64 60
54 55 55 49 45 46 48 46 45 30 21 41 51 47 47 50 51 57 56 61 61 53 55 55 61 61 59 62 62 63 56 52 49 44 38 48 45 44 50 58 60 62 64 61 56
54 54 52 53 41 45 45 41 27 21 44 40 40 45 46 44 47 50 49 47 46 42 43 50 53 57 62 56 57 56 46 34 29 29 34 50 44 52 56 60 63 65 64 56 53
53 51 50 50 45 46 41 34 22 34 36 45 42 45 43 44 42 45 45 42 51 48 46 41 38 53 60 56 53 54 50 36 30 31 40 48 42 52 60 65 64 65 62 55 52
51 44 43 44 46 46 36 24 26 34 40 38 40 37 40 43 41 40 40 42 49 52 43 42 43 56 62 64 62 53 45 54 42 45 38 42 50 59 61 63 63 59 56 53 51
46 44 40 48 47 46 33 29 32 42 43 41 31 38 32 37 38 34 38 45 43 49 55 47 40 55 59 61 63 54 57 43 44 32 30 41 44 48 54 59 60 56 55 51 51
40 34 43 48 48 39 28 31 36 44 44 38 35 33 36 36 39 34 34 43 42 45 49 47 44 47 53 51 51 48 47 44 48 39 34 32 41 53 58 61 61 59 56 52 53
40 28 44 49 36 35 30 35 42 41 44 41 40 38 37 39 37 33 33 37 41 45 39 43 39 40 47 55 62 60 54 48 45 37 43 40 42 58 59 59 59 59 56 53 54
37 37 42 46 29 29 35 35 39 39 40 39 37 40 41 38 34 39 39 45 43 41 39 43 36 34 40 47 50 53 56 57 46 42 43 42 43 60 58 59 58 57 55 54 54
36 29 33 37 38 34 32 31 32 42 40 41 38 40 38 38 42 37 38 45 44 45 47 44 35 35 39 44 48 46 53 56 51 40 42 48 48 55 57 58 57 56 54 54 55
33 30 34 29 28 34 33 31 30 32 38 39 36 37 35 33 35 35 39 41 44 45 43 38 30 38 40 48 51 51 53 54 51 54 47 50 51 55 60 58 56 55 54 56 56
33 35 35 35 37 35 33 28 31 34 35 34 34 37 37 34 36 33 38 39 37 42 38 37 30 36 36 47 50 50 53 55 56 56 55 51 53 61 59 58 57 58 57 57 58
44 43 38 36 32 31 32 33 33 37 38 40 38 35 34 39 42 43 44 44 43 39 38 35 34 32 29 40 46 42 52 53 53 57 58 51 62 57 56 59 58 57 59 60 60

GFSSW_sfc_temp_009.txt.gz
Temp
60 59 59 59 59 59 60 60 60 60 60 61 61 61 61 60 60 65 67 73 73 71 73 76 76 79 80 78 78 74 68 65 66 66 74 79 78 80 84 82 84 86 86 90 87
59 60 60 59 59 59 58 59 59 60 60 60 60 60 60 60 58 59 73 72 73 73 78 76 72 75 74 75 76 72 66 67 75 77 76 77 76 77 77 79 80 82 88 88 87
59 59 59 59 59 59 59 59 59 59 60 59 59 60 60 61 60 69 74 72 73 74 83 82 80 75 71 72 73 72 65 74 76 78 77 76 77 81 76 74 81 79 83 87 89
58 59 59 59 59 59 59 59 59 59 59 59 59 59 60 58 58 73 72 73 72 76 78 77 76 70 70 67 74 67 72 74 77 79 76 74 78 73 77 78 84 85 85 85 85
58 58 58 58 58 58 58 59 59 59 58 58 59 59 58 51 59 77 71 71 77 74 72 73 71 72 67 70 72 66 71 75 76 76 76 76 71 73 75 80 85 85 84 83 84
58 58 58 58 58 58 58 58 57 58 58 58 58 59 53 41 67 70 69 68 75 74 72 74 73 75 72 69 68 75 72 73 76 75 76 72 73 75 77 82 82 82 82 85 85
57 57 57 58 58 58 58 57 57 57 58 59 59 59 50 49 67 70 69 66 68 71 71 76 77 71 73 68 75 72 66 70 71 72 71 74 69 70 80 82 79 80 82 83 84
57 56 57 57 57 58 58 57 56 57 58 59 59 57 47 65 68 64 67 64 67 70 68 75 78 73 70 72 68 66 66 61 72 72 73 71 64 77 82 79 78 80 80 81 84
57 56 56 57 57 57 57 56 57 58 58 59 54 52 46 64 58 65 66 61 70 69 71 76 75 69 68 63 60 62 58 59 64 72 71 70 67 77 80 78 76 77 79 81 82
57 56 56 56 57 56 55 55 57 57 58 60 58 47 54 55 62 65 69 65 63 67 65 67 67 63 63 60 51 57 56 60 59 70 69 69 67 73 75 75 74 77 79 79 79
57 56 56 56 56 56 54 53 54 51 53 48 50 50 55 63 67 64 67 61 61 65 58 63 58 55 60 62 63 64 61 61 67 71 67 67 66 69 74 75 74 75 76 77 79
56 56 56 56 56 54 53 49 49 50 41 53 52 54 58 61 51 60 67 57 55 54 61 58 53 63 67 65 61 60 58 59 64 67 66 65 64 70 72 73 76 75 76 77 79
55 55 55 56 55 52 49 49 58 56 41 48 53 52 54 56 49 52 61 60 55 53 57 56 61 64 62 61 58 58 57 58 59 65 67 64 61 66 74 74 76 77 77 78 77
55 55 55 54 51 51 49 56 56 55 36 43 47 53 57 56 48 61 64 61 58 53 57 59 67 63 61 59 60 54 63 62 60 57 52 64 49 62 68 69 74 76 77 78 79
54 55 55 54 49 48 53 55 57 51 24 49 50 63 62 53 56 59 65 60 53 56 58 55 59 59 58 59 63 59 66 61 61 57 57 58 52 60 67 65 70 75 79 79 76
54 55 54 53 50 53 56 54 52 34 23 43 52 49 51 55 56 59 58 62 64 56 60 61 68 65 64 65 64 67 63 62 60 58 46 56 53 55 62 66 72 76 79 76 71
54 53 51 54 47 53 54 50 33 26 46 40 41 47 48 48 49 51 49 48 48 45 47 56 58 64 67 61 65 62 57 47 44 44 44 59 54 55 68 72 73 75 80 73 67
53 52 51 53 53 53 49 39 24 36 38 47 44 46 43 47 46 46 45 46 52 54 52 47 45 59 66 63 59 58 57 50 40 43 50 56 50 56 71 75 76 78 77 72 67
51 52 50 52 52 51 42 29 33 37 41 40 42 39 40 45 44 43 41 40 49 54 45 49 50 63 65 68 67 59 54 64 53 53 50 54 58 64 71 72 74 74 70 68 67
48 47 48 52 51 46 37 32 36 43 44 43 33 40 35 40 40 39 35 39 40 47 50 49 47 60 63 68 68 64 67 51 55 42 40 51 53 58 66 70 73 72 70 67 67
46 42 52 50 49 39 32 34 39 46 46 40 37 36 38 38 39 36 35 41 41 43 48 50 50 54 61 58 58 58 57 59 59 54 46 45 54 68 70 75 75 75 71 68 67
44 37 51 51 38 36 34 38 41 43 47 43 43 40 37 39 38 37 34 38 44 42 38 47 46 48 54 66 68 65 61 59 52 46 55 52 55 70 71 74 72 73 70 68 69
38 39 50 49 31 33 39 38 40 40 42 41 40 42 44 39 33 39 38 45 44 42 36 43 45 44 49 56 62 59 62 62 60 58 50 47 56 71 72 72 72 70 68 67 68
41 34 41 43 41 34 32 36 36 45 43 43 42 43 41 40 43 38 38 44 45 45 45 45 42 44 47 51 57 54 58 61 59 53 53 53 61 68 72 73 72 69 68 69 68
40 38 39 32 36 35 36 36 34 35 43 43 40 37 35 34 38 35 37 39 42 44 44 43 37 43 47 49 52 57 58 59 56 58 52 58 59 67 71 73 72 70 68 67 68
38 37 42 38 39 36 37 35 35 38 37 38 37 40 40 35 37 34 40 39 36 42 43 46 38 42 44 52 53 52 57 60 59 59 59 61 62 73 76 76 69 69 68 68 69
47 45 39 38 36 33 35 35 35 36 40 43 40 37 37 41 45 46 46 45 44 41 41 41 41 39 41 47 51 47 56 58 60 62 61 57 65 73 72 73 73 70 69 70 71

GFSSW_sfc_temp_012.txt.gz
Temp
61 60 60 60 60 59 59 59 59 60 61 60 61 61 61 61 61 74 73 79 80 70 75 86 85 86 88 87 90 90 76 74 78 79 81 91 86 90 92 90 92 94 93 97 99
60 60 60 60 60 60 59 59 60 59 60 60 60 60 60 60 67 72 80 73 72 72 83 83 81 84 82 83 85 81 76 77 86 87 85 89 87 89 85 86 87 91 97 99 99
59 60 59 60 59 59 59 59 60 60 59 59 59 60 60 63 69 80 72 73 72 75 87 89 89 85 79 84 83 82 75 86 87 89 89 86 86 91 86 82 85 88 92 95 96
59 59 59 59 59 59 59 59 59 60 60 59 59 59 60 67 64 79 71 72 73 80 83 85 84 79 76 77 83 76 83 85 87 89 87 84 88 85 87 85 90 93 94 94 93
58 59 59 58 59 59 59 59 59 59 59 59 59 59 63 61 68 84 73 76 84 80 80 82 79 80 74 80 81 79 81 85 87 86 86 86 83 84 85 88 92 93 93 92 93
58 58 58 58 58 58 58 58 58 58 58 58 59 59 61 52 78 80 78 79 80 82 80 83 81 84 81 81 80 83 83 83 85 85 86 82 83 85 86 87 89 91 92 93 94
57 57 57 58 58 58 58 57 57 57 58 59 60 61 58 59 77 80 78 77 78 80 79 83 86 80 81 76 84 82 75 80 81 83 82 85 75 77 87 88 87 89 91 93 93
57 57 57 57 58 58 58 57 56 57 58 59 60 61 55 74 79 74 77 75 79 78 78 84 85 80 79 82 77 75 75 68 80 81 81 79 69 82 90 90 88 88 90 91 92
57 57 57 57 57 58 57 56 57 58 59 60 59 59 57 69 65 73 75 69 76 78 77 80 80 76 77 69 67 71 64 69 73 84 81 78 71 83 90 88 84 85 88 89 91
57 56 56 56 57 57 56 56 59 58 63 66 65 54 63 63 69 71 77 72 68 72 70 71 73 69 70 68 58 64 66 69 70 79 77 75 74 82 87 86 83 85 86 88 88
57 56 56 56 56 56 58 68 63 60 63 59 61 59 65 72 74 70 74 69 68 66 61 68 64 62 67 69 71 71 70 69 75 81 76 74 74 79 84 84 82 84 85 86 87
56 56 56 56 56 55 62 59 56 58 49 63 62 62 65 68 57 64 72 62 62 58 65 65 60 70 73 73 69 68 67 68 74 78 76 73 71 77 81 82 82 83 85 87 88
55 55 56 56 55 58 60 58 65 64 48 57 62 60 62 64 57 60 67 65 61 58 62 61 66 73 72 69 67 67 65 66 66 71 74 70 66 70 78 82 84 86 87 87 87
55 55 55 55 55 62 59 63 66 64 41 52 56 60 64 62 55 68 69 66 62 57 62 63 73 71 69 67 70 62 72 68 65 64 58 72 56 68 74 76 80 83 85 88 90
55 55 55 54 56 56 61 65 66 59 30 53 56 70 67 60 61 63 72 64 56 60 63 60 64 65 66 68 72 66 70 68 67 64 63 64 60 66 74 72 76 81 85 88 91
54 55 54 61 58 60 65 64 60 38 30 48 57 54 56 60 60 64 63 67 66 59 63 63 74 71 70 73 73 74 68 68 68 64 53 62 62 63 70 73 78 84 86 89 87
54 53 54 59 54 63 64 58 38 33 51 45 47 53 53 53 55 56 55 55 52 47 49 59 62 70 74 69 73 69 63 55 50 51 50 66 62 65 75 79 81 82 85 84 82
53 52 53 63 62 60 57 45 29 42 42 52 50 51 47 54 52 51 52 49 59 56 55 49 49 62 71 69 65 65 64 58 46 49 57 68 57 66 78 83 85 86 86 85 81
51 65 62 61 63 61 48 33 39 43 47 45 48 45 47 50 49 49 48 40 49 58 49 49 53 69 71 73 73 65 61 72 62 62 59 65 67 73 78 79 82 83 84 83 80
58 59 57 60 60 51 42 36 42 49 50 48 39 44 40 45 45 47 43 37 39 51 55 53 48 66 68 74 74 70 73 59 64 49 48 59 60 65 72 76 81 83 83 81 80
58 54 60 62 61 49 35 43 46 52 51 44 43 41 42 43 46 44 39 42 40 47 54 54 53 59 67 63 64 67 65 66 67 64 53 53 59 73 74 80 81 84 83 80 79
55 50 62 63 40 45 38 45 46 48 53 49 48 45 42 43 44 44 39 42 46 47 43 51 51 47 59 70 74 72 68 66 59 54 62 60 60 79 79 81 80 83 82 82 82
49 54 63 58 35 37 45 45 49 47 48 46 44 47 49 44 39 43 43 49 48 44 41 44 49 47 55 64 69 66 68 69 67 67 57 55 60 82 81 81 81 80 80 80 81
52 45 54 54 48 39 39 42 43 51 49 48 47 49 46 44 47 42 42 40 43 45 45 45 48 50 51 57 64 61 65 69 65 60 60 62 65 75 78 79 80 79 79 81 81
53 48 47 42 41 41 42 42 40 38 49 51 46 44 44 39 43 39 42 44 41 43 45 46 46 52 56 57 58 64 64 67 63 65 61 64 66 73 80 79 80 81 80 80 80
44 40 49 43 46 43 42 41 40 41 37 42 42 45 47 42 43 41 46 42 42 47 47 49 45 52 50 58 58 58 65 67 67 67 67 67 67 80 82 82 81 80 80 80 80
50 48 40 42 41 37 39 39 37 38 40 44 42 41 43 48 51 53 53 51 49 45 43 42 41 48 47 57 56 51 62 65 66 69 69 64 70 78 77 78 79 79 80 81 81

GFSSW_sfc_temp_015.txt.gz
Temp
61 60 60 60 60 60 60 60 60 60 60 60 60 60 60 60 61 76 74 84 85 72 71 90 90 90 91 88 91 93 78 75 79 81 83 94 92 98 98 93 96 98 98 100 104
60 60 60 60 60 60 60 60 60 60 60 60 60 60 60 60 67 75 84 74 73 73 85 87 83 87 84 85 87 83 76 78 88 90 89 93 93 95 93 92 92 94 100 103 104
59 59 60 60 60 60 59 60 59 60 60 60 60 59 59 63 72 82 72 75 73 76 88 91 91 88 82 87 86 84 76 85 89 93 92 92 92 96 91 87 92 90 95 99 100
59 59 59 59 59 59 59 59 60 60 60 60 59 60 60 69 66 80 73 74 74 81 82 84 87 83 80 79 87 80 85 87 89 91 91 89 92 91 91 91 97 97 97 97 97
58 59 59 58 59 59 59 59 59 59 59 59 59 60 65 67 71 87 75 78 86 85 80 80 82 83 79 83 85 82 85 89 91 91 91 93 88 89 90 95 98 97 96 95 97
58 58 58 58 58 58 58 58 58 58 58 58 59 59 62 56 85 88 87 85 85 86 84 85 84 89 84 84 83 86 86 87 89 89 90 87 88 89 91 96 94 94 94 96 97
57 57 58 58 58 58 58 58 57 58 58 59 60 64 61 64 83 86 85 84 86 85 82 89 89 86 87 81 89 87 80 84 86 88 86 88 81 82 91 94 91 92 94 95 97
57 57 57 58 58 58 58 57 57 58 58 59 60 64 57 80 85 82 84 82 85 85 83 87 90 85 84 86 84 79 80 71 82 86 87 85 72 84 92 91 90 93 94 95 96
57 57 57 57 58 58 57 57 57 58 59 60 62 62 60 76 73 79 80 74 80 83 84 84 83 79 81 74 70 75 67 71 76 87 85 82 76 86 92 90 88 90 92 92 93
57 57 56 57 57 57 56 55 62 59 62 70 70 61 68 67 77 76 80 78 74 75 76 74 73 70 72 71 60 66 68 71 71 81 84 80 79 86 89 88 87 89 91 92 91
57 56 56 56 57 56 59 72 67 63 67 63 65 64 70 78 81 75 78 74 73 70 63 71 64 62 68 71 74 74 73 71 77 84 79 77 79 84 87 87 86 87 88 90 90
56 56 56 56 56 56 61 64 64 65 54 66 68 69 73 75 64 70 77 66 65 59 66 66 60 70 75 75 73 71 69 70 76 82 78 77 76 82 85 85 85 85 87 88 90
55 55 56 56 55 59 67 66 73 71 54 60 69 69 70 72 64 65 73 68 62 61 63 60 67 74 72 71 70 70 68 69 70 77 78 76 71 75 82 84 85 87 88 89 89
55 55 55 55 56 68 65 71 74 71 45 56 61 65 68 69 61 73 75 69 64 59 64 64 72 71 70 69 72 64 76 73 71 69 62 76 60 71 78 80 83 86 87 89 90
55 55 55 55 60 62 67 73 73 65 31 58 61 74 70 64 66 67 76 69 59 62 63 60 65 66 67 69 75 70 77 74 73 68 67 67 63 69 78 75 80 84 87 89 91
55 55 54 64 63 67 73 71 64 39 31 52 60 57 60 63 64 69 67 72 69 61 64 64 74 72 70 75 77 78 74 73 73 69 57 65 64 65 72 77 82 86 89 90 92
54 54 57 67 61 71 70 61 36 33 51 44 47 54 52 56 59 62 59 57 55 49 50 59 63 72 75 68 75 75 67 57 53 53 53 69 65 68 78 83 84 85 88 91 91
53 52 57 67 69 68 62 46 31 46 47 56 54 55 51 56 57 58 56 52 59 56 55 50 48 63 72 70 67 69 67 59 47 52 59 69 60 70 83 86 87 89 89 89 86
51 68 65 69 69 65 48 36 39 46 52 49 51 44 48 52 54 54 54 53 53 49 39 51 53 69 71 74 73 68 65 73 64 68 63 68 73 79 83 83 85 86 88 87 85
61 66 66 69 67 62 47 40 48 55 54 52 41 45 41 47 48 51 51 47 49 52 51 53 49 65 70 73 74 72 77 62 67 53 52 63 66 67 75 80 84 85 86 87 85
59 59 66 70 67 54 39 46 52 57 56 48 44 44 46 43 47 47 46 50 48 52 55 54 43 54 65 64 64 68 68 68 69 67 57 56 62 80 78 83 84 87 88 85 84
62 54 68 71 45 47 43 51 50 55 57 54 51 46 45 45 44 47 43 47 52 52 47 57 47 42 57 71 75 73 69 68 62 59 67 66 66 82 82 84 84 87 87 87 86
58 62 68 64 38 41 51 51 54 51 53 52 48 52 53 46 40 47 49 47 47 46 42 48 47 40 47 62 70 68 71 72 70 71 62 62 66 83 84 83 85 86 87 85 85
59 52 62 62 53 44 44 46 46 56 53 54 51 53 46 45 50 43 45 49 48 46 45 43 47 45 41 55 66 63 69 72 69 63 64 66 70 76 79 80 82 83 84 85 85
62 55 53 46 46 44 44 46 42 42 46 50 49 50 46 42 47 47 48 52 48 46 43 42 42 50 45 51 62 67 68 71 67 69 66 69 71 75 80 80 81 83 84 84 85
51 49 55 49 49 44 47 44 44 46 44 45 44 48 50 45 47 44 50 49 43 49 43 46 42 47 42 48 56 65 69 71 71 71 73 74 72 81 85 87 83 83 84 83 84
59 56 46 47 47 43 44 46 43 47 49 49 47 46 46 50 55 56 57 56 54 49 47 43 39 44 34 47 52 55 66 69 71 74 73 68 74 82 82 81 78 80 83 84 86

GFSSW_sfc_temp_018.txt.gz
Temp
60 60 60 61 60 60 60 60 60 60 61 61 61 61 60 60 60 69 66 79 81 74 71 90 88 88 90 85 87 88 72 69 74 77 81 92 89 96 99 94 96 98 96 99 103
60 60 60 60 60 60 60 60 60 60 60 60 60 60 60 60 62 68 79 77 76 74 84 83 83 86 82 83 84 79 72 73 83 85 84 89 89 91 90 90 90 91 98 102 103
60 60 60 59 60 59 59 60 60 60 60 60 60 60 60 62 65 78 73 74 74 77 87 88 89 85 78 82 81 80 72 80 84 88 89 87 89 93 88 85 90 90 94 98 98
59 59 59 59 59 59 59 59 60 60 60 60 59 60 60 63 62 81 74 74 74 84 84 81 80 78 76 74 82 74 81 83 85 88 88 86 91 88 89 90 96 96 98 98 96
58 59 59 58 58 59 59 59 59 59 59 59 59 60 62 64 66 87 75 77 85 82 78 76 74 76 73 78 80 77 80 84 88 89 88 90 87 87 88 94 97 97 97 95 95
58 58 58 58 58 58 58 58 58 58 58 59 59 59 59 51 81 88 88 87 86 84 83 81 77 80 78 78 77 82 82 83 87 87 89 85 86 87 89 94 94 94 93 95 95
58 58 58 58 58 58 58 57 57 58 58 59 60 62 57 59 80 83 83 83 85 84 80 86 86 80 80 75 84 83 77 82 84 85 84 88 80 82 90 92 90 91 93 94 95
58 57 57 57 58 58 58 57 57 58 58 59 60 61 53 76 82 80 82 80 83 84 82 85 86 80 79 82 79 76 76 69 80 83 85 84 70 84 91 90 88 90 92 93 94
58 57 57 57 57 58 57 57 57 58 60 61 60 60 56 78 73 78 81 75 80 83 83 85 80 74 76 70 67 71 64 67 73 83 82 81 74 84 90 89 86 88 89 91 91
57 56 56 56 57 57 56 56 60 61 65 70 68 59 67 66 76 79 81 78 73 74 73 73 72 65 67 67 56 62 64 68 69 78 81 78 76 84 88 88 86 88 89 89 89
57 56 56 56 56 56 57 65 68 62 62 60 64 62 69 77 82 76 80 76 74 69 60 68 61 58 62 68 71 70 69 67 74 81 77 75 76 80 86 85 83 83 86 86 87
56 56 56 56 56 56 59 62 66 67 54 66 67 67 72 74 65 71 79 67 64 57 64 62 57 66 70 70 69 68 66 67 74 80 77 75 75 81 84 84 86 85 86 86 87
55 55 56 56 56 59 66 68 75 72 54 58 65 66 69 73 65 66 73 68 61 58 60 56 63 70 68 66 66 67 65 66 67 74 77 74 70 74 82 84 86 87 87 87 85
55 55 55 55 55 67 65 73 76 72 45 54 62 67 71 71 62 75 76 68 63 56 60 61 67 66 66 64 67 61 72 71 69 66 60 74 57 70 77 78 82 84 85 86 87
55 55 55 54 60 64 68 74 74 64 29 59 60 76 72 64 66 68 76 69 58 60 60 56 62 62 61 66 70 65 73 71 71 67 65 66 61 66 75 73 78 82 85 87 88
54 55 55 65 64 69 74 72 64 36 27 46 56 55 54 58 61 69 67 72 70 61 62 60 69 67 66 70 72 75 70 70 70 67 55 64 62 63 69 74 79 84 87 89 91
54 54 55 65 63 73 72 61 35 28 48 46 50 56 55 55 58 62 60 58 54 47 49 57 59 66 70 64 70 69 64 53 51 53 51 67 63 66 74 80 82 83 86 89 88
53 52 62 71 74 72 64 47 28 38 43 57 55 55 51 55 56 57 56 53 60 57 49 43 43 59 67 64 63 64 63 56 44 48 55 67 58 65 80 84 86 88 87 87 84
52 68 67 71 71 69 53 36 35 41 54 51 53 42 45 46 49 53 53 52 57 56 42 42 47 65 67 69 69 64 58 69 60 63 58 64 69 75 81 82 85 85 86 83 83
57 63 67 72 72 62 45 40 47 52 56 55 44 42 37 46 44 44 48 52 53 54 57 48 38 55 62 69 69 66 72 57 62 48 48 60 64 66 74 78 82 82 83 82 83
58 58 69 73 69 53 39 46 51 58 58 51 47 45 45 42 44 44 45 52 54 55 57 53 43 44 54 58 59 62 62 64 65 63 53 52 62 77 78 81 80 83 85 82 81
60 54 71 73 48 48 44 52 53 53 59 55 54 51 46 45 44 47 45 42 52 54 47 52 43 37 47 64 70 68 64 64 58 55 62 61 63 81 82 83 84 85 85 83 83
56 61 70 67 40 43 51 51 54 52 53 51 48 53 53 48 39 43 44 50 54 50 46 43 42 35 44 55 62 60 66 67 66 66 59 57 62 82 83 83 85 84 83 82 81
58 52 62 61 58 47 44 45 46 55 53 54 51 53 48 45 50 38 46 52 55 51 47 45 38 40 35 46 45 48 62 67 66 58 61 65 67 75 78 79 82 82 82 83 82
59 55 57 47 48 49 48 47 45 46 53 54 48 50 47 42 47 46 49 50 53 49 49 40 35 43 46 44 42 44 56 66 66 66 61 68 68 74 77 77 80 80 83 82 81
52 50 54 49 53 49 48 45 46 49 47 46 45 48 49 44 46 43 49 50 48 49 46 44 35 42 40 47 43 43 53 61 69 69 69 71 72 81 80 82 80 81 82 81 81
58 58 50 47 50 48 46 47 46 48 50 53 51 44 46 49 54 55 56 55 53 49 48 48 38 36 35 39 40 41 55 60 69 74 72 65 74 79 75 76 76 79 82 82 82

GFSSW_sfc_temp_021.txt.gz
Temp
60 60 60 60 60 60 60 60 60 60 60 60 60 60 60 60 60 60 57 69 72 73 72 82 80 80 81 77 78 79 56 53 61 65 72 83 81 88 92 87 88 89 86 89 92
60 60 60 60 60 60 59 60 60 60 60 60 60 60 60 60 55 56 68 74 75 74 75 74 73 78 73 73 73 70 56 60 71 74 74 80 81 84 85 82 84 87 90 93 95
59 59 60 60 60 59 59 59 60 60 60 60 60 60 60 59 54 66 74 73 74 75 79 79 78 76 70 73 72 71 63 71 74 78 80 80 81 87 83 77 82 82 86 90 90
59 59 59 59 59 59 59 59 59 60 60 59 59 59 60 56 50 72 74 73 73 77 77 75 71 66 63 65 73 66 73 74 76 79 79 77 84 81 82 80 85 87 87 85 84
58 59 59 59 59 58 59 59 59 59 59 59 59 59 56 50 52 75 76 75 79 77 74 70 65 63 59 66 71 68 71 76 79 79 79 82 79 80 81 87 88 89 89 84 83
58 58 58 58 58 58 58 58 58 58 58 59 59 60 51 39 67 75 78 77 79 74 71 70 65 68 64 65 66 72 73 74 77 77 79 78 79 81 83 85 86 88 86 84 83
58 57 57 58 58 58 58 57 57 57 58 59 60 59 50 47 68 72 69 68 72 76 73 76 76 70 67 63 72 71 66 72 74 76 75 80 74 75 84 85 84 84 85 84 85
57 57 57 57 57 58 58 57 57 57 58 59 60 56 44 66 67 65 66 67 73 75 75 76 76 68 64 69 69 63 64 57 69 74 77 75 65 77 83 83 79 84 86 86 82
57 57 57 57 57 57 57 56 57 58 59 60 55 50 46 70 64 70 71 68 73 75 75 80 73 63 64 56 54 60 51 56 62 74 74 71 67 77 82 81 80 82 83 84 85
57 56 56 56 57 56 56 56 58 59 61 65 63 51 58 60 72 76 75 74 70 69 67 65 60 56 56 52 44 50 53 58 58 68 72 69 69 76 80 80 80 81 81 82 80
57 56 56 56 56 55 53 51 57 52 55 54 57 56 60 70 75 72 76 72 69 63 51 58 50 47 53 57 58 60 59 58 63 71 68 67 68 72 77 75 76 76 76 77 80
56 56 56 55 55 55 51 50 60 59 48 61 61 61 67 68 60 66 73 61 59 50 56 52 46 57 61 61 59 58 55 56 64 71 67 66 66 73 76 75 77 78 72 74 73
55 55 55 55 55 53 55 63 69 64 46 53 60 59 61 65 58 60 67 63 56 51 52 48 53 62 60 58 57 56 55 56 57 64 67 64 60 65 72 75 75 76 75 74 73
55 54 55 55 53 57 58 67 68 63 35 45 53 60 65 63 55 69 72 64 57 50 53 51 60 59 57 56 59 51 63 63 61 57 50 63 48 61 67 70 75 78 77 79 78
54 55 55 53 49 53 62 66 63 55 21 48 52 65 66 59 61 61 72 65 54 54 54 49 53 54 53 56 63 56 65 62 61 57 55 57 49 59 64 63 66 71 72 72 74
54 55 54 57 51 58 66 62 56 35 24 41 56 56 56 59 59 62 65 68 66 57 56 54 62 59 57 62 64 66 61 60 59 55 43 54 53 55 59 64 67 71 74 77 76
54 54 52 59 51 65 63 55 34 26 49 45 48 53 52 48 52 57 55 53 46 41 42 51 53 60 63 54 60 59 51 39 38 40 40 57 53 57 62 69 73 72 73 71 70
53 52 54 62 64 61 54 40 27 39 42 51 52 51 45 47 45 47 47 45 55 52 45 40 37 52 61 55 50 51 52 41 31 37 44 58 47 57 71 73 73 76 73 70 68
52 56 55 60 65 58 45 28 30 38 41 45 49 43 43 47 41 43 42 42 50 47 38 36 40 56 56 58 59 52 46 58 48 50 45 50 58 66 72 72 71 74 73 68 69
47 51 55 64 62 52 39 35 42 45 45 46 37 44 37 42 41 40 38 46 48 52 50 44 34 50 54 57 57 55 59 45 48 36 35 48 52 54 63 68 72 69 69 67 69
47 47 58 65 59 45 30 38 47 53 51 45 36 39 40 41 41 39 42 49 49 47 49 46 39 41 49 46 45 49 50 50 51 47 40 39 48 65 68 71 68 68 70 69 69
49 42 60 61 41 40 34 46 50 50 54 50 49 45 42 44 40 41 38 41 50 51 42 42 35 32 40 51 56 52 47 52 43 44 49 46 49 69 69 68 70 70 71 71 71
43 49 60 57 33 34 44 48 50 49 45 48 46 48 46 40 35 42 41 51 50 49 41 42 33 28 36 45 52 47 53 56 52 49 48 45 50 71 72 72 71 71 72 72 71
46 41 49 50 49 42 41 42 43 53 51 51 47 48 44 38 43 40 39 50 52 46 49 44 35 33 28 37 42 38 42 46 46 45 48 52 58 63 67 67 70 71 72 72 72
46 44 46 37 39 43 45 43 40 41 50 49 44 45 42 35 39 40 44 47 50 48 45 40 32 37 40 44 44 41 42 43 41 48 49 56 57 65 64 66 70 71 72 72 72
44 42 45 42 45 44 44 41 40 40 42 41 40 44 40 34 38 37 42 42 41 46 42 40 34 38 35 44 44 41 44 44 45 46 53 60 62 69 65 70 71 73 73 72 72
50 50 44 42 41 40 40 43 43 45 45 48 46 42 39 43 46 46 49 48 47 44 42 41 35 33 31 42 41 35 43 45 48 50 53 56 65 68 65 67 64 68 74 74 74

GFSSW_sfc_temp_024.txt.gz
Temp
60 60 60 60 60 60 60 60 60 60 60 60 60 60 60 60 59 56 53 66 68 71 71 78 74 75 74 70 73 72 53 50 58 63 67 77 75 85 88 85 84 86 84 88 91
59 60 60 60 60 60 59 59 60 60 60 60 60 60 60 60 53 52 65 70 71 72 72 71 71 74 65 67 68 62 54 56 67 71 67 73 76 78 80 79 80 84 86 90 89
59 59 60 59 59 59 59 59 59 60 60 60 60 59 59 58 49 58 74 70 72 73 74 74 74 72 63 67 66 63 60 67 70 73 75 73 75 80 77 74 78 79 83 87 87
59 59 59 59 59 58 58 59 59 60 59 59 59 59 59 54 45 66 74 74 73 73 71 69 67 62 58 60 68 61 68 70 71 75 74 72 77 76 77 77 83 83 84 84 83
58 58 58 58 58 58 58 58 59 59 58 58 59 59 55 45 48 69 72 73 75 71 67 66 63 61 54 60 64 63 67 71 73 73 74 76 73 74 75 81 85 84 84 82 80
58 58 58 58 58 58 58 58 57 57 58 58 59 60 52 38 61 66 68 69 69 67 66 65 64 66 61 58 60 63 65 68 72 71 73 72 73 76 78 83 84 84 81 81 79
57 57 57 58 58 58 58 57 57 57 58 58 59 59 50 46 62 63 63 61 65 66 63 70 71 65 61 56 65 65 58 64 67 69 70 75 68 69 79 82 80 81 82 80 79
58 57 57 57 57 57 57 57 56 57 58 59 60 56 45 62 62 59 59 59 65 66 67 71 70 63 59 63 63 56 56 53 64 68 70 69 59 73 79 78 77 80 83 83 80
57 56 56 57 57 57 56 56 56 58 60 60 52 49 42 64 59 64 64 61 67 69 69 76 67 60 58 52 47 51 48 51 57 67 67 67 62 72 78 78 73 74 77 80 82
56 56 56 56 56 56 55 55 57 59 60 62 61 47 53 56 67 70 70 67 63 65 63 60 56 52 48 46 41 44 48 53 53 62 66 64 63 71 75 76 75 77 79 79 80
56 56 55 55 56 56 53 47 53 49 53 49 54 53 56 64 68 65 70 67 64 58 48 53 45 44 51 54 54 55 53 52 57 64 62 62 63 67 72 72 69 71 73 77 78
56 55 56 55 55 55 49 46 55 54 44 58 58 57 62 63 54 60 68 56 54 47 52 47 43 53 57 56 54 52 49 49 56 63 62 61 61 68 71 72 73 74 74 74 75
55 55 55 55 54 52 50 56 62 57 42 50 57 58 60 61 53 54 62 58 52 48 48 44 48 58 54 52 51 51 49 50 50 58 62 58 55 59 66 68 70 70 73 70 70
54 54 55 54 51 49 52 62 58 56 34 44 52 58 63 60 52 64 65 59 53 47 50 47 54 53 52 50 53 45 57 56 54 51 44 59 44 57 63 66 69 70 69 70 75
54 54 55 54 45 46 57 57 56 51 20 51 53 68 65 56 59 57 70 61 49 50 49 45 49 49 48 51 56 50 59 56 55 50 49 51 43 55 59 61 65 68 70 68 70
54 54 54 50 45 51 57 55 51 31 19 44 54 53 52 55 55 59 58 62 58 53 53 51 58 55 53 57 58 60 55 54 53 46 37 49 47 47 55 61 62 66 69 73 72
54 53 52 54 46 55 53 47 29 22 46 40 41 48 48 46 49 51 49 46 41 35 36 47 50 56 59 51 55 51 41 33 30 33 36 52 47 52 57 63 67 69 71 73 69
53 52 50 54 50 53 48 37 21 36 36 46 45 45 43 45 45 47 44 40 50 47 39 37 35 49 57 50 46 45 42 33 26 29 37 53 42 49 65 71 74 75 74 66 61
51 44 47 54 55 51 40 26 28 34 44 40 43 39 39 45 43 44 41 40 45 44 35 35 38 52 55 55 51 44 41 48 40 45 36 44 51 58 66 68 71 71 65 61 60
44 42 46 57 56 47 35 33 38 48 48 46 31 36 33 36 38 38 40 45 44 47 45 41 32 48 52 54 53 48 52 39 37 30 28 40 44 47 57 62 66 66 62 60 60
42 42 52 58 53 40 26 33 43 52 51 44 37 37 39 38 39 38 38 44 47 47 49 40 36 39 46 45 42 42 41 43 42 39 35 31 40 56 58 63 66 62 63 62 62
40 37 54 56 38 34 30 42 47 48 52 47 46 42 39 40 37 39 37 42 51 48 39 40 34 29 37 49 53 47 43 41 33 35 41 39 44 66 62 66 66 64 65 63 64
39 39 53 52 28 29 38 43 47 46 46 46 43 45 42 37 34 40 42 50 50 45 39 39 31 25 30 39 47 42 45 44 41 42 40 40 42 67 62 67 64 65 64 65 63
38 34 41 40 40 34 34 36 38 47 46 48 44 45 40 36 40 36 39 49 52 47 49 44 32 30 22 34 40 37 41 44 39 32 42 45 50 60 63 66 64 64 65 65 64
39 36 39 31 35 36 37 40 37 37 44 43 41 42 36 33 35 36 40 42 45 45 42 39 31 35 36 39 41 40 41 42 40 40 35 45 48 57 62 63 64 65 66 65 65
36 37 42 39 38 36 38 35 37 39 41 37 37 41 41 35 38 35 38 36 36 39 37 40 30 36 33 40 41 39 43 44 45 44 43 44 45 59 62 63 65 67 67 65 66
40 41 41 41 40 38 34 39 38 43 42 46 42 40 39 43 46 45 45 44 41 39 36 35 33 33 28 37 42 33 41 44 46 49 47 41 51 61 59 58 57 66 68 67 68

GFSSW_sfc_temp_027.txt.gz
Temp
60 60 60 60 59 59 59 59 59 60 60 60 60 60 60 60 59 55 52 65 65 70 71 76 73 72 68 66 69 65 51 48 55 59 64 73 73 82 83 78 80 82 78 85 87
60 60 60 59 59 59 59 59 59 59 60 60 60 60 59 59 52 50 64 69 70 71 68 69 70 71 60 62 64 58 49 54 63 68 65 70 70 75 79 76 77 78 84 87 86
59 59 59 59 59 59 59 59 59 59 59 59 59 59 59 58 47 56 72 71 71 71 69 71 73 70 59 61 61 59 56 65 68 70 71 71 70 75 74 70 74 75 78 83 82
58 59 59 58 58 58 58 58 59 59 59 59 58 59 59 52 44 64 73 71 71 74 67 66 65 59 55 57 62 56 63 67 68 71 70 69 74 72 73 74 79 79 81 79 82
58 58 58 58 58 58 58 58 58 58 58 58 58 59 54 43 45 66 69 67 69 69 63 62 61 60 53 56 61 58 62 65 68 69 70 73 70 70 71 77 81 81 81 78 77
57 58 58 58 58 58 57 57 57 57 57 58 58 59 50 38 59 62 63 64 64 61 60 61 61 64 58 57 60 59 63 64 66 66 68 67 69 72 74 79 78 80 77 79 78
57 57 57 57 57 57 57 57 56 56 57 58 59 58 50 45 60 61 59 56 59 60 58 64 66 64 61 53 61 60 55 61 63 60 63 69 64 65 75 78 76 78 77 77 76
57 56 56 57 57 57 57 56 56 57 59 59 59 56 44 59 59 58 58 56 58 59 60 65 65 60 56 60 59 53 53 49 61 64 65 67 56 68 73 74 73 75 78 78 77
57 56 56 56 56 57 56 56 57 60 60 60 51 47 42 62 58 63 60 58 61 62 63 71 63 57 54 49 45 48 43 46 54 64 64 64 58 68 73 73 72 74 74 74 76
56 56 55 56 56 56 55 55 57 57 59 60 58 44 51 55 62 66 68 66 58 59 59 58 54 47 45 45 39 42 44 48 47 57 63 60 59 67 69 70 69 69 72 73 74
56 55 55 55 56 55 51 48 50 48 50 47 52 51 54 62 66 62 66 62 60 55 45 51 43 42 48 51 52 49 47 45 53 60 59 58 58 63 67 68 69 71 73 74 74
55 55 55 55 55 55 47 46 51 52 42 55 55 55 60 61 52 59 66 52 51 43 48 44 42 50 54 53 51 49 45 44 51 58 55 55 55 62 65 66 68 68 68 69 71
54 54 55 55 54 50 46 52 57 53 40 48 56 55 59 59 53 53 59 54 47 44 44 40 46 56 52 48 47 46 44 46 46 53 57 52 51 55 62 64 68 70 70 69 67
54 54 54 54 51 45 48 58 54 52 30 43 51 58 61 59 51 63 64 56 49 44 45 43 51 50 48 47 49 41 52 52 50 46 39 53 39 53 60 62 63 66 67 65 68
54 54 54 53 44 44 55 51 54 49 18 48 51 65 60 54 56 57 61 56 46 46 45 42 46 45 45 48 52 45 53 51 50 45 41 44 38 51 56 56 62 66 66 69 70
54 54 54 49 44 49 52 51 49 30 18 40 50 46 46 50 54 58 57 60 56 48 48 47 55 51 49 54 54 56 50 48 47 42 31 44 41 46 52 56 58 62 64 67 67
54 53 51 52 47 50 49 45 29 22 43 39 39 44 43 44 47 50 48 46 39 34 36 45 46 53 55 46 51 49 38 28 27 29 32 47 43 48 53 58 60 61 64 66 66
53 51 49 52 48 49 46 37 20 35 36 46 44 43 40 43 43 45 44 39 47 44 38 33 32 47 55 49 43 42 39 29 25 28 33 49 39 47 58 63 67 69 68 64 64
51 43 44 50 52 48 40 26 27 35 43 42 42 35 36 42 40 41 39 40 45 44 37 35 37 50 54 54 50 41 36 46 36 38 33 38 45 55 61 65 63 63 64 63 61
42 41 45 53 52 46 35 32 35 44 47 45 31 36 31 36 35 36 37 44 44 48 44 40 31 45 51 51 52 46 49 36 32 28 26 35 39 44 51 59 58 60 61 59 56
41 41 51 53 50 39 27 31 41 49 49 42 36 34 37 35 38 35 38 44 47 45 46 39 33 37 44 41 39 42 38 40 40 35 28 29 35 51 55 56 58 62 63 56 56
38 37 52 52 37 31 28 39 46 46 49 46 44 40 38 38 35 36 37 42 49 45 36 39 32 28 35 45 49 46 40 40 31 33 35 35 38 61 55 58 61 64 60 56 58
39 37 49 49 26 26 35 40 44 43 43 42 39 44 41 35 31 38 40 48 48 43 37 37 30 25 29 36 43 39 44 41 37 35 33 32 38 59 59 59 61 59 55 59 58
40 33 38 38 37 32 33 35 37 46 44 44 41 42 38 35 37 34 38 46 47 45 49 43 31 30 23 31 36 33 40 41 37 29 35 40 44 53 56 53 59 56 58 56 59
37 34 36 30 32 36 36 35 36 37 42 42 38 40 37 33 35 33 38 40 44 46 40 36 30 33 35 38 38 37 37 40 37 38 33 39 40 52 51 56 58 59 59 59 60
34 34 38 34 39 40 40 38 37 38 39 37 36 38 38 33 36 35 38 36 36 38 35 40 30 34 33 39 40 34 38 40 42 42 41 42 42 56 59 59 59 61 61 60 61
38 38 39 36 34 32 35 40 38 40 41 44 41 39 36 39 44 43 43 41 40 38 34 35 33 29 27 38 36 31 38 39 42 45 44 38 49 59 55 56 56 58 63 62 63

GFSSW_sfc_temp_030.txt.gz
Temp
60 60 59 60 60 59 59 59 59 59 60 60 60 60 60 60 59 53 52 64 63 68 70 69 70 69 67 64 67 63 50 47 54 58 63 69 64 75 79 76 77 79 78 81 82
59 59 60 60 59 59 59 59 59 59 59 60 60 59 59 59 51 47 62 68 69 70 64 63 65 68 60 61 62 58 48 52 62 66 65 68 66 70 72 71 73 74 80 84 84
59 59 59 59 59 59 59 59 59 59 59 59 59 59 59 57 44 54 71 69 69 70 67 67 67 67 56 58 59 57 55 63 64 69 69 69 68 72 68 65 71 71 74 78 79
58 59 59 58 58 58 58 59 59 59 59 59 59 59 59 50 42 61 72 69 69 70 66 63 61 57 53 54 60 52 61 66 66 69 69 67 70 68 70 69 75 75 76 74 76
58 58 58 58 58 58 58 58 58 58 58 58 58 59 51 41 45 60 67 64 65 64 61 58 57 57 49 53 59 57 59 63 68 69 68 71 67 67 69 74 76 78 78 75 73
57 57 57 57 57 57 57 57 57 57 57 58 58 58 48 36 58 61 61 61 60 56 55 57 55 60 56 54 59 57 60 61 64 64 66 65 66 65 68 74 74 76 74 75 73
57 57 57 57 57 57 57 57 56 57 59 59 59 58 47 43 59 61 58 54 57 57 55 59 61 56 56 52 59 59 53 56 58 59 61 66 60 62 72 74 73 74 76 76 76
57 56 56 56 57 57 57 57 56 58 60 59 60 52 41 58 57 57 56 55 58 56 55 60 62 56 53 57 56 51 51 48 60 59 62 65 55 68 72 72 71 74 74 75 74
56 56 56 56 56 57 56 55 57 60 60 60 50 47 41 61 55 61 60 58 61 59 56 64 58 53 52 47 42 45 45 43 50 60 62 62 57 64 70 69 67 68 69 71 72
56 56 55 55 56 56 55 56 58 58 58 59 57 43 50 54 60 64 63 63 57 57 55 53 50 45 43 43 36 40 39 45 46 54 60 56 57 64 67 68 68 66 68 68 67
56 55 55 55 56 55 51 51 47 46 48 45 49 49 53 59 64 60 64 59 57 52 42 47 41 39 45 50 48 47 44 42 48 55 54 54 56 60 63 62 65 67 69 70 72
55 55 55 55 55 54 47 46 50 50 39 53 53 53 57 57 51 58 62 50 49 42 44 41 37 47 51 50 48 45 41 41 48 54 51 50 50 55 58 60 63 65 66 65 66
55 54 55 55 54 49 45 50 53 49 38 46 53 53 55 56 51 52 56 51 46 42 42 37 43 51 50 47 45 43 42 42 43 51 54 49 48 53 57 60 64 66 66 67 67
54 54 54 54 50 44 47 54 51 50 30 41 49 54 56 55 49 61 60 53 47 42 43 40 47 47 45 45 46 38 48 48 47 43 37 48 35 49 55 57 60 62 64 65 63
54 54 54 53 43 44 52 49 48 48 19 46 48 60 56 48 51 55 61 53 44 45 46 41 43 42 41 44 49 43 51 48 46 42 37 41 35 48 52 52 55 61 65 67 66
54 54 54 47 46 46 50 48 48 30 19 38 48 46 45 47 50 54 54 57 54 45 44 44 50 48 46 51 51 53 47 45 42 38 29 40 39 42 49 54 54 60 61 64 64
53 53 51 50 46 47 47 44 29 21 41 37 38 44 42 40 44 47 45 42 38 31 33 40 42 51 51 43 47 45 36 25 24 25 29 43 39 46 50 55 55 57 60 61 61
52 50 49 50 46 48 45 36 19 34 35 44 43 43 36 40 40 42 40 36 45 39 35 30 30 43 51 45 40 39 37 27 24 25 30 45 35 43 55 60 61 60 61 61 61
50 43 44 48 50 46 40 25 26 33 42 40 41 34 33 39 39 38 36 38 43 41 32 33 33 48 47 49 48 40 34 42 33 35 29 35 41 51 59 58 59 59 61 60 60
41 41 45 50 49 45 34 32 33 43 45 43 30 35 29 33 33 33 34 41 42 45 45 40 32 44 47 49 49 43 46 33 30 26 25 32 36 40 49 50 56 57 57 59 58
39 41 49 49 49 38 26 30 38 47 47 40 35 33 34 34 34 32 35 42 44 44 44 39 34 36 42 39 38 40 36 37 35 31 27 27 33 46 52 54 54 55 60 59 54
37 36 50 49 36 28 26 37 44 43 46 43 42 40 35 36 33 33 34 40 47 44 37 38 32 29 34 43 45 40 37 38 30 31 33 30 33 52 52 53 53 57 56 54 55
40 39 47 47 24 24 33 38 41 41 41 40 38 41 40 35 30 35 38 46 46 41 36 36 30 25 30 36 40 35 39 38 35 32 29 29 35 53 55 53 56 54 55 55 59
40 32 37 36 34 30 35 38 35 45 41 42 39 41 37 33 37 33 36 44 45 43 50 41 29 28 22 30 34 31 36 38 35 27 32 36 39 50 54 50 56 57 56 55 60
35 32 36 28 29 32 37 38 36 36 42 42 37 38 36 31 34 34 38 39 43 46 38 35 29 30 33 36 37 35 35 36 35 38 30 36 37 46 49 51 57 57 57 56 58
32 32 35 31 33 31 34 32 38 39 38 38 36 40 38 33 35 32 35 35 35 40 36 36 29 33 32 36 36 33 38 36 36 37 38 39 39 51 54 55 56 58 59 57 58
41 37 34 33 30 27 29 35 36 39 39 43 41 37 36 39 44 43 42 41 39 36 34 34 33 30 23 35 34 27 35 36 38 41 41 34 44 53 51 54 53 56 59 59 60

GFSSW_sfc_temp_033.txt.gz
Temp
59 60 60 60 60 59 59 59 59 60 60 60 60 60 60 60 59 59 57 67 65 69 70 72 74 73 74 72 74 73 64 61 63 63 69 76 76 84 86 84 86 89 89 91 89
59 59 59 59 59 59 59 59 59 59 60 60 60 60 59 59 56 53 64 68 69 70 68 67 68 72 68 70 72 69 63 64 71 72 71 77 77 79 80 79 81 84 89 90 92
59 59 59 59 59 59 59 59 59 59 59 59 59 59 59 60 52 62 70 68 69 71 70 69 68 68 66 69 69 69 63 70 72 74 75 76 76 80 77 75 82 81 81 87 89
58 58 58 58 58 58 58 58 59 59 59 59 59 59 59 57 52 64 69 68 68 72 68 64 63 63 63 62 70 63 69 71 73 73 73 72 78 76 78 79 83 83 83 84 84
57 58 58 57 57 58 58 58 58 59 58 59 59 58 57 53 56 68 67 66 68 67 63 62 61 63 61 65 67 63 69 71 73 73 73 74 72 74 76 81 84 83 83 83 83
57 57 57 57 57 57 57 57 57 57 58 59 59 58 53 50 66 66 65 65 64 63 62 63 62 66 60 63 63 70 69 69 71 70 71 69 71 74 76 81 80 81 81 83 83
57 57 57 57 57 57 57 57 57 57 59 59 59 59 50 56 66 68 64 63 63 63 60 63 66 61 62 59 67 66 61 66 67 69 68 70 65 67 75 77 76 77 79 81 84
57 56 56 57 57 57 57 57 56 58 60 60 60 57 50 64 66 64 65 64 65 63 62 64 64 61 60 64 63 59 61 55 66 66 69 67 59 74 80 78 76 78 80 81 84
57 56 56 56 57 57 56 55 57 60 60 60 56 54 56 67 63 70 66 63 67 64 62 66 63 59 60 54 52 57 52 55 60 69 67 65 62 73 79 78 76 78 79 80 81
56 56 55 55 56 56 55 56 60 60 60 61 59 51 59 60 66 67 71 65 61 62 61 59 59 54 55 52 43 48 49 55 56 64 65 63 63 71 76 74 74 76 77 79 80
56 55 55 55 55 55 55 63 58 56 56 51 53 52 57 64 68 64 69 64 62 58 52 56 50 46 52 54 55 55 52 53 59 64 63 61 63 67 72 72 72 74 75 76 77
55 55 55 55 55 54 56 56 55 55 46 56 56 55 60 62 54 64 67 56 54 49 53 50 45 53 55 55 52 52 50 50 55 60 59 61 59 65 67 68 71 71 73 74 77
54 55 55 55 54 55 55 58 61 58 47 51 57 56 60 62 55 58 62 58 52 48 50 47 51 55 52 51 49 51 48 50 50 56 60 57 54 59 67 69 70 73 74 75 75
54 54 54 54 53 53 56 60 59 59 41 46 53 57 60 60 51 65 65 58 52 47 50 49 56 51 51 49 52 45 55 54 52 50 45 57 45 58 63 64 67 69 71 73 75
54 54 54 54 49 53 57 58 59 57 30 49 52 66 61 52 55 58 67 58 49 49 49 46 49 49 48 50 54 48 56 53 52 50 49 51 46 54 63 61 66 69 71 73 75
54 54 54 51 50 55 57 57 57 40 28 42 51 49 50 53 54 57 57 62 59 50 50 49 57 52 52 55 55 57 53 52 52 49 39 48 47 51 58 62 66 70 74 75 76
53 53 53 54 56 56 56 56 39 32 45 41 42 48 47 45 48 50 48 47 43 35 39 46 47 53 54 49 54 52 47 38 35 36 36 51 46 51 62 65 67 68 72 75 76
52 50 52 55 56 55 57 48 30 37 39 47 46 46 41 46 46 46 45 42 48 41 34 33 31 46 53 50 48 49 47 39 30 34 39 50 42 53 64 69 69 71 72 74 74
50 53 54 58 57 56 53 37 36 38 44 42 44 39 39 43 43 43 43 41 46 45 33 31 37 50 52 54 54 48 43 53 42 45 42 46 52 60 64 66 69 71 72 72 73
48 50 56 57 57 56 47 37 40 46 47 45 34 39 35 40 39 40 40 46 45 49 49 41 31 46 46 53 53 49 55 41 44 33 33 44 46 51 58 63 65 67 68 70 71
49 52 58 56 57 51 37 39 42 49 49 42 39 37 38 37 40 39 39 47 48 48 50 45 39 41 47 43 35 42 41 48 48 46 38 39 47 59 59 61 62 66 68 68 67
46 48 57 57 48 38 39 41 44 45 49 45 45 42 40 40 38 38 38 43 51 49 43 45 39 34 40 50 51 48 44 46 40 40 45 43 45 62 61 63 63 66 68 70 63
41 43 55 55 37 38 41 41 44 43 44 43 41 44 44 39 32 39 41 50 51 47 44 45 38 32 37 43 47 43 46 46 45 45 40 39 45 62 63 64 63 65 69 71 64
45 41 48 47 44 40 38 39 40 47 45 45 42 44 39 35 41 35 39 46 50 48 49 47 40 36 31 37 41 39 42 45 42 39 42 43 47 55 59 59 61 65 68 71 67
42 40 41 38 41 39 38 39 38 38 43 45 40 39 37 33 35 36 41 44 46 48 46 44 34 39 40 41 42 41 41 43 41 43 38 45 47 53 56 57 61 65 67 70 69
40 39 43 39 39 38 39 38 39 41 40 40 39 42 40 34 36 33 39 37 36 40 40 40 33 38 34 41 42 39 43 44 43 44 44 45 44 56 57 61 63 65 68 69 70
43 42 40 39 37 36 38 39 39 41 43 45 42 38 37 42 45 45 46 44 40 37 36 35 35 34 31 40 39 34 42 43 45 48 46 41 49 56 55 58 62 64 65 66 69

GFSSW_sfc_temp_036.txt.gz
Temp
60 60 60 60 60 59 59 60 60 60 60 60 60 60 60 60 61 74 69 70 71 69 70 80 82 81 82 82 86 85 72 71 75 75 75 83 84 94 95 92 93 95 95 96 100
59 59 59 59 59 59 59 59 59 60 60 60 60 60 60 59 67 68 68 69 69 70 76 75 77 80 76 77 79 76 72 75 83 83 76 81 86 89 87 89 89 91 95 97 98
59 59 59 59 59 59 59 59 59 59 60 59 59 59 59 62 66 69 70 69 69 72 79 77 77 79 73 79 77 76 71 81 83 84 82 80 85 91 86 84 91 90 92 94 95
58 59 59 58 58 58 59 59 59 59 60 59 59 59 59 67 60 73 70 69 68 75 77 73 73 71 71 71 78 71 78 79 81 83 77 76 84 84 87 88 95 93 93 93 92
58 58 58 58 58 58 58 59 59 59 59 59 59 59 65 66 67 77 69 74 76 76 72 71 69 71 69 74 76 73 76 80 82 81 79 79 77 81 85 91 95 95 93 91 92
57 57 57 57 58 58 58 58 58 58 58 59 60 58 65 62 77 77 76 76 75 75 73 73 71 74 70 71 72 77 76 77 79 79 79 76 78 81 85 91 90 89 89 92 93
57 57 57 57 57 57 58 57 57 57 59 60 60 65 63 66 77 80 78 75 75 73 70 74 76 70 71 66 75 73 68 73 76 78 75 77 70 74 84 88 87 87 88 90 92
57 57 57 57 57 57 57 57 56 58 59 60 61 66 64 77 80 77 79 77 76 75 72 75 75 72 70 73 69 65 67 61 73 75 77 72 62 79 86 85 84 85 88 89 91
57 56 56 56 56 57 57 56 57 60 61 61 64 65 65 72 74 78 79 71 74 76 73 73 71 67 69 62 60 64 57 63 66 77 75 70 65 76 84 85 84 86 88 89 91
57 56 55 56 56 56 55 56 60 61 66 68 68 61 70 66 73 75 79 74 68 70 67 66 66 61 63 61 50 57 60 62 63 73 74 70 68 75 82 82 83 86 87 88 90
56 56 55 55 56 55 60 70 67 65 69 62 62 61 66 73 76 72 76 71 69 65 58 66 58 55 60 62 63 62 61 61 66 72 70 69 68 72 79 79 80 82 84 85 87
56 55 55 55 55 55 64 66 62 63 55 67 64 64 68 70 61 69 73 63 62 56 62 59 53 61 63 61 58 59 56 57 64 66 68 67 66 73 76 78 80 80 81 83 85
55 55 55 55 55 61 68 65 71 69 57 59 64 63 65 69 61 63 70 65 59 55 57 53 58 63 58 57 54 55 53 55 57 64 66 64 61 66 74 77 79 80 81 82 82
54 55 54 55 56 69 67 69 71 68 52 53 59 63 66 68 59 70 71 64 59 54 56 56 62 58 57 54 57 50 60 59 57 55 50 64 49 63 69 71 75 78 79 81 83
54 55 54 53 63 68 66 71 70 64 38 55 58 71 68 60 61 63 71 65 55 55 57 53 56 55 53 55 59 53 61 58 58 55 54 56 53 61 69 67 72 76 79 81 83
54 54 54 58 65 68 70 68 65 48 33 50 57 57 57 60 60 63 63 68 65 56 57 56 63 59 57 60 60 61 56 55 55 52 43 54 54 57 63 68 73 78 81 82 84
54 53 57 68 66 71 71 65 48 40 53 48 50 56 55 54 55 56 55 54 51 41 46 53 54 60 61 54 59 57 49 38 36 39 39 56 53 57 68 73 74 75 79 82 84
53 51 55 69 72 68 67 56 36 46 47 54 53 54 50 53 53 53 52 51 55 50 44 38 37 48 57 55 50 52 48 40 31 37 44 55 47 58 71 75 77 79 80 81 82
51 68 69 69 70 69 61 46 46 46 50 48 51 47 49 52 51 52 51 49 52 52 39 39 38 53 56 56 57 50 42 55 45 48 45 54 57 65 71 72 74 76 77 79 80
61 66 67 68 68 65 56 43 48 52 52 51 40 46 43 48 47 49 48 52 50 54 55 46 35 52 49 50 57 52 56 34 46 32 35 49 53 55 64 66 73 73 74 76 78
62 60 65 68 67 62 45 49 50 55 54 48 46 43 45 44 47 46 46 53 54 54 57 52 44 45 54 48 46 48 44 45 46 47 39 44 52 68 67 70 70 72 74 76 77
59 57 67 67 55 55 50 50 48 51 54 51 51 49 47 47 43 45 44 48 57 56 48 53 45 40 46 56 57 46 42 39 34 40 49 45 52 70 68 70 69 71 75 78 78
50 57 68 63 43 47 53 50 51 49 50 48 46 49 50 43 38 46 47 54 56 53 48 50 44 37 44 49 52 48 52 48 47 44 40 45 53 69 71 70 71 70 73 77 79
52 50 60 60 56 48 46 47 46 53 51 51 48 52 47 44 48 39 45 51 53 52 52 48 44 41 36 43 50 45 48 52 50 42 44 49 53 63 66 67 69 69 71 76 78
53 50 50 48 50 48 48 47 44 44 50 52 47 46 43 35 42 43 47 47 47 49 49 45 38 44 48 50 50 48 48 49 48 50 45 49 52 61 65 67 68 68 71 74 77
47 43 49 50 48 46 45 46 44 47 47 46 43 46 47 40 41 36 43 42 36 44 43 42 36 43 41 47 48 46 50 50 51 51 52 52 52 64 66 68 67 69 71 73 75
50 46 41 45 46 42 42 44 44 46 48 51 47 45 43 47 50 54 51 50 45 37 38 36 36 37 35 46 45 40 49 52 53 55 54 49 57 64 63 64 66 68 70 72 75

GFSSW_sfc_temp_039.txt.gz
Temp
60 60 60 60 60 60 60 60 60 60 60 60 61 60 60 60 60 77 74 70 72 69 70 82 85 84 85 82 88 90 74 71 76 78 80 92 89 97 101 97 99 100 99 100 107
60 60 60 60 59 59 59 59 60 60 60 60 60 60 60 60 69 78 70 69 69 70 79 80 80 84 79 80 83 79 74 75 85 87 85 89 89 91 93 92 93 96 99 101 105
59 59 59 59 59 59 59 59 60 60 60 60 60 60 60 63 73 75 70 71 69 71 81 83 82 81 78 83 81 80 73 81 86 89 90 86 87 93 91 88 93 92 96 99 101
59 59 59 59 59 59 59 59 59 60 60 60 60 60 60 69 64 79 70 70 71 78 81 80 79 74 74 75 83 76 81 82 84 87 88 83 86 85 90 92 99 101 99 99 98
58 58 58 58 58 58 58 59 59 59 59 59 59 60 66 72 73 81 71 74 82 81 78 77 75 76 72 77 80 77 80 83 85 85 86 87 80 82 86 94 100 101 99 96 96
58 58 58 58 58 58 58 58 58 58 58 59 60 60 67 67 82 84 83 82 82 80 79 79 76 80 75 76 76 81 81 81 84 84 85 81 81 82 86 92 94 95 96 97 98
57 57 57 57 57 57 57 57 57 57 58 60 61 68 72 72 84 86 85 83 82 79 74 80 79 74 76 71 79 78 72 77 80 82 81 83 74 74 85 90 90 92 95 95 96
57 57 57 57 57 57 57 57 57 57 59 61 61 72 69 83 88 84 86 82 85 84 79 80 80 74 72 77 73 69 71 65 76 79 80 78 68 79 86 85 86 89 92 94 95
57 56 56 57 57 57 57 56 57 60 61 62 66 70 69 77 78 83 83 76 79 81 81 80 76 70 72 65 62 66 59 65 70 80 79 76 70 80 85 84 84 87 90 92 93
57 56 56 56 56 56 56 55 62 61 65 73 75 67 75 71 78 80 83 80 75 74 73 72 71 65 68 64 54 60 63 66 65 75 79 74 73 79 83 83 81 84 88 91 92
56 56 56 56 56 55 59 73 68 65 73 69 69 68 72 78 81 77 80 76 75 71 63 69 63 59 64 67 67 65 63 62 69 78 75 72 74 77 82 81 80 83 87 89 90
56 56 56 56 56 55 62 72 68 71 60 73 72 71 74 76 66 73 78 68 67 60 66 63 58 66 67 66 63 62 59 60 66 72 72 69 69 76 80 81 81 81 84 87 89
55 55 55 56 56 60 74 71 78 76 61 67 70 69 71 73 67 68 73 69 64 60 61 57 62 67 65 62 59 60 57 57 58 66 69 67 63 68 78 81 83 83 84 87 87
55 55 55 55 55 79 72 76 79 75 55 59 63 68 71 72 64 74 76 69 64 58 61 60 66 62 61 59 61 54 63 62 59 57 51 66 52 64 71 74 78 81 83 83 85
55 55 54 52 71 75 73 79 78 70 42 60 64 77 72 66 67 68 76 69 58 59 60 56 59 60 58 59 63 57 64 61 60 57 56 57 54 61 71 70 74 78 82 84 85
55 55 54 62 73 76 79 76 71 52 39 56 63 62 63 67 66 69 68 73 70 61 62 61 66 62 61 63 63 65 60 60 59 56 46 54 55 57 64 69 75 81 84 85 87
54 54 56 74 72 80 78 70 51 45 60 55 56 62 61 60 60 62 60 59 56 47 49 56 57 58 63 55 62 60 53 43 41 42 42 56 52 56 68 74 77 79 83 86 88
53 52 60 76 80 77 72 60 40 54 55 61 59 59 56 58 58 59 58 55 60 54 50 42 40 53 58 56 53 53 53 44 33 36 42 55 46 56 71 77 81 81 82 84 86
52 69 72 76 76 75 63 50 53 54 57 54 56 53 55 59 58 58 56 55 57 58 44 42 42 58 60 61 60 53 48 55 44 46 39 45 51 63 71 74 77 78 81 82 84
60 70 73 75 75 69 58 49 55 59 58 57 47 52 48 53 53 54 54 58 56 61 61 51 41 54 58 61 62 56 57 38 46 35 33 45 49 52 63 67 75 77 78 79 82
62 63 69 76 73 62 49 56 57 61 60 53 51 49 51 49 51 50 51 58 58 58 60 56 49 48 56 53 50 50 45 52 44 43 38 38 44 64 66 71 72 77 77 79 81
62 58 72 75 57 58 54 55 52 57 60 56 56 52 49 50 49 50 49 54 60 59 49 56 48 41 49 60 61 58 50 49 38 34 44 45 46 64 63 78 76 75 76 81 82
58 59 72 69 47 52 59 58 58 56 57 54 50 53 54 48 41 49 53 60 60 54 48 47 47 37 45 53 51 46 51 52 50 43 37 33 38 57 71 72 73 72 74 78 81
59 54 65 63 60 53 53 52 52 60 57 56 52 52 51 49 52 46 49 56 54 49 51 49 44 41 37 45 37 35 46 53 49 40 42 43 44 40 52 68 73 73 74 77 80
65 56 54 52 54 54 51 52 51 51 57 57 51 50 47 41 47 46 51 52 54 50 45 42 36 44 48 52 51 51 53 54 51 51 45 49 49 49 51 56 67 73 74 76 79
55 52 56 52 56 50 48 48 49 53 52 50 49 52 48 43 45 44 47 46 41 47 42 46 37 44 43 51 53 50 54 55 55 55 55 54 53 63 66 69 70 71 73 73 77
50 49 48 47 54 52 48 46 46 48 51 55 52 49 50 53 57 59 57 57 53 41 38 41 43 40 37 49 48 43 53 55 56 59 58 52 60 67 66 67 69 70 72 74 76

GFSSW_sfc_temp_042.txt.gz
Temp
60 60 60 60 60 60 60 60 60 60 60 61 61 61 61 61 60 72 69 71 72 69 70 80 82 83 84 78 82 86 71 67 70 72 76 88 86 95 100 94 97 100 100 99 105
60 60 60 60 60 59 59 59 60 60 60 61 61 60 60 60 63 69 71 70 70 70 75 79 79 82 76 78 77 72 68 70 79 82 81 86 88 90 90 91 92 96 102 102 102
59 59 59 59 59 59 59 59 59 60 60 60 60 60 60 62 65 73 70 71 70 71 77 80 81 79 75 79 78 74 67 76 80 85 87 85 87 92 87 84 92 92 96 99 100
59 59 59 59 59 59 59 59 59 60 60 60 60 60 60 65 62 75 72 72 71 76 79 79 78 72 70 69 79 71 77 78 80 84 84 82 88 86 87 87 95 97 100 99 98
58 58 58 58 58 58 58 58 58 59 59 59 60 60 65 67 73 80 73 74 78 82 79 77 74 73 68 73 75 73 77 80 83 84 83 84 82 83 84 90 93 96 98 96 96
58 58 58 58 58 58 58 58 58 58 58 59 60 60 65 64 85 87 85 85 84 82 79 79 76 78 72 72 72 77 77 79 82 82 83 80 81 83 86 90 89 91 92 95 93
57 57 57 57 57 58 58 57 57 57 58 60 61 67 67 71 86 87 87 85 86 81 75 80 80 73 73 68 77 75 68 73 76 79 79 83 75 77 86 88 87 89 91 93 92
57 57 57 57 57 57 58 57 57 58 59 61 62 69 66 85 88 85 86 83 86 85 82 82 80 73 70 73 70 66 67 61 73 76 79 77 66 79 85 84 82 85 87 90 93
57 57 57 57 57 57 57 56 57 60 62 63 66 68 67 77 78 84 85 78 81 82 82 83 77 69 70 63 60 64 55 60 66 77 76 75 68 78 84 82 80 82 84 87 89
57 57 56 56 57 57 56 56 62 60 65 74 74 67 74 73 80 81 85 82 76 76 74 74 71 64 65 61 50 57 60 64 62 71 74 72 71 78 82 81 80 82 83 85 87
57 56 56 56 56 56 58 71 65 62 67 68 70 71 74 81 83 78 82 77 77 72 63 70 62 58 63 66 66 64 62 60 66 72 69 68 72 76 81 80 79 81 82 82 84
56 56 56 56 56 56 58 68 71 72 60 73 75 74 77 78 68 75 81 69 67 60 66 62 57 66 69 67 64 61 58 57 63 68 67 65 65 72 78 80 81 81 80 82 85
55 55 56 55 56 59 69 73 80 79 61 68 73 71 73 76 68 69 75 70 63 60 61 57 61 68 65 62 59 60 57 57 57 63 66 62 59 66 74 78 80 81 84 84 82
55 55 55 54 54 77 74 79 82 78 53 59 65 70 73 74 66 76 77 70 64 58 60 59 65 63 61 58 61 53 64 62 59 55 48 62 47 60 67 71 75 77 80 83 83
55 55 55 53 65 73 75 81 80 71 40 63 67 78 74 67 69 71 78 70 59 59 60 55 59 59 56 58 63 57 64 60 59 55 53 54 49 56 65 65 71 76 80 82 83
55 55 55 64 66 77 82 79 73 49 39 58 66 64 65 69 68 71 71 74 71 63 63 60 68 63 60 62 61 62 57 57 57 54 43 51 51 52 59 64 70 76 81 82 84
55 54 54 69 69 81 79 70 49 43 62 58 59 64 62 61 62 64 62 60 57 49 50 57 58 61 59 53 60 57 51 39 39 40 40 55 51 55 64 69 72 74 79 82 83
53 53 60 71 78 78 71 57 40 56 57 64 62 61 57 63 62 62 59 56 63 59 51 44 41 53 57 53 51 51 39 33 29 34 41 54 44 52 66 69 74 76 77 82 82
52 70 67 72 77 75 61 46 48 54 59 56 58 54 56 61 60 59 58 57 60 60 47 44 44 60 61 62 59 52 48 47 40 45 37 47 53 62 67 67 70 73 76 78 80
58 64 69 76 76 67 55 47 56 63 61 59 48 55 49 54 53 54 54 60 58 61 62 53 42 55 59 61 54 53 59 44 41 28 30 41 45 49 59 64 68 71 74 77 82
61 63 71 76 72 60 47 54 59 64 62 54 52 50 52 50 52 51 53 59 61 59 60 56 49 47 53 52 51 52 49 48 43 40 33 33 42 61 53 51 50 64 74 77 79
62 55 73 75 56 56 52 59 55 60 62 59 58 55 50 51 49 50 49 55 62 60 50 54 46 40 46 58 62 58 53 46 40 37 42 42 42 58 52 48 50 49 68 75 80
58 63 73 71 48 51 58 60 62 58 58 57 54 55 55 50 44 50 51 60 62 55 47 46 42 33 40 52 52 45 47 51 49 44 38 35 40 59 48 44 49 46 62 72 76
60 55 64 67 64 56 54 53 54 62 59 58 55 56 52 49 53 47 49 57 56 52 48 46 39 36 32 41 39 33 40 47 48 38 40 42 44 50 44 45 48 51 51 74 75
62 56 57 51 54 55 55 53 50 51 60 60 54 53 50 43 48 46 51 53 57 54 51 40 36 43 46 48 49 46 43 48 47 49 43 48 48 52 50 49 51 53 57 73 74
53 49 53 51 56 54 53 52 49 51 51 48 49 51 52 47 48 45 50 50 48 54 46 45 36 43 42 49 50 47 52 53 54 54 53 53 51 62 63 59 58 62 70 71 74
56 58 47 47 55 54 53 52 50 51 51 54 51 48 48 51 56 58 59 58 55 48 38 38 39 39 35 46 42 39 51 51 54 57 56 50 56 63 62 64 65 68 70 71 74

GFSSW_sfc_temp_045.txt.gz
Temp
60 60 60 60 60 59 59 59 60 60 60 60 61 61 61 60 60 61 57 66 68 70 69 74 75 76 76 70 73 72 57 56 60 63 68 79 77 86 90 84 88 92 89 92 94
60 60 60 60 59 59 59 59 59 60 60 60 60 60 60 60 55 57 70 70 70 70 70 69 69 73 66 67 67 62 55 59 71 73 72 77 79 82 84 81 83 87 94 93 94
59 59 59 59 59 59 59 59 59 59 60 60 60 60 60 60 55 64 71 71 71 70 70 71 71 69 62 67 67 64 58 67 70 75 77 77 78 84 81 75 80 81 85 90 89
58 59 59 58 58 58 58 59 59 59 59 59 59 60 60 56 50 69 72 71 72 72 71 70 67 58 55 58 66 60 69 69 71 75 75 72 78 76 79 78 85 85 86 85 84
58 58 58 58 58 58 58 58 58 58 58 58 59 60 57 55 60 76 73 73 73 71 67 65 63 59 55 60 65 63 67 72 75 75 75 77 74 75 76 83 87 89 87 83 85
58 58 58 58 58 58 58 57 57 57 58 58 59 60 54 51 78 79 74 75 73 72 69 69 64 67 59 59 57 63 66 68 71 73 75 74 76 78 79 84 85 85 81 83 83
57 57 57 57 57 57 57 57 57 57 58 59 60 62 58 57 78 77 76 71 77 78 71 73 72 65 62 57 64 64 57 63 66 69 69 74 68 71 80 82 82 83 82 82 81
57 57 57 57 57 57 57 57 56 57 59 61 62 59 53 76 75 77 76 76 78 78 76 76 74 63 58 62 61 55 56 46 57 66 69 67 57 72 77 78 78 81 84 84 80
57 57 57 57 57 57 57 56 57 58 60 63 56 54 56 73 75 79 77 75 76 76 75 81 68 60 60 51 46 50 42 47 54 65 65 63 60 71 76 76 74 78 81 82 83
57 56 56 56 57 56 56 56 58 58 64 68 68 56 64 68 75 78 79 79 72 71 69 66 59 52 50 46 35 44 46 53 53 60 64 61 62 70 75 75 74 75 77 80 81
57 56 56 56 56 55 53 57 55 52 56 58 62 64 70 76 79 75 79 74 71 65 53 60 49 44 52 56 57 57 54 52 57 63 58 57 58 63 69 69 72 74 76 77 80
56 56 56 56 56 55 50 52 64 62 52 67 69 70 76 73 66 72 79 63 61 51 58 52 45 57 62 61 58 55 51 50 57 62 59 56 55 62 65 66 69 70 74 76 74
55 55 55 55 55 52 56 65 72 68 50 61 71 69 69 71 65 66 71 65 58 53 53 47 53 63 60 56 54 53 50 50 51 58 59 55 51 56 63 66 70 72 70 71 72
55 55 55 55 52 62 62 71 71 67 41 56 63 68 71 69 61 75 75 66 58 52 54 51 59 58 55 54 56 47 57 56 53 49 40 53 38 50 57 60 64 68 69 67 70
55 55 55 54 49 57 68 70 67 60 30 61 63 73 70 62 66 68 75 66 55 55 54 49 53 53 52 53 56 48 57 53 51 46 45 46 39 47 54 55 59 63 69 71 69
54 55 55 57 53 61 71 69 62 40 32 55 65 62 60 64 65 69 67 69 66 57 57 55 63 58 53 57 56 54 50 50 48 43 33 43 42 44 49 55 60 65 68 72 75
54 54 52 60 56 69 70 60 40 34 61 54 56 60 57 56 60 63 59 54 47 41 42 51 52 58 57 47 51 49 38 30 25 27 30 47 43 46 54 60 62 62 65 70 72
53 52 56 63 65 66 61 47 32 51 52 60 57 57 53 58 58 59 55 49 59 52 41 34 34 51 55 48 44 43 39 27 22 27 29 41 37 45 58 63 60 63 65 67 69
52 57 58 62 66 65 52 38 40 51 57 54 54 50 51 56 54 53 51 52 55 52 38 36 39 56 58 58 55 44 35 45 30 35 29 36 44 52 53 50 51 52 55 53 52
48 54 59 68 66 56 43 42 50 60 59 56 43 51 44 48 48 47 48 56 54 56 54 45 35 51 55 55 54 46 48 30 33 24 24 34 37 38 43 43 48 49 51 51 54
48 51 61 68 62 49 37 45 55 63 60 53 48 46 48 45 46 45 48 53 56 54 53 45 39 41 48 45 42 46 36 36 34 32 28 24 31 48 42 44 45 48 53 52 53
50 46 63 64 45 46 42 53 55 59 62 57 56 52 47 46 44 44 44 50 58 54 44 42 37 33 39 50 54 51 44 36 30 29 32 31 32 48 45 48 48 49 52 52 55
45 52 64 60 38 40 51 54 57 56 56 55 52 53 50 44 38 46 47 56 57 50 42 40 33 27 34 42 43 38 43 42 39 36 31 28 32 55 48 47 50 48 51 52 55
48 45 52 53 53 46 46 48 48 59 57 55 53 53 48 44 46 43 46 53 57 53 50 44 37 32 27 34 37 35 40 44 41 29 34 37 40 47 45 47 49 51 51 53 57
50 46 47 40 42 45 47 49 48 47 54 52 47 48 44 35 41 41 46 48 52 55 47 41 33 37 39 41 43 43 43 45 40 41 35 41 44 48 45 48 51 53 54 55 58
43 41 44 41 47 46 47 47 47 49 48 45 43 46 44 38 40 39 43 43 41 49 42 41 33 36 34 42 44 42 44 44 46 49 44 45 44 54 52 53 52 55 59 61 61
49 50 46 41 44 43 42 45 47 48 50 52 48 44 41 44 50 51 51 50 49 44 37 33 34 34 28 43 41 33 43 44 45 45 43 37 43 54 53 54 55 56 58 61 68

GFSSW_sfc_temp_048.txt.gz
Temp
60 60 60 60 60 59 59 59 59 60 60 60 60 60 60 60 60 56 52 63 63 70 69 68 70 71 70 66 69 67 53 53 57 59 64 73 71 78 83 79 83 87 87 87 87
59 59 59 59 59 59 59 59 59 59 60 60 60 60 60 60 53 51 64 71 70 70 66 64 63 67 60 64 65 58 47 55 65 68 67 72 73 76 77 75 77 80 88 90 88
59 59 59 59 59 58 58 59 59 59 59 59 59 59 60 59 51 61 72 71 70 70 66 66 65 62 56 60 61 59 55 63 66 70 71 70 71 77 73 70 75 75 81 86 84
58 59 59 58 58 58 58 58 59 59 59 59 59 59 60 55 47 67 73 72 71 69 67 64 60 51 50 53 61 55 64 65 67 71 70 68 73 72 75 74 80 82 82 83 79
58 58 58 58 57 58 58 58 58 58 58 58 59 59 54 51 56 74 74 73 70 68 65 61 54 52 46 54 59 55 62 65 68 69 70 72 69 71 73 80 83 84 84 82 80
58 58 58 58 57 57 57 57 57 57 57 58 59 60 52 48 71 76 73 69 69 65 62 61 58 60 54 52 50 58 59 60 63 64 65 66 68 72 75 81 80 82 82 80 83
57 57 57 57 57 57 57 57 56 56 57 59 60 60 52 54 71 71 70 66 70 70 67 69 66 62 56 54 57 58 52 57 60 61 63 68 63 65 74 77 77 78 82 82 82
57 57 57 57 57 57 57 57 56 57 58 60 62 56 48 69 67 69 71 72 73 73 71 72 68 60 55 56 57 51 49 41 52 60 65 64 55 68 74 73 74 75 79 82 78
57 56 56 57 57 57 56 56 56 58 60 60 53 50 50 71 70 75 74 71 73 72 71 78 66 58 55 47 42 43 37 41 48 57 59 58 54 65 69 70 71 74 72 78 80
57 56 56 56 56 56 55 55 57 58 60 65 64 50 59 64 71 75 74 74 68 67 65 61 55 49 45 42 34 40 41 46 46 55 55 53 54 60 64 65 64 67 71 74 78
57 56 56 56 56 55 52 51 54 53 54 54 58 58 64 71 75 71 75 70 67 60 49 54 46 41 47 49 52 50 48 46 51 58 54 52 53 58 60 61 60 62 66 68 73
56 56 56 55 56 55 49 51 58 60 49 62 64 64 69 70 63 69 74 61 57 48 53 47 41 51 58 56 53 50 46 44 51 57 55 52 53 59 59 59 60 62 63 65 69
55 55 55 55 54 51 51 59 65 61 47 58 65 64 65 68 62 63 68 62 55 49 49 42 50 58 56 51 50 47 44 45 45 52 53 50 48 53 60 60 62 63 63 64 64
55 55 55 55 53 51 56 67 64 61 38 51 60 65 68 66 58 71 71 64 55 50 50 48 55 55 51 50 49 41 51 50 48 43 34 47 33 47 53 56 58 61 60 61 63
54 55 55 53 46 50 62 63 62 59 29 59 61 72 67 60 62 65 72 62 52 53 51 47 50 49 47 49 53 46 51 48 47 42 37 42 34 44 49 50 55 59 63 62 64
54 54 54 51 47 54 60 60 58 39 31 54 62 60 57 59 61 65 64 64 62 53 51 51 57 53 51 54 53 53 47 44 40 37 28 39 37 40 46 50 56 58 56 60 60
54 53 52 55 53 58 57 53 37 31 58 51 52 57 55 54 56 59 58 51 44 38 38 47 48 53 55 46 48 45 35 25 24 24 26 42 36 41 50 50 47 50 52 55 56
52 52 51 57 54 55 53 44 32 48 49 58 55 55 51 53 53 54 51 45 51 48 38 32 32 47 53 47 42 40 36 23 19 24 28 40 31 38 47 51 53 55 53 56 54
51 48 51 57 59 55 46 33 36 46 54 52 53 48 48 52 51 49 47 47 49 47 36 33 36 52 54 53 48 40 33 40 26 31 29 31 39 47 50 49 51 52 54 53 55
43 46 51 61 60 51 40 39 46 56 57 54 41 48 42 46 46 44 45 52 50 51 47 40 32 48 51 53 51 45 46 29 28 22 22 31 34 35 42 44 47 49 50 52 54
45 46 57 60 55 45 34 40 50 59 58 52 45 43 45 42 44 42 45 50 53 49 47 38 35 38 45 41 40 38 35 35 33 31 26 24 28 42 42 45 43 46 50 51 51
41 42 58 57 42 38 37 47 52 54 57 54 51 48 44 45 43 42 41 47 54 50 40 39 34 29 37 48 50 44 38 35 27 28 31 30 29 50 45 46 46 47 51 52 53
39 41 56 55 32 35 44 50 52 52 52 48 47 49 47 40 35 44 45 53 54 47 41 39 31 28 31 39 43 38 41 40 37 33 28 26 30 49 46 45 47 46 49 52 53
40 37 43 43 43 38 38 42 46 55 52 50 47 47 43 40 41 38 42 50 52 51 51 44 36 31 27 35 40 33 38 40 36 26 30 33 36 43 47 47 47 48 50 53 55
40 36 38 33 37 38 38 43 43 44 49 47 43 44 39 32 36 37 41 44 49 51 42 40 33 35 38 40 40 38 37 39 37 38 31 37 39 44 44 47 48 51 58 55 56
36 34 37 34 39 39 40 38 42 44 44 42 39 43 40 33 37 35 38 37 37 43 42 40 33 37 34 40 41 37 41 42 43 43 41 40 38 51 51 51 52 54 58 58 59
41 41 42 36 35 34 34 38 41 42 45 48 43 40 38 42 46 46 46 45 43 40 37 35 34 31 29 39 38 32 41 42 42 46 40 33 41 47 46 47 49 49 52 54 56

GFSSW_sfc_temp_051.txt.gz
Temp
59 59 59 59 59 59 59 59 59 59 59 60 60 60 60 60 59 53 50 62 61 68 69 66 66 67 65 61 67 67 53 50 55 59 61 70 67 73 77 74 77 79 79 82 80
59 59 59 59 59 59 59 59 59 59 59 59 59 59 59 60 55 50 62 69 70 70 63 61 59 63 57 58 60 56 48 55 64 66 64 69 67 71 71 71 72 76 82 85 83
59 59 59 59 59 58 58 59 59 59 59 59 59 59 59 60 50 60 72 69 70 69 63 62 62 59 52 56 57 54 53 61 65 67 69 67 68 73 70 67 70 70 75 81 79
59 59 58 58 58 58 58 58 59 59 59 58 58 59 59 56 45 65 73 71 71 66 64 61 57 49 47 49 57 52 60 62 63 68 67 66 71 69 70 70 77 77 77 80 80
58 58 58 58 58 57 58 58 58 58 58 58 58 59 53 48 54 70 74 72 68 65 62 58 53 50 44 49 54 52 57 62 64 64 64 68 66 67 69 75 78 79 80 77 77
57 57 57 57 57 57 57 57 57 57 57 57 58 60 50 45 69 72 70 67 67 61 58 57 56 57 51 49 47 53 54 57 59 61 62 63 66 67 72 76 77 76 76 77 77
57 57 57 57 57 57 57 57 56 56 57 58 59 59 49 53 67 66 68 63 66 66 63 65 64 58 55 51 53 55 49 53 57 61 62 66 59 62 72 74 73 75 77 76 77
58 57 57 57 57 57 57 57 56 56 58 59 61 54 47 66 64 67 63 66 69 67 68 69 65 57 52 54 54 47 46 39 52 57 62 60 52 64 69 68 69 72 74 76 75
57 57 57 57 57 57 57 56 56 57 59 59 51 48 50 69 67 72 70 69 68 68 68 76 63 54 53 45 40 42 36 38 47 54 55 55 49 60 64 64 64 65 66 70 72
57 56 56 56 56 56 55 55 55 57 59 61 61 48 57 61 68 72 71 72 65 64 62 60 51 47 43 40 32 38 37 42 43 52 52 50 52 58 61 61 61 62 64 66 68
57 56 55 55 55 55 52 51 52 50 52 53 55 55 60 67 71 69 72 67 63 58 47 50 43 39 44 46 48 46 43 41 47 54 48 48 50 55 58 58 58 59 62 62 65
56 55 55 55 55 54 48 53 56 57 48 59 60 60 66 65 59 66 71 58 54 46 49 45 39 50 54 52 48 45 41 40 47 53 51 48 49 55 55 56 57 59 59 61 63
54 54 55 55 54 50 50 57 63 57 45 55 61 60 61 63 57 60 66 59 52 47 46 41 48 55 52 48 46 43 40 41 42 48 49 46 46 49 53 55 59 59 60 60 60
54 54 54 54 53 49 54 61 59 59 40 51 55 63 64 62 56 68 68 61 52 48 47 45 52 52 48 46 47 39 48 47 45 40 32 46 32 46 51 51 54 56 56 57 59
54 54 54 54 45 51 60 56 55 56 27 56 59 71 66 58 59 62 68 59 51 50 48 46 47 47 43 47 50 44 49 45 44 38 34 37 31 43 47 48 52 56 55 53 54
54 54 54 49 46 52 55 55 56 38 30 51 61 59 57 57 58 62 60 62 59 50 49 49 54 51 49 52 51 51 44 41 37 34 24 36 34 37 40 45 50 50 53 55 54
53 53 51 54 53 53 53 52 37 30 53 48 50 56 53 52 53 56 54 49 44 37 37 45 45 50 52 44 47 44 33 24 23 23 25 38 33 37 47 51 49 49 51 53 54
52 52 51 54 51 52 51 43 31 45 45 54 53 54 47 52 52 53 50 42 48 45 36 31 32 45 50 45 40 37 34 22 16 21 27 38 27 35 47 50 51 52 52 53 53
51 48 49 54 56 52 45 33 35 43 52 49 51 45 46 48 48 48 44 43 47 45 34 31 34 49 51 51 46 37 31 37 24 28 23 29 36 44 48 49 50 50 52 51 52
43 46 50 57 55 49 40 38 42 53 54 51 39 44 38 42 42 41 43 48 47 48 45 39 30 44 49 49 49 42 44 27 26 20 20 28 31 34 42 45 48 49 49 50 52
44 46 55 55 54 44 33 38 47 55 54 49 43 41 41 39 41 39 42 48 50 47 45 37 34 37 42 39 36 36 32 32 32 29 22 24 29 41 42 45 45 48 49 47 51
40 41 55 55 42 35 36 43 51 52 54 50 48 46 42 42 39 39 39 45 51 47 38 38 33 28 35 46 47 41 37 36 27 25 28 27 30 50 50 47 45 47 50 50 52
38 39 52 52 29 33 40 46 50 49 48 46 45 45 45 39 34 41 43 50 50 45 40 39 30 28 31 36 41 38 41 41 38 33 28 23 30 49 46 48 51 47 49 51 52
39 36 41 41 39 35 36 39 42 52 48 47 45 44 40 37 38 36 39 47 48 47 52 44 32 30 28 32 36 33 38 41 36 29 29 30 34 42 45 45 47 47 48 50 53
37 34 36 31 34 34 35 39 40 40 47 46 41 41 37 31 34 34 39 40 45 48 41 38 32 34 35 38 39 38 38 38 35 35 30 35 35 42 45 43 45 48 51 52 53
35 34 35 33 36 35 36 35 38 41 41 40 37 40 39 33 35 34 37 35 35 39 36 39 32 34 33 38 38 36 39 40 39 39 38 39 39 46 44 45 45 46 48 50 52
38 38 40 34 33 31 32 35 37 39 42 45 40 36 36 40 42 43 43 42 40 36 34 31 32 32 28 37 36 30 37 39 40 44 40 32 41 43 40 42 42 43 46 48 50

GFSSW_sfc_temp_054.txt.gz
Temp
60 60 60 60 59 59 59 59 59 59 59 60 60 60 60 60 59 51 48 60 60 68 68 64 64 63 62 59 63 66 52 45 55 58 59 68 65 71 73 70 72 75 73 78 76
59 59 59 59 59 59 59 58 59 59 59 59 59 59 59 60 51 49 61 68 68 70 61 58 57 60 54 56 60 57 47 54 63 64 62 67 66 68 68 68 67 71 77 80 78
59 59 59 59 59 59 58 58 58 59 59 59 59 59 59 59 49 59 71 69 70 68 60 60 59 57 49 52 53 51 49 59 63 65 67 65 66 70 67 66 67 67 71 76 77
58 58 59 58 58 58 58 58 58 58 58 58 58 59 59 53 44 62 73 71 71 65 62 59 55 48 45 47 53 49 57 60 61 66 65 64 68 66 68 69 72 73 74 74 75
58 58 58 58 58 58 58 58 57 58 57 58 58 59 52 46 54 68 73 71 66 63 59 56 51 48 43 47 51 48 52 58 61 61 62 66 64 65 66 73 75 74 75 73 73
58 58 58 58 58 57 57 57 57 56 56 57 58 59 47 44 65 69 67 65 64 59 55 55 53 55 50 47 46 50 51 54 58 60 61 62 64 66 69 72 74 73 73 74 74
58 57 57 57 57 58 58 57 56 56 56 58 59 58 47 52 64 64 65 61 63 63 59 61 60 56 53 47 51 51 46 51 54 54 56 61 56 59 68 71 69 70 71 71 72
57 57 57 57 57 57 57 57 56 56 57 58 60 52 45 63 62 64 61 63 65 63 63 65 63 56 50 51 51 44 43 38 47 53 58 57 48 61 65 65 66 67 67 68 69
57 56 56 56 56 57 56 55 56 57 58 59 49 46 48 67 64 69 66 65 65 65 64 73 60 51 51 43 39 40 34 35 44 50 51 50 47 59 63 63 62 64 65 67 66
56 56 55 56 56 56 55 55 56 58 59 60 59 46 55 58 64 69 68 68 63 61 60 57 49 44 41 40 31 35 35 39 40 48 49 46 48 54 59 60 59 60 63 64 66
56 55 55 55 56 55 51 50 50 50 49 51 53 53 58 65 68 65 69 65 61 56 45 48 42 37 42 45 45 42 40 39 44 50 47 45 47 52 55 56 56 58 58 61 63
55 55 54 54 55 54 47 52 53 52 46 56 57 57 62 62 56 63 68 56 53 45 47 43 38 47 51 48 45 43 39 38 44 50 47 45 46 52 53 54 56 57 58 58 60
54 54 54 54 54 50 49 56 57 54 43 53 59 57 58 61 55 57 63 56 50 45 44 39 46 53 50 44 44 40 38 38 39 45 46 44 42 44 50 53 56 57 58 58 57
54 54 54 54 51 48 53 58 54 54 38 49 55 61 62 60 54 65 65 60 50 46 45 43 49 49 44 44 45 36 46 45 43 38 29 44 27 40 45 47 51 54 54 54 56
54 54 54 53 44 51 56 53 52 54 26 54 56 67 63 56 57 60 67 58 50 48 46 44 45 44 42 45 48 43 47 43 42 35 31 35 28 34 45 43 45 50 53 53 54
53 54 54 48 45 51 53 51 54 38 29 48 56 54 53 56 56 61 60 62 58 49 47 47 51 48 49 49 48 48 42 38 34 31 24 32 31 29 38 42 46 52 52 54 54
53 53 50 52 51 51 50 51 36 29 50 45 47 51 47 48 53 54 53 48 44 38 36 44 44 47 50 42 45 41 32 23 23 23 24 35 31 36 44 50 49 49 51 53 52
52 52 51 53 50 50 50 43 30 42 43 51 50 49 44 48 48 49 46 41 47 45 37 33 34 43 49 44 39 35 33 21 16 20 23 36 27 34 46 50 50 51 50 51 52
51 47 49 52 54 50 45 32 34 40 49 47 48 41 41 46 45 44 41 42 46 44 36 34 35 48 49 49 46 35 29 34 22 24 22 28 33 42 49 47 48 49 50 49 51
43 45 50 54 52 49 40 37 40 50 50 49 37 42 35 39 39 39 39 46 46 48 46 40 32 44 47 47 45 40 42 26 24 18 18 26 28 32 40 44 46 47 47 49 51
44 46 54 52 51 43 32 36 44 53 51 46 42 39 40 38 38 37 41 45 48 44 44 38 33 36 41 38 36 35 31 31 28 26 23 23 29 39 41 44 43 45 49 50 53
40 42 53 53 42 33 34 40 49 49 51 47 46 43 40 40 37 38 38 43 48 46 39 38 31 28 34 42 44 40 35 32 23 21 28 20 29 47 46 44 45 45 48 51 52
37 38 51 51 30 32 38 43 46 47 46 44 42 43 42 36 33 39 41 47 47 43 38 38 29 24 29 35 38 35 38 37 36 33 29 25 29 46 46 47 51 47 45 48 51
38 36 39 39 37 34 34 37 40 49 46 46 43 42 38 34 37 36 37 45 47 45 52 43 30 29 24 31 32 30 36 39 37 29 29 30 33 40 43 44 44 43 44 47 49
36 31 34 31 32 31 31 36 37 38 43 43 39 39 36 30 32 33 37 39 44 46 39 37 31 32 35 36 36 35 35 37 35 37 30 35 34 40 43 43 42 43 45 47 48
34 32 33 30 34 32 34 31 35 38 37 37 34 38 36 30 34 35 34 33 33 38 34 37 29 32 30 37 36 33 37 38 38 38 38 38 35 44 46 44 44 44 45 45 47
36 35 38 33 31 30 30 33 35 36 39 42 38 35 33 38 41 41 41 40 39 35 32 33 29 31 27 34 33 29 36 38 39 43 39 32 39 45 43 44 44 44 46 45 47

GFSSW_sfc_temp_057.txt.gz
Temp
59 60 60 60 60 59 59 59 59 59 59 60 60 60 60 60 60 58 57 68 65 67 69 72 73 73 73 72 74 74 63 61 63 62 67 73 71 77 80 77 80 83 83 86 88
59 59 59 59 59 59 59 58 59 59 59 59 59 59 59 60 58 56 68 67 68 70 70 69 67 70 69 69 71 69 63 63 69 70 69 72 70 74 73 74 76 79 85 87 90
59 59 59 59 59 59 58 58 58 59 59 59 59 59 59 60 57 69 70 69 69 71 70 70 69 68 65 68 67 65 62 67 70 70 71 70 72 74 71 69 75 74 79 85 86
59 59 59 59 59 58 58 58 59 58 58 58 58 59 59 58 56 71 71 70 71 72 70 68 67 64 62 62 65 61 65 66 70 70 69 67 71 69 71 72 78 80 82 82 84
58 58 59 58 58 58 58 58 58 58 57 57 58 59 58 57 63 74 72 72 71 70 68 67 65 64 60 62 63 62 63 65 68 68 68 68 68 70 70 75 79 82 82 81 84
58 58 58 58 57 57 57 58 57 57 56 57 58 59 56 56 74 73 72 70 71 69 68 68 68 67 63 61 61 63 63 64 67 68 69 65 67 69 72 76 76 78 79 82 83
58 57 57 57 57 57 57 57 57 56 57 58 59 60 54 63 73 72 72 72 71 71 68 70 71 67 65 60 63 61 58 62 64 65 64 67 59 62 69 72 72 74 77 79 80
57 56 57 57 57 57 57 56 56 56 57 58 59 58 57 70 72 71 72 72 72 72 71 73 73 68 65 65 60 57 56 54 61 62 64 64 56 64 67 67 68 72 74 76 79
57 56 56 56 56 56 56 56 57 57 58 59 57 56 59 72 70 76 75 72 73 72 72 74 70 63 63 58 54 54 51 51 55 61 61 60 55 64 66 64 63 66 71 74 76
56 56 55 55 56 56 55 56 59 59 60 61 62 54 65 63 70 73 76 74 71 69 67 65 63 60 58 57 47 47 49 50 50 58 60 58 58 62 64 63 63 64 67 71 73
56 55 55 55 55 55 55 60 60 58 58 59 59 58 63 70 72 71 75 72 70 66 58 59 56 52 55 55 55 53 50 49 54 58 56 56 56 60 64 63 64 64 64 66 70
55 55 55 55 55 55 54 61 60 61 54 61 60 61 65 68 61 68 74 65 62 56 57 56 51 57 58 56 53 52 50 49 53 57 55 55 54 59 62 63 64 65 65 65 66
54 54 55 55 54 56 59 62 64 62 54 58 62 61 64 66 61 63 70 65 60 55 54 51 55 58 56 54 52 52 49 48 48 52 56 52 53 55 63 62 65 66 67 67 66
54 54 55 54 56 57 62 63 63 63 51 55 60 65 65 65 60 69 71 67 60 55 54 54 58 56 54 52 54 47 55 51 49 48 43 52 42 51 56 59 61 64 65 66 68
54 54 54 54 56 62 62 62 64 63 37 58 61 74 68 63 64 65 71 65 57 56 56 53 54 53 52 53 56 51 54 51 50 47 44 48 43 50 54 55 58 62 64 66 66
53 54 54 54 54 62 61 60 64 48 36 52 61 59 59 61 61 65 64 67 63 56 55 55 59 58 57 56 56 54 52 49 46 46 39 43 43 47 52 55 58 63 65 65 67
53 53 54 57 61 62 60 62 48 41 54 49 52 56 55 53 56 58 55 54 51 45 46 51 52 56 57 52 54 52 47 40 38 38 38 45 42 47 55 58 61 62 65 66 66
52 52 54 59 61 59 62 54 39 45 47 56 55 55 49 53 53 53 52 49 53 51 47 43 40 51 55 54 50 49 47 39 27 33 39 45 38 50 57 60 62 63 64 65 65
51 58 60 62 61 60 58 45 44 46 52 50 53 47 47 50 51 50 49 48 51 52 44 41 41 52 54 56 55 46 42 47 37 39 34 42 47 54 59 59 60 61 62 62 63
52 56 61 61 60 59 53 43 47 54 54 53 44 48 43 46 46 47 47 51 50 53 54 47 38 49 51 54 53 51 52 37 39 28 28 39 41 44 52 54 59 59 60 60 63
54 56 62 59 60 56 46 46 49 56 55 50 47 46 47 45 47 45 46 50 53 51 53 49 43 44 47 46 47 45 43 41 41 39 32 32 41 53 53 56 55 58 59 60 61
51 52 60 60 53 44 46 47 48 53 56 53 51 49 46 46 44 45 44 49 53 54 46 47 43 38 42 52 50 49 46 45 35 32 36 34 37 58 57 56 57 59 61 62 61
47 48 58 58 44 44 46 47 49 50 50 50 48 49 48 45 41 45 46 50 52 50 46 46 40 34 38 43 46 43 45 46 45 37 35 30 38 56 58 56 58 57 59 60 60
49 47 50 48 46 43 40 43 44 52 50 49 48 49 45 43 46 42 43 49 50 50 51 48 42 38 33 40 43 37 44 46 42 31 38 39 42 49 52 52 55 56 57 58 58
46 41 40 42 43 41 40 40 41 42 47 49 45 43 41 38 40 40 44 45 49 50 48 46 36 41 42 43 44 42 42 43 41 42 34 41 43 49 53 54 55 55 56 56 56
46 43 43 40 39 39 40 40 39 41 42 42 41 41 42 38 41 38 42 42 40 46 45 43 34 37 35 42 43 40 44 45 44 44 43 43 42 54 56 56 54 54 53 54 54
44 44 43 40 38 39 41 40 39 40 44 45 43 41 40 44 47 48 47 46 46 42 41 38 37 35 32 40 40 37 45 46 47 49 47 41 50 55 52 52 51 51 52 52 54

GFSSW_sfc_temp_060.txt.gz
Temp
60 60 60 59 59 59 60 59 59 59 60 60 60 60 60 60 61 72 69 74 74 69 69 81 81 82 83 83 85 85 72 69 72 74 76 85 77 83 88 83 86 89 89 93 96
60 60 60 59 59 59 59 59 59 59 59 59 60 59 59 60 68 71 74 69 68 70 78 77 77 79 79 79 81 77 72 73 82 82 79 83 81 79 79 80 82 85 92 94 96
59 59 59 59 59 59 59 59 59 59 59 59 59 59 59 63 68 76 70 69 69 72 80 79 79 78 75 80 78 77 71 80 82 83 82 80 79 81 78 75 81 81 85 90 92
59 59 59 59 58 58 58 59 59 59 59 58 58 59 59 70 63 79 71 70 70 80 79 77 76 73 72 70 79 70 77 78 80 82 78 77 81 78 78 79 83 85 86 89 89
58 59 59 58 58 58 58 58 59 58 58 57 58 59 67 69 73 81 72 73 80 79 77 76 73 73 69 73 72 70 76 75 78 79 78 79 76 77 75 80 82 84 86 87 88
58 58 58 58 58 58 57 57 58 58 57 57 58 59 67 65 81 82 82 80 81 80 78 78 75 76 72 71 70 73 74 74 76 77 78 74 76 77 78 81 80 82 83 86 87
58 57 57 57 58 57 57 57 57 57 57 58 59 67 65 72 83 82 81 81 82 80 76 79 79 74 73 68 73 71 65 71 73 75 74 76 69 71 79 78 76 79 82 85 86
57 57 57 57 57 57 57 57 57 57 57 58 59 68 67 81 85 81 83 81 83 83 79 81 81 76 72 73 69 66 66 63 73 71 74 70 65 71 74 74 73 74 78 81 84
57 56 56 56 56 56 56 56 57 58 58 59 64 65 68 76 77 83 84 78 80 81 80 79 78 72 71 65 63 64 60 61 64 70 69 69 66 72 74 72 70 71 76 78 81
56 56 56 56 56 56 55 57 58 60 64 69 70 62 73 71 77 79 83 81 76 76 73 72 72 66 67 64 56 59 59 60 61 67 67 66 66 71 74 73 71 71 74 75 78
56 56 56 56 56 55 61 70 67 65 67 67 67 66 70 77 80 78 81 78 77 72 64 69 63 60 64 65 63 61 59 58 63 67 63 64 66 69 73 73 72 73 73 74 75
55 55 56 56 56 55 66 71 67 68 62 71 69 69 73 75 68 74 81 70 68 62 65 63 58 66 65 64 61 60 58 58 62 65 62 62 62 67 71 72 73 72 74 74 74
55 55 56 56 55 61 72 69 76 72 64 67 70 69 72 74 68 70 76 72 66 62 62 59 62 66 62 61 58 60 57 57 56 61 64 61 60 64 69 71 71 73 74 74 72
54 55 55 54 59 75 72 74 77 73 60 61 66 70 73 73 65 77 78 73 66 61 62 62 66 61 61 58 61 55 62 58 56 55 52 60 51 61 66 66 68 70 70 72 73
54 55 54 52 72 74 71 77 77 70 45 63 66 80 75 69 69 70 78 72 63 62 61 58 60 59 58 59 62 57 61 58 57 55 55 56 51 61 65 62 66 69 71 74 75
54 54 54 66 74 74 77 75 72 55 42 58 66 64 65 68 67 71 70 74 71 64 64 61 68 63 63 64 63 63 59 59 59 56 47 56 53 59 61 63 66 69 71 73 74
53 53 59 72 70 77 76 72 55 48 60 56 58 62 62 61 63 64 63 62 58 52 53 59 58 64 64 59 61 60 55 47 46 46 48 54 50 59 63 65 67 67 70 73 73
52 52 59 74 76 74 72 62 45 54 54 61 60 61 57 61 62 60 59 57 63 59 54 47 45 58 63 59 56 57 54 45 34 42 49 55 47 56 65 67 68 69 71 72 72
50 71 73 76 74 73 66 52 53 54 57 55 59 55 56 58 57 57 57 56 60 60 50 48 48 60 60 61 59 53 49 57 45 48 44 51 56 63 66 65 66 68 68 70 70
66 70 73 73 73 69 61 50 55 59 59 58 50 55 50 55 53 54 54 58 56 60 61 54 44 54 58 59 59 56 60 45 48 34 37 49 51 55 59 61 64 65 66 68 70
67 66 69 72 71 66 54 56 56 62 61 55 53 53 54 53 55 53 52 57 59 59 61 58 50 50 54 52 50 49 51 50 49 48 39 40 50 61 59 62 61 64 67 69 70
66 63 70 72 62 64 57 56 50 58 62 59 57 56 53 54 52 53 50 54 60 60 51 55 51 44 48 58 59 57 53 53 41 39 43 41 44 65 63 65 63 65 67 69 70
62 65 72 68 54 57 59 56 56 55 56 56 54 56 56 52 46 51 52 57 58 57 51 53 46 40 44 51 54 50 54 54 52 47 41 38 47 65 65 64 67 65 67 68 68
63 59 65 64 61 52 51 52 50 57 56 55 55 56 53 51 54 49 50 54 55 56 52 51 47 43 38 46 49 43 50 52 47 37 43 47 51 58 61 62 65 66 67 67 67
62 56 52 56 58 52 51 51 49 48 54 56 52 50 49 45 49 49 52 53 55 55 53 51 41 47 49 51 51 49 49 49 45 45 41 49 51 57 61 62 64 66 66 66 66
57 56 60 54 51 50 47 51 47 48 48 50 49 51 50 46 48 46 50 50 47 53 50 51 39 45 41 49 49 46 51 52 52 53 53 53 51 63 65 66 62 59 60 62 62
61 58 55 50 52 50 52 49 47 48 51 53 51 48 47 50 54 55 56 54 52 46 44 42 43 38 38 48 46 42 52 54 55 57 55 49 58 63 61 60 56 58 60 59 62

GFSSW_sfc_temp_063.txt.gz
Temp
61 61 61 60 60 60 60 60 60 60 60 60 60 61 60 60 60 74 74 78 79 72 71 86 87 88 89 86 90 92 75 72 76 77 81 90 85 88 89 88 91 93 92 96 99
60 60 60 60 60 59 59 59 59 60 60 60 60 60 60 60 69 77 75 72 71 72 81 83 82 86 83 83 86 81 74 74 84 86 85 88 88 86 82 83 86 89 95 98 97
59 60 60 60 59 59 59 59 59 59 60 60 59 59 59 64 72 80 71 71 70 73 86 86 86 84 79 85 83 82 73 82 85 88 90 88 86 90 84 77 83 85 91 92 93
59 59 59 59 59 59 59 59 59 59 59 59 59 59 59 69 65 83 72 71 71 80 85 83 82 78 76 76 84 76 82 83 85 88 88 85 88 85 85 84 87 89 92 91 89
58 59 59 58 58 59 58 59 59 59 59 58 58 59 65 72 77 82 72 73 82 85 83 82 79 79 74 79 81 77 80 83 86 85 86 87 82 82 84 89 90 88 90 89 90
58 58 58 58 58 58 58 58 58 58 58 58 59 59 67 68 89 89 86 85 86 85 85 84 81 82 77 78 76 81 80 80 84 81 83 81 80 82 84 89 88 86 85 88 89
58 58 58 58 57 58 58 57 57 58 58 59 59 68 71 75 90 91 89 87 88 85 81 84 85 78 80 74 81 78 72 76 78 79 78 82 74 76 85 88 85 84 85 87 89
58 57 57 57 57 57 58 57 57 58 58 59 59 71 70 88 92 87 89 86 88 88 85 86 85 80 78 81 74 70 72 65 77 79 79 78 66 79 86 85 81 81 83 84 86
57 56 56 57 57 58 57 56 58 59 59 60 65 71 72 77 80 88 89 82 85 86 85 85 82 76 78 69 67 70 62 67 71 78 76 75 68 79 81 79 77 80 80 83 84
57 56 56 57 57 57 56 57 59 59 63 72 76 68 77 76 84 84 88 85 80 80 77 76 75 70 71 68 58 65 65 67 67 73 73 71 70 78 79 78 77 78 80 80 81
56 56 56 56 57 56 60 72 69 68 72 72 73 73 75 82 84 81 86 81 81 76 67 74 67 63 68 71 70 68 65 65 70 75 68 68 69 74 79 79 77 78 79 79 80
56 56 56 56 56 56 64 76 72 75 66 79 76 76 80 81 73 79 86 74 72 65 72 68 62 70 74 70 67 65 63 63 69 73 68 66 66 73 76 77 78 78 79 79 80
55 55 56 56 56 61 79 75 83 81 67 73 77 75 77 79 73 75 80 76 70 67 68 63 68 72 67 65 63 63 62 63 63 68 68 65 62 67 74 77 79 80 81 81 80
54 55 55 55 56 84 77 82 85 81 61 66 70 75 77 78 70 82 83 76 71 65 68 67 72 65 65 63 66 58 69 66 61 59 54 66 52 65 70 71 74 75 76 78 79
54 55 55 53 74 79 78 85 84 76 47 68 72 85 80 73 74 75 83 77 66 67 67 63 65 63 60 64 67 61 66 63 62 59 58 59 56 62 72 67 70 73 76 77 78
54 54 55 70 78 81 85 83 77 57 46 63 71 69 70 72 73 76 74 78 77 68 69 67 74 69 66 66 68 68 63 62 62 59 49 58 58 60 66 68 71 74 76 77 78
54 53 57 76 76 86 84 76 57 50 66 62 64 69 68 67 69 70 68 66 61 55 56 64 65 71 70 60 64 63 57 48 47 48 48 62 58 62 68 72 72 72 74 76 78
53 51 63 80 84 83 77 65 48 61 62 68 66 67 62 68 68 68 65 61 67 64 59 53 50 61 67 63 58 56 53 45 35 42 47 59 51 61 72 74 73 74 75 76 77
50 73 77 82 82 80 69 56 57 61 63 61 64 60 62 66 62 63 62 61 65 64 49 51 50 61 65 68 65 57 50 59 47 53 49 55 60 66 70 69 70 72 73 73 76
67 76 79 81 81 74 64 54 63 65 65 64 55 61 56 61 61 61 60 63 61 65 67 58 45 59 62 64 66 60 61 45 49 37 37 49 52 53 62 65 69 69 70 72 74
67 71 76 83 78 69 58 63 65 69 66 59 58 57 59 58 60 58 58 61 62 63 63 60 53 52 56 53 54 54 53 53 53 50 38 39 48 61 62 66 67 68 71 72 74
70 65 79 81 65 69 63 63 54 64 67 63 63 60 57 58 56 56 54 55 60 64 56 60 52 46 52 63 64 61 53 53 38 41 48 45 48 66 66 69 68 68 72 75 75
66 70 79 76 58 62 66 64 65 62 62 61 59 62 62 56 50 56 55 62 63 60 52 53 43 37 45 55 61 55 56 58 52 46 44 40 46 66 67 68 70 70 73 74 75
67 64 73 76 69 59 59 59 57 64 61 61 59 62 58 55 59 50 55 58 61 60 53 55 50 45 38 43 43 43 51 55 53 42 47 49 52 60 63 64 69 71 72 74 74
71 64 61 59 62 59 60 59 56 55 61 62 57 58 55 49 53 52 56 58 57 59 57 54 44 48 51 54 54 51 52 54 52 54 46 52 54 59 63 65 68 71 71 71 71
61 60 66 61 61 58 54 58 53 56 55 54 54 57 56 51 52 50 55 55 53 58 55 55 41 47 45 54 55 51 55 56 56 55 55 55 54 64 68 67 66 65 68 67 68
67 68 61 56 60 58 58 56 54 55 57 58 56 55 53 56 59 59 60 59 58 52 50 45 45 41 40 52 51 46 54 55 54 56 52 49 60 65 64 66 66 65 65 64 66

GFSSW_sfc_temp_066.txt.gz
Temp
60 60 60 60 60 60 60 61 60 60 61 61 61 60 60 60 60 69 66 78 79 74 72 83 87 86 87 83 87 88 71 67 70 72 78 89 84 89 91 87 89 92 92 95 98
60 60 60 60 60 60 60 60 60 60 61 61 61 60 60 60 64 69 77 73 73 73 80 80 80 84 79 80 82 78 71 70 79 81 81 86 87 88 83 82 83 87 93 97 97
60 60 59 59 59 59 59 60 60 60 60 60 60 60 59 61 67 76 72 72 72 74 81 85 85 83 77 81 80 78 71 78 81 84 86 84 86 91 83 78 83 83 88 93 95
59 59 59 59 59 59 59 59 59 60 60 60 59 59 60 64 63 81 73 72 72 80 82 84 82 76 74 73 81 74 80 81 82 85 84 83 88 85 86 86 90 90 90 90 90
58 59 58 58 58 58 58 59 59 59 59 59 59 59 64 67 73 82 73 74 81 82 82 82 79 78 72 76 79 76 79 82 84 84 84 86 83 83 85 89 91 91 89 87 89
58 58 58 58 58 58 58 58 58 58 59 59 59 59 64 63 88 86 86 84 84 85 84 84 81 83 76 76 76 80 80 81 83 82 84 80 80 82 85 90 88 88 86 87 87
57 57 57 57 58 58 58 57 57 58 58 59 60 66 67 70 91 89 88 86 88 87 82 86 86 79 79 74 81 78 72 76 78 79 78 82 73 75 85 87 84 86 87 87 87
57 57 57 57 57 58 58 58 57 57 58 59 60 67 65 90 93 89 90 86 90 89 86 87 86 79 76 79 76 71 71 63 74 77 78 78 65 78 85 84 82 84 86 85 85
57 57 57 57 57 58 58 57 58 60 60 60 62 66 68 81 82 88 89 83 86 87 86 87 82 74 75 68 64 67 59 63 68 79 78 75 67 77 84 82 80 82 84 84 84
57 56 56 57 57 57 57 56 60 59 62 70 74 67 75 76 84 86 89 87 81 81 78 76 74 67 69 64 53 60 62 66 65 75 76 72 70 76 80 79 78 79 80 81 81
56 56 56 56 57 56 58 68 64 64 70 70 73 71 79 84 87 81 86 82 80 75 65 73 65 60 66 69 69 68 65 64 69 76 71 69 69 73 78 78 76 77 78 78 80
56 55 56 56 57 56 60 69 75 77 66 79 79 79 82 84 74 78 86 73 71 64 70 67 61 70 72 71 69 67 62 61 67 73 71 68 66 71 74 76 78 77 77 78 80
55 55 55 56 56 60 71 78 86 85 66 74 80 78 79 81 73 75 81 76 69 65 66 62 67 74 70 67 64 63 60 61 62 69 71 67 61 65 72 75 78 80 80 80 79
55 55 55 54 58 80 78 85 88 84 59 67 71 77 79 79 71 83 85 76 71 64 67 66 73 69 66 63 65 57 68 66 64 60 53 66 50 62 69 71 74 76 78 79 80
54 55 55 54 67 76 81 87 86 77 44 70 73 86 82 73 76 76 85 77 66 66 68 63 66 65 62 63 67 60 68 65 62 58 57 57 52 58 68 67 70 74 76 77 79
54 55 54 71 70 81 88 85 78 56 44 65 73 71 70 73 73 77 75 79 76 67 68 66 74 71 67 70 68 68 61 61 61 57 45 54 54 55 62 67 71 73 75 76 78
54 54 54 74 72 87 85 76 56 49 70 65 66 71 70 68 70 72 69 66 61 54 54 62 64 69 71 63 67 63 54 42 39 43 43 57 52 58 69 74 73 72 74 77 78
53 52 61 75 82 84 77 64 46 61 65 72 68 68 63 69 68 69 66 61 67 61 53 45 45 58 62 58 52 56 55 43 31 36 40 49 47 60 72 75 75 75 75 76 76
51 72 73 78 83 81 68 53 55 63 67 63 64 59 62 68 68 65 63 61 64 65 51 49 48 55 60 64 58 52 51 60 45 44 41 47 54 65 71 71 71 72 73 73 75
59 69 76 83 83 74 62 52 62 71 68 66 54 60 55 60 60 61 60 63 58 65 63 56 48 60 60 61 60 59 63 45 48 35 34 46 49 48 58 65 69 69 71 72 74
64 67 76 83 79 67 55 61 67 72 69 61 57 55 57 57 59 58 58 62 60 60 62 51 50 53 57 49 44 49 53 55 53 44 33 35 44 56 57 61 63 69 71 72 73
67 62 80 82 63 67 62 67 60 68 70 65 64 60 58 59 56 56 55 51 61 58 45 53 49 42 48 61 61 56 53 49 36 36 45 43 45 62 62 62 62 66 71 74 75
60 68 80 78 57 60 65 66 67 65 64 62 59 62 62 56 50 56 57 65 62 60 53 56 47 37 41 51 52 46 49 55 53 50 41 33 41 63 63 59 62 60 65 73 75
62 61 71 72 72 62 58 58 60 69 65 64 60 62 58 55 59 53 56 61 62 61 55 56 49 43 37 44 42 35 43 49 52 41 43 46 50 57 56 55 58 56 58 70 74
65 62 64 57 60 60 60 59 57 58 64 64 57 59 56 50 53 53 58 59 59 58 58 55 44 48 50 52 52 47 47 50 49 52 45 49 52 58 60 59 58 55 56 67 69
59 57 61 58 62 60 57 58 58 59 57 54 53 57 57 51 53 50 55 55 53 59 55 56 42 47 44 51 53 50 54 54 55 55 54 55 54 65 64 61 63 62 61 59 62
64 65 59 52 56 58 59 58 57 58 59 60 58 55 54 57 60 60 60 58 57 53 52 49 44 41 37 50 49 45 50 52 53 54 51 45 51 58 57 55 55 58 58 55 64

GFSSW_sfc_temp_069.txt.gz
Temp
61 60 60 60 60 60 60 60 60 61 61 61 61 61 60 60 59 59 54 67 68 72 72 76 77 77 77 71 74 73 59 56 60 63 68 77 75 80 84 81 84 90 88 86 87
60 60 60 60 60 59 59 59 59 60 60 60 61 60 60 59 54 55 68 74 73 73 74 71 70 74 66 67 67 63 57 60 70 72 71 76 77 79 77 76 77 81 86 91 87
59 59 60 60 60 59 59 59 59 59 60 60 60 60 59 59 54 67 75 72 72 72 75 75 75 72 63 66 65 65 59 67 72 76 78 76 77 82 78 70 74 76 81 85 84
59 59 59 59 59 59 59 59 59 59 60 60 59 59 59 56 52 71 73 72 72 76 75 73 70 60 57 58 67 61 70 72 74 78 77 75 79 77 79 76 83 84 82 81 80
58 58 58 59 58 58 58 58 58 58 59 59 59 59 56 54 60 74 74 73 74 74 72 70 66 63 57 63 66 63 68 74 76 76 76 77 76 76 76 81 86 83 83 80 79
58 58 58 58 58 58 58 58 58 58 58 59 59 59 53 51 78 77 76 74 77 73 71 72 70 71 63 62 59 67 68 69 73 72 72 71 74 73 77 80 83 82 79 81 80
58 58 58 58 58 58 58 58 57 58 58 59 60 61 58 58 80 78 79 75 78 79 75 78 77 70 66 61 68 68 61 65 68 67 68 70 66 69 74 79 77 78 77 79 79
57 57 57 57 57 58 58 57 57 58 58 59 60 58 51 78 77 77 78 78 81 81 79 80 78 68 62 67 66 59 59 49 61 68 70 65 57 70 74 74 72 76 77 77 75
57 56 56 57 57 58 57 57 57 60 60 60 53 53 57 78 77 82 82 79 81 81 79 85 71 62 63 55 50 52 47 50 57 68 68 65 61 69 74 73 69 71 71 75 73
57 56 56 57 57 57 56 56 59 57 59 63 66 55 64 70 79 82 83 83 77 75 72 69 62 54 52 48 39 47 49 55 56 65 67 64 63 70 71 71 69 66 69 70 71
56 56 56 56 56 56 55 58 53 52 60 59 64 66 72 80 85 79 82 78 74 68 55 62 51 47 53 59 60 59 56 55 61 67 65 61 60 64 67 66 65 67 68 68 70
56 56 56 56 56 56 52 57 67 68 58 70 70 72 78 79 72 76 81 67 64 55 61 55 50 61 66 65 62 60 56 52 59 65 65 61 59 63 65 64 64 65 65 67 67
55 55 55 56 55 52 58 67 77 73 55 66 74 74 75 76 70 71 75 69 62 58 58 52 59 69 67 63 60 57 53 53 54 61 64 60 55 58 63 66 70 71 67 67 66
55 55 55 54 55 65 66 77 76 72 45 61 68 73 77 74 67 79 79 71 64 58 60 57 65 65 62 60 60 50 61 61 58 53 41 56 38 51 58 60 66 70 71 65 67
55 55 55 54 53 60 72 75 72 65 33 67 70 80 77 68 71 72 80 71 61 61 59 55 59 59 58 60 64 55 63 56 56 51 45 49 39 46 57 58 62 67 70 65 66
55 55 55 60 55 64 72 73 66 45 36 63 70 67 66 69 70 74 71 73 70 61 61 59 67 63 60 65 64 65 56 52 50 44 34 46 43 46 51 58 63 63 65 67 67
54 54 52 61 59 72 74 63 43 38 68 61 63 68 63 63 66 68 64 59 54 46 49 54 52 58 61 52 57 53 46 30 28 29 32 49 45 47 56 64 66 65 63 65 65
54 53 54 63 69 71 64 50 35 56 60 68 65 63 58 63 63 65 63 56 63 54 45 38 36 54 52 50 45 42 43 33 25 25 33 47 36 46 60 65 65 67 64 63 63
52 59 60 66 68 67 54 39 44 56 65 61 61 55 56 61 60 59 57 56 58 56 43 43 41 53 53 55 54 47 37 46 37 38 30 37 45 56 61 62 65 65 63 61 62
51 56 63 73 71 61 47 45 52 65 66 62 50 56 48 53 53 53 53 56 54 59 58 47 37 54 59 60 57 50 53 37 33 28 24 36 41 41 51 56 62 62 61 60 62
51 55 68 75 68 53 41 50 60 70 67 59 54 52 53 51 52 51 52 57 59 56 55 49 42 42 51 47 43 43 41 41 38 35 27 26 34 49 51 54 56 58 61 58 60
51 49 69 69 50 51 48 60 58 63 66 62 59 56 52 52 49 49 49 54 60 57 46 43 36 34 43 54 52 46 41 37 31 29 33 30 32 57 54 56 59 58 62 60 63
47 53 69 66 44 49 56 60 61 61 60 59 56 57 56 50 42 50 52 61 60 55 48 43 36 28 35 43 46 42 44 43 38 36 31 28 31 58 55 55 56 56 60 62 60
49 49 57 58 58 51 50 53 54 63 61 61 58 57 52 49 50 46 51 60 61 59 57 51 39 35 27 36 39 36 43 45 41 32 35 37 41 50 53 52 55 57 60 58 56
52 50 53 46 49 50 52 54 53 53 59 57 52 53 50 41 45 45 50 53 58 55 51 44 35 40 42 46 47 46 47 46 43 42 35 43 43 47 49 51 50 52 54 55 56
48 47 49 48 52 50 50 51 53 55 52 50 48 53 51 43 46 42 45 44 43 49 47 45 33 39 38 47 48 44 48 49 46 46 42 44 45 52 50 52 51 51 54 53 57
54 54 47 47 49 47 47 49 52 54 56 57 54 49 47 50 52 50 48 48 47 43 41 40 36 33 29 43 43 36 43 44 45 46 43 36 43 49 48 49 47 50 53 54 57

GFSSW_sfc_temp_072.txt.gz
Temp
61 61 60 60 60 60 60 60 59 60 60 60 61 61 61 60 59 54 50 62 63 69 71 73 73 72 71 66 68 65 52 50 55 57 62 72 69 75 81 77 84 86 81 84 84
60 60 59 60 60 60 60 59 59 59 59 59 60 60 60 59 51 49 64 69 70 72 69 67 65 67 61 62 63 58 47 53 63 65 64 70 72 72 74 75 76 79 84 83 83
59 59 59 59 59 59 59 59 59 59 59 59 60 60 59 58 49 61 73 70 72 72 71 70 68 65 57 58 60 58 55 61 64 67 70 71 73 77 72 68 72 75 79 80 77
58 59 59 59 59 59 59 59 59 59 59 59 59 59 59 52 50 69 73 71 72 71 69 68 62 54 54 54 61 55 63 66 68 71 70 69 75 73 73 73 78 80 81 79 78
58 58 58 58 59 59 58 59 59 58 58 58 59 59 53 48 55 73 73 72 71 71 68 65 58 55 50 56 59 55 61 66 70 71 71 73 70 71 73 78 82 81 80 76 74
57 58 58 58 58 58 58 58 58 57 58 58 59 59 49 46 72 74 72 70 72 67 64 64 62 65 59 57 54 61 62 63 65 66 66 68 70 68 74 78 79 78 79 79 76
57 57 57 57 57 58 58 58 57 58 58 58 59 59 52 53 75 72 72 68 72 73 68 71 71 66 59 58 60 63 56 60 61 61 63 66 61 65 71 76 75 76 76 77 76
57 57 57 57 57 57 58 57 57 57 58 58 59 54 48 69 68 71 70 71 74 75 74 76 71 62 57 59 61 54 52 44 55 62 65 62 55 67 69 70 70 72 74 75 75
57 56 56 57 57 57 57 57 57 59 60 59 51 49 51 72 70 75 75 73 76 76 74 82 68 60 59 50 45 46 41 46 52 61 61 59 57 66 69 69 67 68 68 71 71
57 56 56 56 57 57 56 56 57 57 60 61 62 50 60 67 73 78 76 77 73 71 68 64 58 52 48 44 35 42 43 48 49 60 58 57 57 66 70 66 67 64 66 68 68
57 56 56 56 56 55 52 53 53 51 54 57 60 60 67 75 79 75 78 74 70 64 52 58 48 44 50 53 55 53 50 49 56 63 55 55 55 59 66 64 62 61 64 65 67
56 56 56 56 56 55 49 53 60 61 53 62 66 64 72 73 66 72 78 65 61 53 56 51 45 57 60 59 57 54 50 50 55 60 57 55 55 59 62 62 62 63 62 62 60
55 55 55 56 55 51 53 61 70 64 52 62 68 66 67 70 65 68 71 66 59 53 53 48 54 63 61 57 55 55 51 49 50 55 56 53 50 53 60 62 64 63 64 64 63
55 55 55 55 55 56 58 69 67 64 43 55 63 69 72 71 63 75 75 67 59 54 55 52 60 59 57 55 57 48 58 57 54 46 38 54 36 47 54 57 60 62 60 61 64
55 55 55 55 48 55 66 66 66 61 32 63 65 77 71 64 66 68 76 66 58 57 55 52 55 54 53 54 58 51 59 56 53 44 39 45 38 45 52 53 55 60 62 63 64
56 56 55 53 47 57 64 64 61 43 34 59 67 64 61 63 65 69 67 69 67 58 56 55 60 57 55 59 58 58 52 48 45 40 31 44 40 42 47 51 54 60 65 67 63
56 55 52 57 55 61 61 57 41 34 61 58 58 62 58 58 61 62 59 55 52 42 42 50 52 56 60 52 55 51 43 32 28 28 32 45 40 46 50 57 57 59 61 62 60
54 53 52 56 55 60 57 48 32 50 55 64 60 59 54 57 56 58 55 49 54 50 40 38 35 49 55 51 46 42 38 28 27 22 33 42 34 41 56 60 61 63 59 60 59
53 52 53 60 59 59 50 37 40 51 61 57 57 50 51 56 54 53 51 49 52 51 42 40 41 53 55 55 52 44 35 41 34 35 30 35 42 50 55 56 60 62 61 55 57
50 51 55 66 63 56 45 41 48 61 63 59 48 52 45 51 50 50 49 54 53 54 51 44 34 49 54 54 52 48 48 31 35 27 25 32 35 36 45 50 55 57 57 59 61
50 50 64 68 63 51 40 46 55 64 63 57 51 48 49 47 48 46 49 53 56 52 50 43 37 40 46 44 41 41 37 36 36 34 28 25 31 45 46 49 52 56 61 56 57
45 44 64 67 50 47 45 55 55 60 62 58 55 52 49 48 47 47 47 50 58 55 43 41 35 30 38 50 54 45 38 37 30 29 32 30 30 48 48 51 55 57 61 61 57
43 44 62 64 43 43 51 55 59 57 57 57 54 54 52 47 39 47 50 58 58 53 44 43 33 26 31 39 44 42 41 39 35 34 30 28 30 52 52 54 52 56 60 59 61
41 42 52 53 53 47 46 49 51 61 56 57 54 55 49 46 46 44 47 56 59 54 56 49 35 32 27 33 36 34 42 43 36 29 34 34 40 47 47 47 48 52 55 58 61
43 42 47 41 46 47 48 49 48 48 57 55 50 52 47 39 43 42 46 48 53 55 48 43 33 37 39 43 44 42 43 45 39 39 33 38 41 41 44 44 46 48 51 52 53
41 39 44 43 48 46 46 47 46 48 50 50 47 50 48 41 43 39 42 41 41 44 41 40 32 36 35 43 44 40 43 44 42 41 40 41 38 44 47 47 48 48 50 51 53
48 51 45 42 45 42 43 45 44 48 51 54 52 48 46 48 50 48 47 46 45 39 38 36 32 30 28 39 39 32 37 39 40 42 40 33 41 47 45 47 46 47 49 51 53

GFSSW_sfc_temp_075.txt.gz
Temp
60 60 60 59 59 59 60 59 59 59 59 60 60 60 60 60 59 51 48 63 60 68 70 69 70 70 67 61 63 65 50 45 52 54 61 67 63 69 77 74 78 80 77 81 81
59 59 59 59 58 58 59 59 59 59 59 59 60 60 59 59 50 47 61 68 68 70 66 66 63 67 59 58 60 56 46 51 60 63 61 66 65 65 69 71 72 74 81 81 80
59 59 59 59 59 59 59 58 58 59 59 60 60 59 59 58 47 60 72 69 70 70 67 67 65 63 55 56 58 56 51 56 60 64 66 66 68 70 66 64 68 70 76 79 76
58 59 59 58 58 58 59 59 59 59 59 58 59 58 59 52 49 66 73 70 71 69 66 63 60 52 49 52 58 52 60 62 63 65 65 63 69 69 69 71 74 77 76 79 76
58 58 58 58 58 58 58 58 58 58 58 58 58 59 52 46 53 69 72 71 68 67 64 61 56 54 49 53 55 54 59 63 65 65 63 67 65 65 69 74 78 78 79 76 74
57 58 58 58 58 58 58 58 58 58 58 58 58 59 48 45 69 71 69 67 67 63 62 62 60 60 54 53 52 56 59 60 61 62 61 62 66 64 70 74 75 75 74 73 73
57 57 57 58 58 57 58 57 57 56 58 58 58 57 48 54 69 68 68 64 67 69 66 67 66 61 58 54 57 58 53 56 57 57 58 61 58 62 68 72 71 73 75 73 73
57 56 57 57 57 58 58 57 57 57 58 58 59 52 47 65 65 66 64 67 70 70 69 71 69 61 56 57 57 51 49 42 51 57 61 60 51 63 67 68 68 70 71 72 73
57 56 56 57 57 57 57 56 57 58 60 59 49 47 51 68 66 70 71 69 70 71 70 77 65 57 56 47 43 43 38 42 48 57 58 56 52 61 65 64 63 64 67 69 70
57 56 56 56 56 56 55 56 58 57 59 60 60 49 59 64 70 73 70 72 68 68 65 62 54 49 45 43 34 39 40 45 45 54 54 53 54 59 62 62 62 65 64 65 67
57 56 56 56 56 55 51 51 52 50 52 56 59 57 64 71 75 71 73 68 65 61 51 54 47 42 48 49 52 49 46 45 52 59 51 53 54 56 59 59 60 60 59 62 64
56 56 56 56 56 55 49 52 59 58 50 59 62 62 69 69 62 68 74 63 59 51 53 49 43 53 55 54 52 49 46 46 52 57 52 51 51 57 57 59 60 59 58 60 59
56 56 56 56 55 50 53 60 65 60 48 58 62 62 63 65 60 62 69 63 57 51 51 46 52 59 56 53 51 49 45 47 47 53 53 49 46 50 55 58 62 61 58 60 61
55 56 56 56 52 53 56 64 62 60 41 53 59 64 66 66 60 71 71 64 55 52 51 49 58 56 53 51 51 43 53 52 51 45 38 50 37 48 50 53 56 59 58 60 61
55 56 56 55 47 54 63 60 60 59 33 60 60 72 67 62 63 65 70 63 54 54 52 49 52 51 50 52 54 48 54 51 49 43 37 41 34 42 48 49 54 56 59 58 59
56 56 56 51 46 54 60 59 60 43 34 57 64 61 58 60 62 65 64 65 64 55 52 53 57 53 52 56 56 56 49 45 41 38 30 41 38 41 48 49 52 57 59 60 61
55 55 52 57 56 58 59 57 41 34 58 55 56 60 56 54 57 59 56 51 47 40 40 48 48 53 56 48 51 47 40 27 27 27 32 43 38 44 49 55 55 55 56 57 59
54 53 52 56 53 59 58 49 34 49 52 60 57 55 51 53 52 54 51 45 51 47 38 37 36 48 53 49 43 40 39 28 25 25 30 38 32 41 53 56 56 55 54 54 52
52 49 50 56 56 58 53 38 39 48 57 55 55 48 47 52 52 51 47 46 49 48 39 36 38 51 52 52 49 40 33 43 32 33 28 31 39 50 53 52 54 54 55 53 53
46 46 51 60 60 56 47 42 47 59 59 58 48 51 43 46 45 45 44 51 50 52 49 43 33 47 51 51 50 42 44 33 33 25 23 29 32 35 45 48 51 51 49 52 53
44 45 58 62 61 52 40 44 53 61 59 54 51 49 49 46 47 46 48 52 54 50 48 42 37 39 44 40 38 38 38 38 36 33 23 21 30 44 44 47 49 50 54 52 53
41 42 59 60 47 46 45 52 54 59 60 57 55 52 49 48 46 46 45 49 57 52 43 40 35 30 37 45 48 45 40 39 29 29 33 30 29 47 47 51 49 50 55 58 54
37 39 55 57 37 39 49 52 56 55 55 55 51 54 51 45 40 46 48 56 56 50 43 42 32 26 30 37 42 38 40 39 36 34 29 24 29 50 51 49 47 47 50 57 59
40 38 44 46 45 42 42 47 48 58 54 55 52 53 49 46 46 43 46 53 55 53 55 48 33 32 25 32 34 33 38 41 38 30 30 33 37 45 45 45 47 46 47 50 53
41 37 40 34 41 41 43 45 44 45 52 53 50 50 46 41 44 42 44 47 51 53 46 40 33 34 37 40 40 39 39 40 34 38 32 38 37 41 43 44 45 45 47 49 51
38 37 40 36 40 40 42 41 42 45 43 43 45 48 49 41 43 41 42 41 41 43 40 38 31 34 33 41 41 38 40 40 42 43 41 41 38 43 46 46 45 45 48 49 51
41 43 42 40 41 41 41 43 43 43 44 46 47 44 44 47 51 49 48 46 45 41 37 35 31 29 28 37 36 30 36 38 39 42 38 32 37 43 42 44 43 43 47 49 51

GFSSW_sfc_temp_078.txt.gz
Temp
59 59 59 59 59 59 59 59 59 59 59 59 60 60 60 59 58 49 45 60 59 69 69 66 67 67 65 59 62 62 48 44 49 53 58 64 61 64 73 71 72 77 74 77 79
60 59 59 59 59 59 59 59 59 59 59 59 59 60 59 59 51 45 59 67 68 70 65 64 62 64 58 56 57 55 44 51 57 60 60 61 61 61 64 66 68 71 78 77 75
59 59 59 59 59 58 59 59 59 59 59 59 59 59 59 57 45 59 70 68 69 69 64 65 64 62 53 54 55 51 47 54 59 63 64 61 61 68 63 61 65 68 73 74 74
58 59 59 58 58 58 59 59 59 59 59 58 58 58 59 52 47 64 72 69 70 66 64 62 59 52 50 51 57 50 57 59 60 63 62 61 65 64 65 65 71 72 73 75 73
58 58 58 58 58 58 58 58 58 58 58 58 57 58 50 43 54 66 71 71 66 65 62 59 55 53 48 52 53 51 56 59 63 60 59 62 61 63 66 70 72 73 75 71 71
57 58 57 57 58 58 57 58 58 58 57 57 57 58 45 43 65 68 66 65 65 61 59 59 57 58 52 51 52 56 55 57 58 60 59 59 62 59 63 70 70 71 70 71 72
57 57 57 57 57 57 58 57 57 57 58 58 57 56 45 53 66 65 66 62 64 66 62 64 63 59 55 51 54 55 50 55 55 57 59 60 57 58 65 68 66 68 69 70 71
57 57 57 57 57 57 57 57 57 57 58 58 58 50 45 62 62 63 62 64 66 66 65 66 64 57 52 54 55 48 46 41 51 55 61 55 51 61 64 63 64 67 68 69 67
57 57 57 57 57 57 57 56 57 57 59 59 47 45 49 67 63 68 67 67 67 67 66 75 62 53 53 46 41 41 35 36 47 53 54 52 49 59 64 61 60 62 64 66 70
57 57 56 57 57 56 55 56 58 58 58 58 57 46 56 60 67 69 67 69 65 64 62 59 52 47 43 42 33 37 37 41 42 52 52 50 50 56 59 59 59 58 59 62 65
57 56 56 56 57 56 52 49 51 48 50 53 56 55 61 69 71 66 68 65 63 58 49 51 46 41 46 47 48 45 42 42 47 55 48 48 51 53 56 56 56 59 57 57 59
57 56 56 56 57 55 50 53 57 57 48 57 59 59 65 66 60 64 70 59 55 48 50 47 42 50 53 51 49 46 43 42 47 53 49 48 48 52 53 56 57 57 57 56 56
56 56 56 56 55 50 51 59 61 58 47 56 59 59 60 64 58 60 66 60 54 49 49 44 50 56 53 49 48 45 42 43 44 50 50 47 46 48 53 56 59 60 58 57 57
55 56 56 55 52 52 55 63 60 59 41 51 56 61 63 62 57 67 68 63 53 50 49 47 53 54 48 48 49 41 50 50 48 42 35 47 36 47 49 51 55 58 56 56 57
55 56 55 55 46 53 60 58 58 59 32 58 57 68 62 59 60 62 67 61 53 52 50 48 49 47 46 49 52 46 52 48 47 41 35 39 33 43 46 46 50 55 59 57 57
55 56 55 49 45 52 58 59 59 43 33 55 61 57 55 57 58 62 61 63 60 52 50 49 54 53 52 53 53 53 46 43 39 36 30 40 38 42 48 47 49 53 56 57 57
55 54 52 54 53 54 56 57 42 34 57 53 55 58 52 50 54 55 53 48 46 39 39 45 47 50 53 46 48 46 38 31 25 25 31 40 35 43 49 53 52 52 53 53 53
53 52 51 53 51 54 55 49 35 47 50 59 58 56 50 53 51 54 49 44 48 44 37 35 34 46 51 47 43 39 38 28 22 25 31 37 33 39 51 54 53 53 52 52 51
52 46 48 53 52 52 50 38 40 47 55 53 55 49 47 52 51 50 46 45 48 46 38 35 37 50 51 50 48 37 32 37 26 30 28 30 36 46 49 51 52 52 53 51 51
44 43 51 57 55 53 44 41 47 57 58 55 47 51 45 46 45 44 44 50 48 49 46 41 33 44 49 49 47 41 43 28 32 24 24 29 30 33 41 43 47 49 49 51 52
42 46 57 56 56 47 37 41 50 59 58 53 50 49 48 47 46 43 45 49 52 48 46 39 36 37 41 39 37 35 33 35 35 32 26 25 29 41 40 42 47 47 49 49 50
39 43 57 57 45 38 38 47 52 54 58 55 54 52 49 49 46 46 46 49 53 51 43 40 35 31 37 43 45 40 36 34 25 24 30 30 31 46 45 46 47 49 50 50 51
37 38 52 53 36 35 43 48 51 50 52 53 51 52 51 47 41 46 47 53 53 49 43 42 33 27 31 36 40 36 37 36 33 33 29 26 27 46 47 47 49 46 49 50 52
40 36 41 43 41 38 38 41 44 53 50 52 49 52 46 44 47 43 45 51 53 52 54 48 33 32 27 32 33 32 36 37 33 26 30 31 35 43 44 43 45 46 47 47 50
39 35 37 32 37 37 36 41 41 42 48 49 47 47 42 35 42 43 45 46 49 51 44 41 33 34 35 38 38 37 37 38 33 35 31 36 36 41 42 42 43 45 47 48 49
37 36 37 35 37 37 38 37 40 43 42 41 38 43 45 37 42 39 44 41 41 42 39 37 32 33 32 39 39 36 38 39 38 38 37 37 35 43 43 44 44 43 45 46 48
39 39 40 37 42 39 41 43 42 43 45 46 43 39 37 43 49 49 49 45 44 41 37 35 31 29 28 35 34 29 35 36 37 38 37 32 37 40 39 41 42 43 45 45 47

GFSSW_sfc_temp_081.txt.gz
Temp
60 60 59 59 59 59 59 59 59 59 59 60 59 59 59 60 59 55 54 69 65 68 70 74 74 74 75 72 73 71 63 58 61 61 65 70 70 77 81 78 81 83 83 87 90
59 60 59 59 59 59 59 59 59 59 59 59 60 59 59 59 56 52 66 65 67 69 73 73 69 72 69 69 70 68 60 60 66 68 67 71 72 73 73 74 75 78 86 87 90
59 59 59 59 59 59 59 59 59 59 59 59 59 59 59 59 51 68 70 67 69 72 74 75 74 72 66 69 67 63 61 64 66 71 72 70 71 76 72 69 74 73 81 85 86
59 59 59 59 59 58 58 59 59 59 59 58 58 58 59 55 58 71 71 69 70 72 74 73 71 67 64 63 67 62 66 67 69 71 70 68 73 70 72 73 80 81 81 82 83
58 59 59 58 58 58 58 58 58 58 58 58 58 57 56 55 64 72 71 71 72 70 72 70 68 66 64 64 65 63 65 67 71 70 70 71 68 71 73 78 81 82 81 80 82
58 58 58 58 58 58 58 57 57 58 58 58 57 58 53 57 73 74 72 70 73 73 71 72 70 70 67 65 65 66 65 67 69 70 70 68 71 69 74 78 78 79 80 82 82
58 58 58 58 57 57 58 57 57 57 58 58 57 58 53 64 72 72 73 73 73 74 70 72 73 70 69 64 68 66 62 64 67 68 67 70 65 66 75 75 75 76 79 81 82
58 57 57 58 58 57 57 57 57 57 58 58 58 56 57 70 72 70 72 71 73 74 73 75 75 71 69 68 64 62 60 57 65 64 68 66 59 70 73 72 72 74 77 79 81
58 57 57 57 57 57 57 56 57 57 59 59 55 54 60 70 68 74 74 72 72 73 73 76 73 66 66 62 59 57 55 54 59 66 64 64 60 68 74 72 70 71 73 76 79
57 57 57 57 57 57 55 57 58 59 59 60 59 54 66 67 73 72 73 75 72 72 69 67 66 63 61 59 50 51 52 53 54 63 64 61 60 66 70 70 69 71 72 73 74
57 56 56 56 57 56 55 57 57 55 56 61 63 61 66 74 76 72 73 71 71 68 61 62 59 55 59 60 59 56 53 52 58 64 58 60 61 64 69 68 69 72 74 72 72
57 56 57 57 56 55 54 60 65 65 56 61 61 62 67 71 64 69 75 67 64 59 61 59 55 62 61 59 57 55 53 54 58 62 58 60 59 65 66 68 71 71 72 74 74
56 56 56 56 55 53 55 63 68 68 57 60 62 62 65 69 63 66 72 67 63 57 58 55 59 60 59 57 55 56 53 54 54 59 61 59 57 62 67 67 70 72 73 74 73
55 55 56 55 54 58 60 67 67 66 52 55 60 65 66 68 63 73 75 70 63 59 58 58 63 59 57 55 58 52 59 57 54 53 48 57 44 57 63 64 67 69 71 73 74
55 55 55 54 53 59 65 66 67 64 40 61 61 72 67 65 67 65 73 70 61 59 59 57 57 57 56 58 59 56 59 56 55 52 50 52 46 54 61 58 63 67 70 73 74
55 55 55 53 52 60 64 65 66 51 39 57 63 60 60 64 65 67 67 71 68 61 60 59 63 62 61 59 59 58 56 55 52 51 41 50 48 49 56 59 62 67 69 70 69
54 54 53 57 62 63 63 66 50 42 59 54 56 61 59 58 60 62 60 57 55 50 51 57 57 62 61 56 57 55 50 42 41 41 39 50 45 50 59 62 63 63 65 66 66
53 52 53 57 61 60 65 58 41 49 52 61 59 59 54 57 57 58 55 53 55 53 49 45 45 53 57 56 52 50 49 40 30 35 39 48 40 50 59 61 62 63 63 65 65
51 54 58 61 60 60 62 47 46 50 56 55 57 52 51 55 55 55 53 53 55 56 48 46 45 55 56 57 56 47 44 48 38 42 37 44 49 56 59 58 59 60 61 62 64
49 51 60 62 62 62 56 46 51 58 58 58 48 54 45 49 48 50 50 56 54 57 57 51 43 51 53 57 53 51 53 39 41 26 28 41 41 44 51 52 57 59 58 59 62
52 56 64 62 63 59 50 49 54 60 59 54 52 51 49 47 50 48 50 55 57 54 56 52 47 46 51 49 48 46 44 44 41 34 30 31 41 52 50 53 54 57 58 59 60
49 52 62 63 55 50 51 50 52 55 59 57 56 53 52 51 47 48 48 53 59 57 50 50 46 40 45 52 53 50 47 46 36 34 37 36 38 59 55 55 57 57 59 60 60
46 47 60 60 46 47 50 51 54 52 53 53 51 53 54 49 45 49 51 56 57 54 50 49 44 38 41 46 48 46 48 48 43 39 34 30 39 57 57 57 59 56 58 59 59
50 46 51 52 50 46 43 46 47 55 52 53 51 52 48 46 50 47 48 54 57 56 55 53 45 44 38 43 45 41 45 47 45 36 39 40 43 51 54 54 56 56 57 58 59
48 42 44 41 45 44 44 45 44 44 50 51 48 48 44 39 42 45 49 51 55 54 50 50 43 45 46 48 46 45 45 46 43 44 37 43 44 50 53 53 53 55 56 56 57
47 46 46 44 43 43 42 43 43 43 43 43 42 45 42 39 41 41 45 46 46 52 49 46 42 42 41 46 47 43 46 46 46 46 45 45 45 53 53 54 53 54 54 54 56
47 48 47 43 44 41 42 42 41 43 46 47 45 42 39 41 46 49 51 50 50 48 46 44 43 40 36 41 42 39 46 46 46 48 47 41 50 54 51 50 50 51 52 53 55

GFSSW_sfc_temp_084.txt.gz
Temp
60 60 60 60 59 59 59 60 60 60 60 59 60 60 59 59 59 66 65 74 74 70 68 82 83 84 85 83 83 84 72 70 71 67 73 78 79 86 87 84 88 90 90 93 97
60 60 60 60 59 59 59 59 59 60 59 60 60 59 59 59 64 66 75 70 69 70 81 80 78 81 80 79 80 77 71 72 78 78 75 79 81 83 81 82 84 87 92 96 96
60 60 60 59 59 59 59 59 59 59 59 59 59 59 59 62 63 75 73 69 68 71 85 84 85 82 77 79 78 77 71 78 76 78 81 79 79 83 79 76 83 83 88 92 93
60 60 59 59 59 59 59 59 59 59 59 59 58 58 58 65 63 79 72 69 71 84 84 81 80 76 74 72 78 70 76 77 78 80 78 76 80 79 80 80 87 88 90 91 90
59 59 59 59 59 58 59 59 59 59 59 58 58 58 63 64 73 79 70 72 79 82 81 80 77 77 72 76 74 72 74 76 79 79 79 80 76 77 80 85 88 89 89 89 90
58 59 59 59 59 58 58 58 58 58 58 59 58 58 64 65 81 82 82 80 82 82 81 82 79 81 76 74 73 75 74 76 77 78 79 75 77 79 80 84 85 86 86 89 90
58 58 58 58 59 58 58 58 58 58 58 59 59 65 63 73 81 83 83 82 84 83 79 82 83 78 79 72 77 75 69 74 76 77 76 78 72 74 82 84 81 82 85 87 88
58 58 58 58 58 58 58 57 57 57 58 59 59 66 67 81 84 81 84 81 84 84 83 83 83 79 77 78 73 70 70 66 76 74 76 73 67 78 81 81 79 82 83 85 87
58 57 57 58 58 58 57 56 57 58 59 60 63 64 69 73 75 83 84 79 81 81 81 82 81 76 75 70 67 68 64 65 67 76 74 72 68 76 80 79 78 80 82 84 85
58 57 57 57 57 57 56 56 57 60 64 67 67 61 74 74 80 80 84 82 78 78 75 75 76 71 72 68 60 63 63 64 63 71 72 70 70 76 80 79 78 79 81 83 84
58 57 56 57 57 56 58 66 62 60 64 68 71 69 74 80 82 78 81 79 79 75 67 72 67 63 68 69 68 65 63 62 66 72 68 67 68 72 77 78 78 80 81 82 83
57 57 56 56 56 55 63 68 72 72 64 73 71 72 75 77 71 76 82 72 70 66 70 66 62 70 70 68 65 64 62 62 67 70 68 67 66 72 75 76 77 78 79 81 83
56 56 56 56 55 59 69 72 79 77 65 67 69 69 72 76 71 73 78 76 69 66 66 64 67 69 66 65 62 64 61 62 61 67 69 66 63 68 76 78 78 79 80 82 81
56 55 56 55 56 72 71 77 80 76 62 61 65 68 72 76 68 80 82 76 70 65 67 66 72 67 65 63 65 59 68 64 62 60 56 67 52 64 70 72 75 77 79 80 81
55 56 55 54 64 70 73 79 79 73 48 66 66 77 73 69 72 70 83 76 67 66 66 64 64 64 63 65 66 62 66 64 63 60 59 60 57 63 70 67 71 74 76 78 81
55 55 54 61 65 72 77 77 74 58 45 62 68 66 65 68 69 72 72 77 74 68 68 67 73 68 68 67 67 67 64 64 64 61 50 58 57 60 63 65 68 71 74 76 76
55 54 57 68 71 75 76 73 57 52 64 59 62 67 66 63 64 67 66 64 62 55 57 65 67 71 68 63 67 64 59 50 49 51 50 61 55 58 65 66 67 67 70 72 74
53 52 56 70 74 73 73 64 48 55 58 65 64 65 60 63 62 62 62 61 63 62 58 53 52 61 65 63 61 60 58 48 36 43 49 57 48 59 67 67 68 68 70 71 72
52 72 74 73 72 73 68 54 55 57 60 60 63 59 59 60 59 58 59 58 60 61 52 52 51 61 62 64 63 58 52 59 47 49 45 53 58 65 65 65 66 67 68 69 70
63 68 70 74 72 70 64 51 57 62 63 63 55 59 54 57 54 52 51 59 57 63 64 58 49 59 61 63 61 59 62 46 52 32 35 49 51 54 60 60 64 65 66 68 70
65 66 71 74 72 68 58 57 59 64 65 59 56 56 57 55 57 53 51 57 61 62 65 61 54 53 57 56 55 55 53 52 50 45 35 37 49 61 60 63 61 65 67 68 68
63 62 72 72 62 65 61 57 53 61 65 62 61 58 57 57 54 54 52 55 63 62 55 60 54 47 53 61 61 59 55 55 42 41 44 43 45 65 64 65 65 66 68 69 69
61 61 73 70 55 59 59 58 60 58 59 58 57 59 60 54 49 55 56 62 62 59 55 58 50 43 48 53 56 53 56 56 53 49 41 37 45 65 66 65 67 66 67 67 68
62 58 64 64 61 53 51 55 54 60 58 58 57 59 56 52 56 51 53 59 61 59 56 58 51 48 44 50 53 48 52 56 54 44 47 49 52 59 62 62 64 65 66 67 68
62 54 54 55 58 52 52 52 51 49 54 56 53 53 50 43 48 50 53 57 59 59 56 55 46 50 53 55 55 53 52 54 52 53 47 51 52 58 61 62 62 64 65 65 65
58 57 62 58 51 49 48 50 48 47 46 48 46 49 47 42 46 43 50 50 49 55 54 55 45 50 47 53 54 50 54 55 55 55 54 54 53 64 66 66 63 62 62 61 62
62 61 58 50 49 47 48 45 44 46 50 53 48 43 42 47 49 49 50 50 51 51 50 50 47 45 41 51 49 45 53 54 55 58 56 50 58 63 61 59 59 59 60 60 61

GFSSW_sfc_temp_087.txt.gz
Temp
61 61 60 60 60 60 60 60 60 61 61 61 60 60 61 61 60 68 68 78 79 74 71 88 87 88 90 88 91 91 75 70 74 78 82 88 85 89 95 89 92 95 95 98 100
61 61 61 60 60 60 60 60 60 60 61 60 60 60 60 60 65 71 80 72 71 72 80 84 82 86 83 85 86 81 74 75 83 85 84 84 86 88 89 87 88 91 96 99 100
60 60 60 60 60 60 60 60 60 60 60 60 60 60 59 62 68 79 76 71 70 72 82 91 90 86 81 85 84 82 75 84 85 84 84 84 84 90 86 81 87 87 92 97 97
60 60 60 60 60 59 59 60 60 60 60 59 60 59 59 67 65 82 73 71 70 79 84 87 86 80 79 78 85 77 83 84 85 84 82 79 85 82 84 86 92 93 93 94 94
59 59 59 59 59 59 59 59 59 59 59 59 59 59 63 69 75 80 71 72 80 81 85 85 82 82 77 81 82 79 82 84 86 85 84 84 80 81 83 89 92 92 92 92 92
59 59 59 59 59 59 59 59 59 59 59 59 59 58 66 66 88 86 85 82 87 87 87 88 85 88 82 80 79 82 81 82 83 84 84 80 80 82 84 88 87 88 88 91 92
58 58 58 59 59 59 59 58 57 58 59 59 60 65 70 75 88 90 88 87 90 89 84 90 89 83 84 78 84 81 75 78 80 82 80 83 75 77 86 88 85 86 87 89 91
58 58 58 58 59 59 59 58 57 58 58 60 60 70 71 89 91 88 89 86 90 91 89 88 89 86 83 84 79 75 75 70 81 81 82 77 69 83 88 84 83 85 87 87 88
58 57 58 58 58 58 58 57 58 59 59 61 62 69 73 75 81 88 89 83 86 87 86 87 86 81 80 73 71 73 67 70 75 82 79 77 72 82 85 83 81 83 86 87 88
58 57 57 57 57 57 57 56 57 59 61 69 72 66 77 77 85 86 89 87 82 82 79 79 79 74 76 73 63 68 68 72 70 78 77 74 74 81 85 84 82 83 85 86 87
57 57 57 57 57 56 58 68 66 64 68 69 71 74 79 86 88 83 86 83 83 78 70 76 71 68 73 75 75 72 70 69 74 78 73 72 73 77 81 82 81 83 84 85 87
57 57 57 56 56 55 63 72 78 80 69 76 75 76 80 84 75 81 87 75 74 68 74 72 66 75 77 75 71 70 67 67 73 76 73 71 70 76 79 80 82 81 82 84 86
56 56 56 56 56 59 72 77 87 84 70 73 76 73 75 78 74 76 81 78 72 69 71 68 73 75 72 70 67 68 66 67 67 72 74 70 67 72 79 82 83 84 84 85 84
56 56 55 56 55 80 76 84 87 84 63 65 70 74 77 77 69 84 84 79 74 69 72 71 77 71 70 68 70 63 73 70 66 64 59 72 56 68 75 77 80 82 83 84 84
55 56 55 54 65 75 79 86 86 78 44 72 71 84 80 73 73 73 84 79 69 71 71 69 70 70 67 69 72 66 73 68 67 64 63 64 61 67 75 72 75 77 79 80 82
55 56 54 63 67 79 84 84 79 59 45 66 73 71 70 74 73 75 75 80 79 70 73 72 78 73 72 73 72 73 68 67 68 65 54 63 62 64 70 69 71 74 76 77 79
55 55 59 76 76 84 84 78 60 54 69 64 67 72 71 68 69 71 67 65 63 57 57 67 69 76 76 67 73 69 62 53 52 52 50 66 61 64 71 71 70 70 73 76 77
54 53 60 79 85 82 78 67 51 61 63 70 69 69 66 70 70 69 66 63 70 67 59 53 53 67 71 66 64 66 63 53 41 46 54 64 54 65 72 73 72 73 72 75 74
52 79 82 83 82 81 71 59 60 62 65 65 67 63 65 67 66 65 65 64 67 65 55 53 52 66 67 69 68 62 58 65 53 55 50 57 63 71 72 70 70 72 72 72 74
65 77 78 81 81 75 67 54 62 67 67 68 59 64 58 61 61 61 58 64 64 67 67 59 49 64 67 67 68 63 68 51 56 38 39 53 55 59 64 65 69 70 70 73 75
66 71 78 82 79 71 61 64 64 69 68 62 62 61 62 62 62 58 55 62 65 63 64 60 54 57 63 59 58 58 57 58 57 51 38 40 52 67 64 66 67 70 72 73 74
71 67 80 82 66 71 65 64 54 66 69 66 66 64 61 62 58 59 58 61 67 66 57 62 55 49 53 65 67 64 59 59 46 45 51 49 50 70 67 70 70 71 73 75 74
68 72 81 77 61 66 65 64 65 64 64 63 62 64 64 56 52 60 60 68 68 64 56 58 52 44 48 56 63 57 60 61 59 56 46 41 49 71 71 71 72 71 73 72 72
68 64 71 75 70 60 60 60 60 66 63 63 62 64 58 55 58 51 56 62 66 65 58 58 54 49 44 47 55 52 57 61 58 47 50 52 56 64 67 67 70 71 71 72 72
70 63 61 63 64 59 59 60 57 57 61 61 57 56 52 47 51 51 55 57 62 60 60 55 46 52 54 56 57 57 58 59 56 57 51 56 57 63 66 68 69 70 71 70 70
62 62 68 64 59 57 51 58 54 53 53 54 49 51 52 47 50 47 51 52 50 57 56 54 45 50 46 55 57 55 59 59 59 59 59 59 58 69 70 70 69 67 68 67 66
69 69 63 55 59 57 60 54 51 52 56 56 52 49 50 52 53 56 58 57 53 50 49 49 47 45 41 51 55 48 56 58 60 62 61 55 62 68 66 65 64 64 64 63 63

GFSSW_sfc_temp_090.txt.gz
Temp
62 62 61 61 60 60 61 60 60 61 61 61 61 61 61 61 60 64 61 74 77 74 74 81 84 83 86 84 88 88 72 68 71 75 80 89 84 93 94 89 93 94 93 97 99
61 61 61 61 61 60 60 60 60 60 60 61 61 61 60 60 61 64 76 75 74 73 78 76 78 81 79 81 84 80 71 71 81 82 80 85 87 89 86 86 87 90 96 98 99
60 60 60 60 61 60 60 60 60 60 60 61 60 60 60 61 63 76 76 72 72 74 80 84 87 83 77 81 81 80 72 80 82 86 87 84 84 88 83 81 88 87 91 96 97
60 60 60 60 60 60 60 60 60 60 60 60 60 60 60 63 62 79 73 72 72 81 79 77 81 78 75 74 83 75 80 82 85 88 85 81 83 80 84 85 92 92 93 93 92
59 59 60 59 59 59 60 60 60 60 60 60 60 60 61 65 72 79 72 73 78 79 76 77 80 79 74 79 81 78 81 84 86 87 85 85 80 80 81 88 92 93 92 90 91
58 59 59 59 59 59 59 59 58 59 59 59 60 60 61 63 90 85 86 81 84 80 79 83 83 85 81 80 79 83 82 83 85 84 84 80 80 81 82 87 87 88 87 89 90
58 58 58 58 58 59 58 58 58 58 59 60 60 65 64 70 91 90 88 85 88 86 83 90 91 85 84 79 85 83 75 79 81 82 80 83 75 76 85 87 84 84 86 88 89
58 58 58 58 58 58 58 58 58 58 58 60 61 65 63 90 93 89 90 88 91 91 90 92 90 85 83 85 81 75 75 67 78 80 82 80 67 81 88 85 83 84 85 85 87
58 57 58 58 58 58 58 57 57 59 60 60 60 63 67 80 82 89 90 84 87 89 89 89 86 80 81 74 69 71 63 67 72 83 80 77 70 82 86 83 81 82 83 85 86
58 57 57 57 57 57 56 56 60 58 61 68 69 62 72 76 84 87 90 89 82 82 79 78 77 72 74 70 58 64 66 70 70 78 78 74 73 80 84 84 82 83 84 84 85
58 57 57 57 57 56 58 67 62 61 68 69 71 69 79 86 89 84 87 83 83 78 68 74 68 64 70 73 74 73 70 69 76 81 76 73 73 76 81 81 81 82 83 83 84
57 57 57 56 56 56 57 66 77 80 68 75 78 77 81 84 74 80 87 75 73 67 73 71 64 74 78 78 74 71 67 67 73 77 74 71 70 75 78 79 80 80 81 83 84
56 56 56 56 56 56 65 74 85 86 67 75 78 76 77 78 73 75 80 77 72 68 70 66 73 78 74 72 68 68 65 66 67 73 75 70 65 70 77 80 81 83 84 84 82
56 56 56 56 54 74 72 84 87 85 59 66 71 76 79 78 68 83 83 76 72 68 71 71 77 73 70 68 71 62 73 71 68 65 57 71 54 66 73 76 79 81 82 80 80
56 56 56 54 62 76 80 86 86 78 37 70 72 85 81 72 75 73 84 76 67 69 70 67 71 70 67 69 74 67 74 69 68 63 61 62 58 64 74 71 75 74 76 78 79
56 56 55 65 65 78 86 85 79 56 44 66 73 70 70 73 74 77 75 78 77 69 69 69 78 75 73 75 74 74 68 67 66 62 51 60 60 61 67 68 71 73 75 76 78
55 55 55 71 76 88 86 77 56 51 71 65 67 71 69 67 70 71 67 65 62 56 56 64 66 73 76 68 73 70 62 50 49 50 49 65 58 63 71 72 72 71 73 75 76
54 53 65 76 86 86 79 66 50 63 64 72 70 71 65 70 69 69 67 62 69 66 60 55 53 64 70 68 63 64 62 51 40 44 51 62 50 62 73 75 74 74 74 74 75
53 76 75 82 85 82 69 56 56 62 67 66 68 63 64 69 68 68 66 64 67 68 55 55 55 69 68 70 66 60 55 64 52 55 49 55 61 70 73 71 71 70 72 72 74
60 69 79 85 84 76 64 57 64 69 69 68 59 65 58 60 60 62 62 65 65 70 70 61 50 63 67 69 68 63 66 50 54 38 38 50 54 57 63 64 68 69 71 73 75
63 67 79 85 82 69 59 64 66 72 69 63 61 60 62 61 63 61 61 66 67 67 68 63 55 54 62 57 55 58 55 57 56 50 38 39 49 67 64 66 66 69 71 73 74
66 63 81 84 65 68 65 67 57 68 71 67 67 64 61 61 58 60 59 60 69 68 59 61 52 47 54 65 68 63 58 56 43 44 50 47 47 69 69 69 70 71 73 75 75
61 69 81 77 59 62 69 66 69 66 66 64 62 65 66 60 53 58 60 69 69 63 59 61 51 43 48 57 62 56 60 59 57 54 45 41 46 69 70 70 72 71 73 74 74
61 62 71 72 71 62 62 63 63 70 65 65 62 64 61 58 60 54 58 63 67 65 60 58 53 46 41 45 52 51 56 59 56 47 49 51 54 62 66 67 70 71 72 72 72
61 63 64 59 63 62 63 62 61 60 65 64 59 58 55 50 53 53 55 58 61 59 62 58 47 51 53 56 53 51 52 56 55 56 50 55 57 62 66 67 68 69 69 68 68
58 57 62 61 64 60 56 61 59 60 56 57 54 57 55 50 52 48 52 52 52 58 53 57 46 50 46 53 55 52 56 57 58 59 58 59 58 69 69 70 66 66 66 65 65
64 67 60 57 60 59 60 59 56 57 59 60 56 53 50 53 55 58 59 57 54 51 49 46 47 45 40 52 52 45 54 56 59 61 60 54 60 66 62 63 62 63 64 63 61

GFSSW_sfc_temp_093.txt.gz
Temp
61 61 61 61 61 61 60 60 61 60 61 61 61 61 61 61 60 57 50 61 64 69 72 73 74 74 74 69 72 76 58 55 60 66 71 79 76 84 88 83 87 86 84 86 90
61 61 61 61 60 60 60 60 60 60 60 60 61 61 61 60 54 51 64 71 70 72 68 67 66 71 63 65 67 65 59 60 70 74 73 77 78 81 82 79 81 82 89 92 90
60 60 60 60 60 60 60 60 60 60 61 61 60 60 60 59 52 62 74 71 72 73 74 73 73 70 60 65 66 65 60 67 73 78 80 79 76 79 76 71 77 80 82 85 85
60 60 60 60 60 59 59 60 60 60 60 60 60 60 60 56 52 71 73 73 73 74 72 70 65 56 59 59 68 59 70 73 73 79 79 74 79 78 76 76 83 84 85 86 83
59 59 59 59 59 59 59 59 60 60 59 59 59 60 56 51 56 75 73 73 74 72 70 67 61 61 57 63 66 65 69 75 76 76 73 78 73 74 76 82 85 86 85 82 81
58 58 59 59 59 59 58 58 58 58 59 59 59 60 52 51 78 75 76 72 75 69 68 68 66 68 67 67 64 70 71 72 74 74 72 72 73 74 76 81 82 81 78 79 81
58 58 58 58 58 58 58 58 57 58 58 59 60 61 55 56 82 79 79 72 75 76 71 75 74 68 71 65 75 74 64 70 71 69 70 72 66 69 77 80 78 78 77 79 81
58 58 58 58 58 58 58 58 57 58 58 59 60 58 50 77 77 78 79 78 80 81 79 81 81 73 64 72 72 65 61 53 65 71 73 70 57 72 77 77 74 77 78 79 78
58 57 58 58 58 58 57 57 57 59 59 60 54 52 55 78 77 83 83 80 81 82 81 88 77 66 68 59 55 56 48 52 60 70 70 65 59 73 75 75 72 74 75 77 76
58 57 57 57 58 57 56 56 58 57 59 62 64 54 62 69 79 83 84 84 78 77 74 71 65 58 56 52 43 51 52 57 58 69 70 62 62 70 73 73 72 72 73 74 76
58 57 57 57 57 56 54 54 52 51 58 57 61 64 73 80 84 80 83 80 77 70 58 64 53 49 56 61 64 63 59 58 63 70 66 63 62 66 68 67 68 68 69 70 72
57 57 57 57 56 56 54 50 64 67 58 64 70 69 76 79 72 77 83 70 67 58 63 57 52 63 69 69 66 63 58 56 63 70 63 61 60 63 66 67 68 69 69 69 69
56 56 56 56 56 51 51 60 74 75 57 68 72 69 74 75 70 72 76 72 65 60 61 55 63 71 69 65 64 58 56 57 57 64 64 60 54 60 68 69 72 71 71 70 69
56 56 56 56 51 61 58 69 69 74 49 62 65 72 75 73 66 79 80 72 67 61 63 61 69 69 63 64 64 54 66 66 63 55 45 59 40 54 61 63 70 68 65 65 66
56 56 56 55 50 58 71 76 72 68 36 66 69 81 76 67 70 71 80 72 62 63 63 59 63 64 62 64 68 60 66 62 60 52 49 52 43 51 60 61 61 62 65 64 65
55 56 56 58 53 60 72 74 68 47 37 63 70 66 64 68 69 73 72 73 72 63 64 63 71 68 67 71 70 69 61 58 54 49 37 50 47 49 57 59 60 63 65 67 66
55 56 54 62 60 73 74 65 47 41 65 61 62 66 63 62 65 66 63 58 54 48 50 58 60 68 72 63 66 61 49 36 34 34 36 54 48 51 62 63 63 62 63 64 65
54 53 55 65 70 73 66 52 42 57 61 70 69 67 59 64 63 66 61 54 61 58 52 47 46 63 67 62 56 57 53 40 29 31 39 55 43 53 63 64 65 65 63 65 61
53 59 63 67 71 69 56 43 51 59 65 63 65 59 59 66 64 63 59 58 63 60 47 46 48 67 68 67 62 55 49 55 43 45 37 43 52 62 64 61 63 62 63 61 63
49 54 63 75 73 64 50 48 58 68 67 66 55 62 55 58 58 57 56 62 61 65 61 52 43 59 64 67 64 56 61 42 42 31 29 43 47 48 53 55 60 58 57 58 61
49 54 68 76 70 56 45 54 64 70 67 61 57 56 57 56 58 56 55 58 64 63 61 53 46 48 56 51 48 51 48 50 48 41 28 28 41 58 54 57 56 57 61 61 61
52 49 70 72 53 55 52 61 58 67 69 65 63 60 57 57 53 53 54 58 67 64 53 52 44 37 46 58 63 59 51 50 35 37 39 36 40 60 58 59 59 59 61 60 59
47 54 70 67 47 52 59 61 67 64 63 62 59 60 59 53 47 55 55 64 65 59 52 51 40 32 39 47 55 53 55 54 45 45 38 32 36 62 64 60 59 57 59 60 60
49 48 58 59 59 55 54 56 59 68 64 63 59 59 54 51 53 50 54 62 63 59 60 55 44 39 33 41 45 42 48 55 49 34 41 43 47 56 59 58 59 55 57 57 57
51 51 54 48 53 54 54 55 55 56 62 60 54 55 49 42 47 46 52 53 58 58 53 47 38 43 46 51 51 47 47 47 48 48 42 47 50 56 56 54 53 55 58 58 57
48 49 53 50 53 54 52 53 55 55 54 53 50 52 50 41 44 41 48 45 44 50 45 45 36 42 41 50 50 47 52 49 51 52 52 54 53 56 55 56 55 55 56 53 55
56 56 51 49 50 50 52 54 55 54 57 57 52 48 45 48 49 49 48 48 47 42 43 41 39 37 32 47 45 38 49 52 54 56 56 47 50 52 51 53 52 50 51 51 52

GFSSW_sfc_temp_096.txt.gz
Temp
61 61 61 61 60 60 60 61 61 60 61 61 61 61 61 60 60 53 47 58 58 67 69 68 69 68 66 60 63 64 49 48 51 56 63 76 74 83 86 84 84 82 81 85 88
61 61 60 60 60 60 60 60 60 60 60 61 60 60 60 60 52 48 60 66 67 69 64 62 62 65 57 58 60 55 50 52 60 64 68 72 75 79 79 78 76 81 84 84 83
60 60 60 60 60 60 60 60 60 61 60 60 60 60 60 58 47 57 69 67 69 70 68 67 66 63 55 55 57 55 52 61 67 69 74 74 72 78 75 71 75 75 80 80 79
59 60 60 60 59 59 59 60 60 60 60 60 60 60 60 52 49 69 74 73 69 70 68 66 61 52 51 52 59 50 62 65 68 70 74 73 76 76 76 77 81 80 80 80 78
59 59 59 59 59 59 59 59 59 59 59 59 60 60 53 45 50 71 73 72 70 68 66 63 57 54 49 55 57 54 62 66 70 71 68 76 74 75 78 83 83 83 81 77 76
58 58 59 59 59 58 58 58 58 58 59 59 60 60 49 46 71 73 70 69 69 66 63 62 61 61 56 57 56 62 64 67 67 69 66 67 69 73 76 80 80 80 77 77 76
58 58 58 58 58 58 58 57 57 57 58 59 60 59 51 53 74 71 70 65 68 70 66 68 69 63 60 58 67 66 59 63 67 66 66 69 62 65 76 78 77 77 75 77 79
58 58 58 58 58 58 58 57 57 58 59 59 60 56 47 68 67 68 71 72 72 73 74 75 72 64 60 63 65 60 57 53 63 66 69 67 55 70 76 74 73 75 75 76 76
58 58 58 58 58 58 57 57 57 59 60 59 52 48 49 70 69 74 75 74 74 74 74 81 71 61 61 55 50 51 46 49 56 65 66 62 56 69 74 72 70 72 72 75 75
58 57 57 58 58 57 57 56 57 57 60 60 59 47 57 66 74 79 78 79 73 72 70 68 60 54 51 49 41 47 48 51 53 62 60 57 60 65 70 69 68 69 71 72 73
58 57 57 57 57 56 54 48 51 49 52 51 57 57 67 75 79 76 79 76 73 65 55 59 51 47 53 56 58 56 55 53 57 66 62 61 61 64 65 65 63 65 65 67 71
57 57 57 57 57 56 53 45 58 62 52 59 63 63 70 73 68 73 79 66 63 55 58 54 48 58 63 62 60 58 53 53 59 64 58 56 57 62 64 64 65 66 66 67 64
56 56 57 57 56 52 47 52 63 65 52 64 63 64 66 70 66 68 73 67 62 56 56 50 58 65 63 60 58 57 54 54 55 60 60 56 52 56 64 65 67 66 63 64 64
56 56 56 56 52 52 52 62 61 63 44 57 62 68 70 69 63 76 75 69 62 58 58 55 65 63 61 59 60 50 62 61 58 51 44 55 39 49 57 60 61 60 59 61 62
56 56 56 55 46 50 64 61 64 61 34 63 64 76 71 64 65 67 75 67 59 59 58 54 59 59 57 60 64 56 63 59 56 48 44 48 41 48 53 53 55 57 59 60 62
55 56 56 52 47 54 61 62 62 47 35 58 67 64 61 64 65 69 68 71 68 59 60 57 66 64 61 66 65 65 57 52 48 44 36 45 44 43 49 54 55 57 60 62 61
55 55 54 57 53 60 59 58 42 36 62 58 58 62 60 59 61 62 60 57 52 46 47 55 56 63 67 57 61 57 46 34 33 33 34 48 44 46 54 58 59 57 59 61 63
54 53 51 56 55 59 58 49 35 54 55 67 65 62 55 59 59 61 56 51 56 54 49 44 44 59 64 59 53 51 48 35 30 30 35 48 40 49 58 60 62 64 62 61 61
53 50 53 58 60 60 51 38 43 55 63 60 62 55 55 61 61 60 54 53 57 56 47 46 48 62 64 65 60 51 44 51 41 41 35 40 48 55 60 60 61 60 60 59 59
47 46 53 65 64 57 46 43 51 65 64 63 52 57 49 54 55 55 55 57 59 62 59 50 42 57 60 63 60 55 59 41 39 31 28 40 46 46 50 54 58 57 57 58 59
45 47 62 66 65 51 41 46 59 67 66 58 54 52 53 53 53 50 54 58 60 58 57 51 45 46 53 49 46 48 46 48 44 39 27 26 39 54 54 53 55 57 60 56 54
44 42 63 66 50 47 45 56 56 65 66 62 59 57 53 53 51 50 50 54 63 60 49 49 43 38 44 53 57 51 47 45 33 35 37 34 37 58 59 58 56 55 56 54 54
40 44 60 63 44 44 53 58 58 59 61 58 55 56 54 50 45 52 53 59 60 56 51 49 39 32 38 44 48 45 50 48 43 38 36 33 35 60 61 59 57 51 52 54 54
41 39 50 54 53 50 49 53 54 62 61 59 56 55 49 47 48 47 50 56 60 57 58 53 41 37 32 39 42 40 46 48 41 32 35 37 42 53 56 53 51 51 52 50 51
42 43 48 42 49 47 49 53 52 52 58 57 51 51 46 39 42 42 46 49 54 55 50 45 37 40 44 47 47 45 47 48 45 42 35 41 42 50 49 49 49 49 51 52 50
41 45 46 45 47 47 49 50 51 51 52 50 46 49 47 40 40 37 41 40 41 47 42 42 35 38 39 46 46 44 47 47 49 47 47 49 46 49 49 48 48 49 50 49 50
51 52 46 44 46 44 46 49 52 52 53 53 49 46 43 44 45 43 44 44 43 39 39 38 37 37 31 43 43 35 44 47 49 51 52 44 46 46 45 47 46 45 47 48 48

GFSSW_sfc_temp_102.txt.gz
Temp
61 61 60 60 60 60 60 60 60 60 61 61 61 61 61 60 59 49 45 56 55 65 66 63 62 61 60 55 57 55 43 37 44 50 52 61 62 71 74 75 77 77 75 79 78
60 60 60 60 60 60 59 59 59 60 60 60 60 61 60 60 50 46 57 64 67 68 62 60 55 59 52 52 54 50 40 45 53 55 55 60 61 67 68 68 73 75 78 75 77
60 60 60 60 60 59 59 59 59 60 60 60 60 60 60 58 45 55 70 66 68 68 63 62 61 58 48 49 51 46 43 52 54 59 61 59 62 67 64 63 71 72 75 76 73
59 60 59 59 59 59 59 59 59 60 59 59 59 60 60 50 47 63 70 68 69 65 63 60 56 50 45 46 50 44 53 57 57 62 60 56 63 64 65 69 76 78 74 75 73
59 59 59 59 59 59 59 59 60 59 59 58 59 59 51 44 51 65 73 69 66 61 60 57 53 49 46 47 51 47 54 56 60 61 58 62 63 62 66 73 78 77 78 72 73
59 59 59 59 59 59 59 59 59 58 58 58 59 59 49 45 65 66 65 64 62 58 56 57 55 56 51 50 50 54 55 58 58 56 54 57 59 62 68 73 73 73 72 73 72
59 59 59 59 59 59 58 58 57 58 58 58 59 57 49 53 67 63 63 59 61 63 58 58 60 58 54 50 56 56 50 51 55 59 55 59 55 60 69 74 72 72 75 76 76
58 58 58 58 58 58 58 58 57 58 58 59 59 56 43 62 60 60 63 61 63 63 65 66 64 57 52 57 56 50 49 40 54 55 58 60 49 62 68 71 69 69 74 75 75
58 58 58 58 58 58 57 57 57 58 58 59 54 51 43 64 61 66 66 65 63 63 64 73 62 54 53 46 43 44 40 42 49 56 57 58 51 63 69 69 67 72 73 75 75
58 57 57 57 58 57 56 57 56 58 59 60 57 45 51 60 65 67 67 68 63 61 58 56 53 47 44 42 37 41 41 45 46 53 55 53 55 64 70 66 68 71 72 73 75
58 57 57 57 57 56 54 48 48 48 52 46 50 53 59 67 71 68 68 65 64 57 48 51 44 40 47 50 51 50 47 46 52 58 53 51 52 59 61 60 59 65 68 69 69
57 57 57 57 57 56 54 44 53 54 48 52 56 55 62 65 60 66 71 61 56 49 52 48 43 52 55 54 52 50 46 46 53 56 53 51 52 55 56 60 60 63 64 63 61
56 56 56 56 56 53 47 48 57 57 48 56 55 57 59 62 58 60 68 62 57 51 50 45 52 58 55 52 51 49 46 47 50 54 53 49 47 48 56 58 61 59 61 62 62
56 55 55 55 50 47 46 57 57 56 41 51 54 58 61 62 57 69 70 64 56 53 52 50 56 56 52 51 52 45 54 54 52 47 41 48 38 46 50 52 55 56 56 59 61
55 55 55 55 50 45 57 53 54 54 30 57 56 68 62 59 60 62 68 63 54 54 53 50 52 51 50 53 56 51 56 52 49 43 40 45 40 45 47 48 50 52 54 54 56
55 55 55 54 50 51 54 54 55 42 31 53 60 56 55 58 59 61 62 65 63 55 54 54 59 57 55 59 58 58 51 47 42 39 35 40 41 41 46 49 49 51 54 56 57
55 55 53 56 45 52 52 53 40 33 55 52 53 56 53 52 56 58 55 52 49 43 43 48 52 58 60 52 54 51 43 32 32 32 33 42 39 44 48 54 54 52 54 56 57
54 53 53 52 53 56 54 47 34 47 49 59 56 55 50 53 54 55 51 47 53 51 43 41 40 54 60 56 50 47 45 33 29 29 33 42 36 45 52 54 56 56 55 55 55
52 46 45 48 53 52 46 36 40 48 57 53 55 49 48 54 54 53 49 50 52 54 45 41 44 57 59 59 56 47 41 46 35 34 31 35 42 50 53 52 54 54 55 54 52
49 45 43 53 55 50 43 42 46 56 59 55 49 53 46 49 49 49 48 54 54 57 55 49 43 53 57 59 58 52 53 38 35 28 27 34 37 40 46 49 52 51 50 53 52
45 38 52 56 56 48 39 43 52 60 60 51 50 49 51 50 50 46 48 54 58 54 55 49 45 44 50 47 47 49 44 41 39 33 27 25 35 47 49 49 49 52 50 48 46
45 35 55 57 44 45 43 49 54 58 60 56 54 54 48 51 49 50 47 49 55 57 50 48 43 37 44 49 51 47 44 41 33 34 33 31 35 53 53 53 50 48 48 46 47
42 42 51 53 39 41 46 49 55 55 54 53 53 54 52 46 44 48 49 54 54 52 48 49 40 33 36 45 48 43 44 42 38 34 31 28 34 54 51 49 49 47 48 48 48
42 36 43 45 45 43 43 44 49 56 53 52 51 51 48 45 45 45 46 51 54 52 55 52 40 39 33 36 39 39 43 43 39 30 33 33 37 45 47 50 50 46 47 47 48
43 38 46 37 42 43 45 46 46 48 51 51 47 47 46 41 41 40 44 46 50 50 46 45 38 40 42 45 43 41 42 43 40 39 35 39 39 44 47 48 45 46 47 48 47
41 41 45 40 45 45 43 42 42 47 48 45 45 45 45 40 41 39 41 40 40 44 39 41 34 38 37 43 43 40 43 43 43 42 40 42 40 48 45 46 46 46 47 46 46
47 48 43 43 39 37 43 44 42 46 48 50 47 43 42 43 45 45 44 43 43 40 37 36 34 33 31 38 38 33 41 42 42 45 44 36 43 45 43 45 44 45 46 45 45

GFSSW_sfc_temp_108.txt.gz
Temp
61 61 61 60 60 60 60 60 60 60 60 60 61 61 61 61 60 67 65 73 73 68 65 79 80 81 83 82 82 84 71 70 74 74 77 85 81 90 92 87 92 92 91 95 94
61 60 60 60 60 60 60 60 60 60 60 60 60 60 60 60 64 66 75 69 66 68 78 78 76 79 78 78 79 76 71 73 81 80 78 84 83 85 85 85 87 90 92 92 94
60 60 60 60 60 60 60 60 60 60 60 60 60 59 60 63 64 75 73 70 67 69 83 84 83 80 76 79 77 76 71 79 75 79 81 80 82 85 82 80 87 86 90 92 92
60 60 60 60 60 60 59 60 60 60 61 60 60 59 60 66 61 79 69 68 67 78 82 79 79 74 73 70 79 69 75 78 78 80 78 77 82 80 82 84 92 91 91 91 90
60 60 60 59 59 59 59 59 60 60 60 60 59 59 62 61 68 80 68 70 76 79 79 77 75 76 71 75 74 70 76 77 79 80 79 80 77 78 80 86 90 91 91 89 91
59 59 59 59 59 59 59 58 58 59 59 59 59 59 61 56 82 81 79 76 79 78 79 81 77 79 75 73 72 75 76 76 77 78 78 75 77 79 81 85 84 85 86 89 90
58 58 58 59 59 58 58 58 58 58 59 60 59 61 58 66 80 82 81 78 81 79 76 81 80 76 76 70 76 73 68 74 76 77 75 78 70 72 82 84 80 84 86 89 90
58 58 58 58 58 58 58 58 58 58 59 60 60 59 59 78 81 76 80 76 78 80 80 82 81 78 75 76 72 70 70 66 77 78 77 74 65 78 83 82 79 83 85 86 86
58 57 58 58 58 58 58 57 58 59 59 60 58 59 62 70 69 78 80 74 76 78 79 80 79 73 73 69 66 68 64 66 69 78 75 72 68 79 84 82 79 82 85 85 85
58 57 57 57 57 57 56 56 59 59 60 62 63 52 66 69 76 77 81 78 73 74 72 71 70 67 70 68 59 63 63 66 65 73 73 71 70 78 82 80 80 82 84 85 86
58 57 57 56 57 56 57 62 57 51 54 61 64 67 71 78 79 75 78 75 75 70 64 69 64 60 66 69 71 67 64 63 70 75 71 70 72 76 80 80 79 81 83 85 86
57 57 57 56 56 56 58 57 65 67 59 65 66 68 75 78 69 72 79 69 67 62 69 63 60 70 72 71 67 66 63 64 70 73 70 71 70 76 79 79 80 81 84 85 87
57 57 57 56 56 58 57 61 73 71 59 66 72 66 70 73 69 68 74 73 66 64 65 63 67 71 68 65 63 64 63 64 65 70 73 70 67 72 77 80 81 83 86 87 86
56 56 56 55 58 66 62 71 75 70 54 62 60 66 70 71 64 78 77 74 69 65 66 67 73 67 66 63 66 59 70 67 65 64 60 71 59 69 74 75 78 81 83 85 87
56 56 55 55 53 57 68 73 73 68 39 65 65 77 73 68 73 70 78 75 66 66 68 62 65 65 63 64 68 63 71 68 67 65 64 66 61 68 73 71 76 78 82 86 88
55 55 55 55 63 64 71 70 67 49 38 60 67 63 63 67 71 74 71 77 76 69 69 67 74 72 69 71 71 72 67 67 68 66 55 63 63 66 70 71 74 78 79 79 81
55 55 55 57 58 72 71 61 49 43 62 59 60 65 64 63 66 66 64 62 60 55 56 63 66 71 73 66 71 68 62 53 51 53 52 65 61 65 71 75 77 78 78 79 80
54 53 61 66 69 65 65 55 41 54 57 65 61 63 58 65 65 65 62 60 66 64 60 55 52 65 71 67 64 63 62 55 45 49 55 63 56 67 75 75 77 78 79 78 78
52 65 66 69 67 65 55 46 49 56 64 59 59 55 50 51 63 63 62 61 65 67 56 56 56 71 71 72 71 64 58 68 58 59 55 60 65 70 73 72 74 75 75 75 77
57 61 64 68 64 59 51 46 56 64 66 61 51 57 49 48 46 57 61 66 64 69 71 63 54 66 69 73 71 67 71 55 59 44 45 56 59 63 67 69 73 72 74 75 76
58 55 64 64 60 50 48 53 58 66 66 60 56 53 49 44 46 46 59 64 69 68 70 67 62 58 66 62 62 62 61 62 61 58 47 47 53 71 69 72 72 74 75 74 75
54 49 67 66 47 50 52 57 55 62 67 64 62 58 52 49 44 45 54 62 65 71 62 67 61 52 57 65 66 68 64 63 53 50 57 55 53 69 70 73 75 75 75 76 77
47 54 70 61 43 41 51 54 55 54 54 56 58 59 58 52 42 42 50 60 63 68 64 66 57 48 51 59 62 61 64 65 61 59 49 45 51 67 70 71 74 73 73 72 72
49 45 60 54 53 48 48 48 50 55 53 56 55 57 53 49 53 46 44 54 60 63 59 64 57 53 47 51 58 55 59 62 61 52 54 57 59 62 66 67 69 69 70 69 68
49 47 51 42 49 51 52 51 46 41 50 53 50 52 50 41 44 46 44 46 53 54 59 61 52 53 54 53 53 51 56 60 57 59 52 58 58 64 67 68 69 69 69 68 67
42 41 42 40 51 50 50 48 45 44 42 43 42 48 52 46 44 40 43 48 47 49 50 57 51 53 46 54 54 51 59 60 59 59 59 60 58 68 71 71 69 67 67 66 66
50 51 41 41 44 44 48 46 49 52 49 47 47 44 46 47 52 52 51 50 57 51 49 49 53 50 45 54 54 49 57 58 60 62 60 55 62 69 65 66 66 65 66 65 64

GFSSW_sfc_temp_111.txt.gz
Temp
62 62 61 61 61 61 61 61 61 61 62 62 61 61 61 61 60 69 68 78 79 71 69 86 84 86 88 86 90 91 76 73 78 80 84 95 90 94 98 95 95 98 97 100 101
61 62 61 61 61 60 60 61 61 61 61 61 61 61 61 60 66 71 81 71 71 70 77 82 80 84 82 83 86 80 74 76 86 89 87 90 90 91 90 90 90 94 98 100 100
61 61 60 60 61 60 60 60 60 61 61 61 61 60 60 64 68 80 76 71 69 72 83 88 88 84 79 84 83 81 74 84 86 88 89 86 87 91 87 85 91 91 96 98 98
60 60 60 60 60 60 60 60 60 61 61 61 60 60 60 67 62 83 72 71 69 80 79 85 84 79 77 77 84 76 82 83 86 85 84 81 86 84 87 87 95 96 98 95 95
60 60 60 59 59 59 59 60 60 60 60 60 60 60 62 63 69 85 70 73 75 78 79 82 79 80 75 80 82 78 80 84 85 85 85 85 82 83 85 91 94 96 96 94 94
59 59 59 59 59 59 59 59 59 59 59 60 60 60 60 58 88 86 85 78 82 80 83 85 82 85 81 80 79 82 81 81 85 83 84 81 82 83 85 91 89 90 91 93 93
59 59 58 59 58 59 58 58 58 58 59 60 60 61 58 66 88 91 86 84 87 85 82 87 88 82 81 77 84 82 74 78 80 82 80 83 76 77 86 89 87 87 88 90 92
59 58 58 58 58 58 58 58 57 58 59 61 61 60 56 85 86 85 88 84 88 88 86 88 88 82 80 84 77 73 74 68 80 81 82 80 69 82 88 86 84 86 87 89 91
58 58 58 58 58 58 58 57 58 59 60 60 62 56 62 76 76 85 87 81 84 84 85 86 84 77 78 71 66 71 65 69 75 83 81 77 71 82 88 86 84 85 85 87 90
58 57 57 58 58 58 57 56 60 59 61 65 64 55 67 71 80 81 86 84 78 78 76 75 75 71 73 69 59 65 64 70 71 79 78 76 74 80 85 85 83 84 85 86 89
58 58 57 57 57 57 58 69 63 51 56 64 67 67 78 82 86 80 83 80 79 75 66 71 66 63 69 72 73 75 73 70 75 80 75 74 74 79 84 85 83 83 84 85 88
58 58 57 57 57 57 58 63 71 74 62 68 69 74 77 83 72 77 83 71 70 64 70 67 62 72 75 75 73 72 69 69 74 78 75 73 73 79 83 83 84 83 84 85 88
57 57 56 57 56 60 64 68 78 77 61 68 75 73 74 78 72 73 77 74 68 65 67 64 69 75 74 72 69 69 67 68 68 75 76 73 69 74 82 84 85 85 86 88 88
56 56 56 56 59 70 67 78 81 79 55 63 72 74 79 76 68 82 80 74 71 65 69 69 75 72 71 69 71 63 73 71 69 67 61 75 60 73 77 78 81 83 85 87 89
56 56 56 55 58 61 73 80 80 71 39 70 72 83 78 70 73 72 81 75 68 68 69 66 68 68 68 69 73 67 75 71 70 66 66 67 64 71 78 74 78 82 85 87 89
56 56 56 62 66 68 74 75 71 51 40 63 72 67 68 69 70 77 73 78 77 71 72 71 79 76 72 75 75 75 71 69 69 66 56 65 65 67 71 75 79 83 85 87 89
55 55 56 65 62 77 77 68 49 43 65 61 65 71 68 65 65 69 64 63 62 56 58 66 69 76 76 70 74 71 64 54 52 53 53 68 65 67 73 78 81 80 85 86 86
54 53 61 73 76 74 67 56 40 54 58 68 66 66 52 59 65 66 61 58 67 66 59 55 55 69 75 71 67 67 65 57 46 49 57 68 58 67 79 82 82 84 84 85 84
52 69 71 77 75 72 59 45 48 55 63 62 65 60 58 65 52 52 63 60 66 66 56 56 57 73 74 75 74 67 62 71 60 61 55 55 66 74 76 78 80 81 81 81 83
59 64 71 77 74 62 51 46 55 64 66 65 55 52 51 56 51 46 54 67 65 69 72 64 55 69 72 76 75 71 74 58 62 46 43 51 55 58 69 74 78 78 79 80 82
60 60 69 73 68 47 43 53 61 68 68 60 57 55 59 46 43 46 47 61 68 68 71 68 61 61 70 66 65 67 65 65 64 60 48 47 55 70 67 75 75 78 79 79 80
59 53 73 72 46 48 48 49 48 60 67 64 64 52 49 49 44 42 44 54 59 67 62 67 58 47 62 73 75 72 67 66 56 48 57 56 51 73 70 75 79 80 80 80 80
47 57 74 70 42 46 52 51 55 56 60 60 54 58 60 48 45 48 49 53 52 57 63 66 57 47 45 58 69 65 67 68 66 58 53 43 50 70 73 75 77 77 79 79 79
46 48 60 58 54 42 46 51 52 56 53 49 51 54 54 52 57 48 48 47 56 63 57 68 61 56 48 53 63 60 63 64 56 42 48 51 54 59 63 67 70 75 77 77 76
46 46 45 41 49 51 51 50 50 44 49 49 49 55 50 47 49 46 51 50 56 60 66 66 56 59 53 61 60 58 64 62 61 62 54 60 57 53 62 71 74 76 75 74 73
41 39 42 41 51 49 48 45 45 45 48 44 41 47 51 39 50 38 46 49 46 58 63 63 53 55 47 59 59 56 61 62 63 62 63 64 59 66 72 73 70 70 73 72 72
49 47 42 40 47 46 46 41 44 51 49 48 46 46 43 41 53 57 55 55 49 50 56 56 52 50 47 57 53 48 59 59 63 66 65 60 67 74 71 71 72 70 71 69 70

GFSSW_sfc_temp_114.txt.gz
Temp
62 62 61 61 61 61 61 61 62 62 62 62 62 62 62 62 61 66 63 72 77 73 70 82 83 82 85 82 87 88 71 68 72 76 81 91 89 98 99 93 95 98 97 100 91
62 61 61 61 61 61 60 60 61 61 61 61 61 61 62 61 62 64 74 75 75 72 77 77 78 80 77 79 82 79 71 71 81 84 84 89 90 93 91 89 90 94 100 102 100
61 61 61 61 61 60 60 60 60 61 61 61 61 61 61 63 61 73 79 76 74 74 80 82 84 82 75 80 80 79 71 79 82 86 89 88 88 92 88 84 90 89 94 99 99
61 61 61 60 60 60 60 60 61 61 61 61 61 61 61 64 57 80 74 72 72 82 79 80 81 77 73 73 81 74 80 80 83 87 87 84 87 84 87 88 95 96 98 99 96
60 60 60 60 59 59 60 60 60 60 60 60 60 61 61 60 63 83 74 72 77 78 76 76 76 77 72 76 79 76 79 82 85 85 85 86 82 82 83 90 94 95 95 95 94
59 59 59 59 59 59 59 59 58 59 59 59 60 60 56 50 82 87 85 76 79 77 77 80 80 83 78 77 77 81 81 81 83 83 84 80 81 82 84 90 90 90 90 92 94
59 59 59 59 59 58 58 58 57 58 59 60 61 61 56 59 84 91 86 80 83 80 78 84 87 82 81 76 83 81 75 79 80 81 80 83 75 77 86 88 86 87 88 89 91
59 58 58 59 59 59 59 58 57 58 59 60 61 60 51 77 82 78 87 84 86 86 85 89 89 83 79 82 79 74 74 66 77 79 81 80 67 80 87 85 83 86 88 87 89
59 58 58 59 59 59 58 57 58 59 60 61 59 57 56 78 72 81 84 81 83 86 86 88 85 77 77 70 66 70 61 65 69 80 79 77 70 80 86 85 83 84 86 87 87
59 58 58 58 58 57 57 56 60 60 61 64 64 52 61 68 80 81 84 85 79 79 77 76 74 68 69 66 55 61 62 66 67 76 80 75 73 79 84 84 83 84 85 85 86
58 58 57 57 57 57 57 64 63 51 55 59 61 59 74 82 87 79 83 80 79 74 64 70 62 59 64 68 70 70 68 66 71 77 76 73 73 77 82 82 82 83 83 84 85
57 57 57 57 57 56 58 57 68 73 60 64 66 70 72 77 73 77 83 71 69 61 67 65 58 67 71 72 70 69 66 68 74 79 75 73 71 77 80 81 83 83 83 83 84
57 56 57 57 56 59 64 67 79 78 60 64 71 70 70 75 70 74 77 72 66 62 63 60 66 71 70 69 67 67 65 67 69 75 77 72 67 71 79 83 85 85 85 86 84
56 56 56 56 57 68 64 78 82 79 51 59 68 71 73 75 67 81 80 73 68 62 65 65 72 70 67 67 69 62 73 72 70 67 59 72 55 69 75 77 80 82 82 84 85
55 55 55 55 57 57 69 75 79 71 34 67 73 87 79 70 71 72 83 74 63 65 66 62 65 67 65 67 72 67 75 71 70 66 64 65 60 67 76 73 76 80 82 84 86
55 55 55 59 64 66 72 75 70 48 36 61 73 70 69 72 71 74 73 76 74 67 68 67 75 73 71 74 75 76 71 70 69 65 53 61 61 63 68 74 77 81 83 85 87
55 55 55 62 57 76 76 67 45 38 62 59 63 70 62 64 67 68 63 62 59 53 56 64 66 73 75 69 73 71 63 53 50 51 50 65 61 65 71 77 80 81 82 85 86
54 53 58 68 72 71 68 53 36 51 55 64 64 66 54 53 47 51 56 56 64 62 57 54 52 67 74 69 65 66 63 54 43 46 53 65 57 65 77 80 83 84 85 85 83
52 65 66 73 79 75 60 41 44 52 59 58 61 57 58 56 51 44 45 54 62 65 55 54 55 71 72 74 72 65 60 69 57 59 51 59 66 69 77 77 79 80 81 80 82
55 59 66 78 77 68 50 42 50 59 61 60 51 57 52 56 45 43 45 51 58 66 68 61 51 66 70 74 74 69 73 57 60 45 43 54 58 56 66 71 76 76 77 79 81
59 56 71 77 72 53 42 48 54 60 57 48 48 54 56 52 46 43 45 55 53 52 68 64 56 52 61 63 62 64 61 63 62 59 46 43 48 58 62 65 61 77 78 78 79
54 47 71 72 49 50 46 45 44 49 60 53 54 57 55 52 42 45 46 51 59 57 52 64 57 43 52 67 73 70 64 62 50 50 59 52 48 56 61 67 64 63 78 79 79
46 52 68 62 38 40 43 50 55 52 48 51 50 56 54 50 42 44 51 58 59 56 56 60 54 42 44 57 66 65 68 67 63 60 55 47 41 59 68 64 59 57 66 76 77
45 44 52 57 48 43 41 47 46 51 51 55 52 55 53 48 46 44 51 52 55 56 57 54 53 47 41 52 61 59 64 67 64 52 52 54 54 61 65 66 67 62 68 61 61
45 44 46 39 44 47 48 48 43 43 50 50 46 44 41 41 41 43 53 52 52 53 52 53 49 52 45 52 54 62 64 61 55 57 50 53 54 61 62 61 65 67 66 64 60
41 40 46 41 49 47 47 41 40 46 45 43 41 42 43 42 47 40 47 50 47 53 46 56 50 55 49 51 48 59 65 60 54 55 55 57 49 61 61 58 57 66 68 69 70
52 50 41 40 45 45 40 41 44 48 48 49 44 43 43 44 47 49 52 48 52 51 50 56 54 52 41 48 50 51 61 61 61 63 60 57 59 66 59 57 58 70 72 69 67

GFSSW_sfc_temp_117.txt.gz
Temp
63 62 61 62 61 61 61 61 61 61 61 62 62 62 62 62 61 58 53 61 65 70 71 74 75 74 72 66 70 72 59 54 58 62 66 78 77 89 93 89 87 90 87 84 81
62 61 61 61 61 61 61 61 61 61 61 61 61 61 61 61 56 53 65 71 71 72 68 66 66 70 62 64 64 63 55 59 67 69 69 74 77 79 83 83 80 84 91 83 81
61 61 61 61 61 60 61 61 61 61 62 61 61 61 60 60 52 61 75 73 72 74 73 74 72 70 59 64 63 62 59 66 71 75 77 76 77 80 76 72 78 80 87 79 80
60 60 60 60 60 60 60 60 60 61 60 60 60 61 60 57 44 71 74 74 73 74 71 70 67 60 58 57 67 59 69 71 73 77 75 72 76 74 73 74 81 85 86 86 79
59 60 60 60 60 60 59 59 59 60 59 59 60 60 57 50 51 72 76 75 74 72 68 67 62 61 57 63 65 65 68 73 76 76 74 76 72 74 74 81 83 85 85 82 80
59 59 59 59 59 59 59 59 58 58 58 59 60 60 53 43 68 76 77 71 73 69 69 67 65 68 64 64 63 67 70 72 72 72 74 70 72 72 76 81 81 81 78 80 78
59 59 59 59 59 59 58 58 58 58 58 59 60 59 51 50 72 74 67 69 72 72 68 72 73 69 70 62 71 71 65 69 73 70 70 73 66 70 76 80 77 78 79 79 79
58 58 59 59 58 58 58 58 57 58 59 60 60 56 47 66 67 67 69 72 75 77 74 76 77 71 68 69 70 64 65 56 65 70 71 69 60 70 76 75 74 76 78 81 78
58 57 58 58 58 58 58 57 58 58 59 60 55 52 47 69 61 66 70 70 75 76 75 81 76 67 68 60 53 56 50 53 59 68 69 67 63 70 75 74 74 76 78 77 76
57 57 57 57 58 58 57 56 58 59 59 62 60 49 53 59 71 75 75 76 74 73 70 69 65 58 57 54 45 48 51 57 57 67 69 65 64 71 74 75 74 71 76 75 75
57 57 57 57 57 56 54 52 51 47 54 50 53 53 62 73 80 74 76 74 72 68 57 64 53 50 55 60 60 60 58 57 62 70 67 65 65 69 73 72 70 70 71 71 72
56 56 56 56 56 56 53 47 55 61 51 56 60 62 65 70 62 69 77 65 63 56 62 57 51 60 64 64 61 60 57 57 64 71 67 64 63 68 71 71 71 71 69 71 70
56 56 56 56 56 53 53 57 66 67 50 58 65 61 60 66 59 61 72 67 61 58 58 53 58 65 63 60 59 58 56 57 58 67 71 63 57 62 72 72 74 73 71 71 71
55 55 55 55 51 55 51 65 68 67 41 51 59 66 67 65 58 71 73 69 63 56 59 57 64 62 59 58 61 53 65 65 63 61 50 63 43 58 66 67 72 71 70 72 72
55 55 55 55 48 46 57 64 64 59 24 59 66 77 70 60 64 65 75 70 58 59 60 54 59 58 57 59 64 59 68 65 63 58 53 56 47 54 63 66 69 67 70 70 71
55 55 55 53 52 53 59 61 59 38 27 52 65 64 60 61 62 68 67 72 70 60 62 59 69 66 63 68 67 69 65 64 60 51 40 50 49 49 56 63 66 69 71 73 72
54 54 53 55 47 60 63 58 36 30 54 50 55 60 60 52 53 54 50 58 53 47 48 57 59 67 70 62 67 64 56 43 40 39 38 55 50 51 61 69 73 71 70 71 68
54 53 53 59 60 59 52 41 28 44 47 57 56 56 51 57 46 47 43 46 58 55 48 45 45 60 68 63 59 59 53 42 32 35 41 57 46 55 66 70 76 77 73 69 70
52 53 55 61 66 65 47 34 34 44 52 51 51 44 46 54 50 46 41 43 47 56 47 46 47 66 68 70 67 57 53 59 48 47 42 47 54 61 66 67 69 72 71 65 67
47 49 54 65 63 59 41 37 43 52 53 46 37 46 40 46 46 43 44 51 50 54 55 54 45 62 67 70 70 64 65 50 49 35 34 45 50 46 55 59 65 61 65 66 68
49 45 59 66 55 44 36 39 43 52 50 45 40 41 43 41 46 40 42 48 51 53 55 49 50 50 55 57 54 58 56 54 50 42 34 33 39 54 50 57 59 59 58 61 66
45 37 60 63 41 41 37 38 43 45 49 46 47 45 42 44 41 45 44 49 53 50 45 51 49 41 47 59 62 57 56 55 38 41 46 40 39 56 54 60 59 56 54 57 56
41 43 59 54 31 34 39 44 50 48 47 41 43 48 47 42 38 45 49 58 53 50 45 50 43 34 41 49 56 51 58 56 53 47 40 34 37 57 59 56 57 56 52 55 57
42 36 45 48 44 40 38 41 40 51 49 50 47 49 42 43 45 43 44 52 56 52 49 50 44 42 36 44 50 49 56 58 55 36 42 45 43 51 55 55 54 53 54 55 56
42 38 42 34 37 41 42 42 39 38 48 49 43 43 39 36 44 41 45 46 52 55 49 48 41 47 49 51 51 54 58 59 55 51 44 47 48 50 55 56 53 54 56 57 58
39 37 41 37 41 40 40 37 37 41 41 41 39 41 41 38 40 39 42 40 43 48 45 47 41 47 45 52 51 49 55 59 57 55 51 47 49 56 55 58 57 56 58 58 61
46 46 40 39 38 38 37 40 40 43 44 43 43 42 42 41 43 45 46 45 47 46 41 42 42 41 37 44 45 41 50 54 54 56 54 44 51 56 55 55 54 57 61 61 61

GFSSW_sfc_temp_120.txt.gz
Temp
61 62 61 61 61 61 61 61 61 61 61 61 61 61 62 62 61 56 49 57 59 66 70 70 69 69 66 61 64 63 48 44 50 56 59 70 69 78 87 84 83 86 82 83 80
61 61 61 61 61 60 60 60 61 61 61 61 62 61 61 61 54 50 61 66 68 70 63 62 62 64 57 59 60 55 50 50 62 65 62 69 68 72 78 78 83 80 81 82 79
61 60 60 60 60 60 60 60 60 60 60 61 60 61 61 60 47 54 72 71 68 69 68 67 65 63 54 56 57 55 55 62 62 69 70 71 72 75 73 72 75 74 77 78 77
60 60 60 60 60 59 59 60 60 60 60 60 59 60 60 56 46 66 74 73 73 69 66 64 61 55 52 53 58 53 64 64 63 69 67 68 70 71 73 75 78 77 79 77 75
59 60 60 59 59 59 59 59 59 59 59 59 59 59 55 48 48 67 72 73 71 68 63 62 56 54 50 54 58 55 58 64 68 68 70 71 70 70 70 78 80 78 80 77 78
58 59 59 59 59 59 59 58 58 58 58 59 59 59 51 40 63 68 70 69 69 65 62 62 59 60 54 56 56 60 64 65 66 65 68 68 70 67 73 78 79 78 75 77 76
58 58 58 58 58 58 58 58 57 58 58 59 60 57 49 47 66 67 64 60 67 67 63 66 67 64 60 55 64 64 59 62 64 65 62 68 63 67 72 76 75 76 75 76 76
57 57 57 58 58 58 58 58 57 58 59 59 60 55 45 63 64 61 62 61 65 70 70 71 70 63 54 61 61 57 56 51 60 63 66 65 58 70 72 71 71 73 75 75 74
57 57 57 57 58 58 57 57 57 58 59 60 54 50 45 64 58 62 63 61 67 68 70 75 67 58 58 51 47 49 47 45 53 62 64 61 61 66 72 71 68 70 70 73 74
57 56 56 56 57 57 56 56 57 57 57 60 58 47 52 54 65 70 65 63 64 65 63 62 57 50 52 46 40 44 43 50 52 59 61 59 60 65 70 69 70 68 70 70 71
57 56 56 56 56 56 54 52 47 45 48 48 50 50 56 65 72 70 70 63 64 61 51 56 49 45 50 54 55 55 52 50 56 63 61 60 61 62 68 65 66 65 65 67 69
56 56 56 56 56 55 52 46 48 52 43 54 56 57 61 65 57 64 72 60 58 50 57 50 46 55 59 58 57 55 52 51 57 63 60 59 58 65 68 66 69 70 66 66 66
55 55 55 55 55 49 47 50 59 57 42 52 59 57 56 61 53 56 64 61 57 51 53 49 54 61 59 57 54 53 51 51 52 59 62 57 55 60 65 70 72 70 69 66 67
55 55 55 55 48 47 45 56 56 59 34 45 54 60 62 61 54 65 65 61 59 52 54 53 60 59 56 54 56 48 59 59 57 54 43 58 44 52 61 64 66 67 65 66 67
54 55 55 55 48 45 49 52 57 50 21 52 59 73 64 56 60 61 68 61 54 55 56 51 55 55 54 55 60 53 62 59 59 55 47 54 44 50 57 57 61 65 66 65 67
54 54 54 50 45 50 54 51 49 35 25 47 59 57 54 57 56 57 61 65 63 55 57 56 65 61 59 63 63 64 59 58 58 54 39 50 47 46 51 60 62 65 69 68 68
54 54 52 52 41 50 50 46 31 27 50 46 49 53 49 49 52 50 47 47 44 41 44 52 53 62 65 56 62 59 52 39 37 34 37 51 46 48 57 63 65 63 65 68 68
53 52 51 54 50 52 50 40 28 40 43 52 50 47 43 49 47 47 44 41 47 47 44 41 39 55 63 58 54 55 53 36 29 30 37 52 42 51 63 65 65 68 68 64 62
52 48 46 50 61 55 44 32 33 38 47 45 44 40 43 49 48 44 43 42 48 49 42 41 42 62 63 64 63 55 49 55 43 44 41 44 51 59 61 59 61 62 62 58 62
45 40 45 57 53 50 39 35 36 46 45 45 36 40 35 42 42 43 42 49 45 50 52 46 41 56 60 65 65 60 60 46 45 34 31 41 43 43 50 52 54 52 52 56 60
40 36 49 60 50 40 32 34 39 48 47 40 37 35 39 39 43 41 43 48 51 49 49 48 42 47 55 51 53 54 53 52 48 42 32 32 38 50 50 52 50 51 53 54 55
43 31 51 52 37 35 34 37 44 44 50 44 42 39 36 39 39 41 41 48 55 52 43 48 43 36 43 54 57 51 49 49 43 37 41 42 39 53 54 54 51 52 54 55 56
38 35 50 48 27 32 40 41 46 43 45 42 42 43 43 39 35 40 47 55 53 49 47 49 41 33 39 47 54 48 52 52 46 42 39 34 37 55 57 51 53 51 54 55 55
40 35 37 38 38 34 34 36 38 48 46 46 44 45 40 38 43 41 43 49 53 52 52 47 44 39 34 39 47 45 51 52 49 36 38 40 42 48 50 50 52 52 54 55 54
37 34 39 30 34 34 37 37 36 36 44 46 42 42 39 34 36 41 43 44 51 51 48 44 39 43 47 52 53 52 54 54 48 47 42 43 46 49 50 49 50 52 54 53 53
33 35 39 37 36 35 37 35 35 38 38 37 35 38 41 36 36 35 40 39 40 47 44 45 40 47 45 49 48 50 54 53 55 52 50 48 45 51 52 52 51 53 55 55 57
43 44 39 38 33 35 34 36 36 40 41 41 38 37 39 40 42 43 43 43 43 43 42 42 41 39 36 43 46 42 48 51 53 54 52 45 47 52 51 51 52 54 57 54 54

GFSSW_sfc_temp_123.txt.gz
Temp
61 61 61 61 60 60 60 60 60 60 61 61 61 61 62 61 60 55 48 56 58 64 69 68 66 64 64 58 60 60 45 39 47 51 55 65 63 73 80 74 77 79 75 80 78
61 61 61 60 60 60 60 60 60 60 60 60 60 61 61 61 53 48 60 65 66 68 60 62 60 62 54 55 56 52 42 47 57 59 57 64 64 69 71 71 73 75 78 77 76
60 60 60 60 60 60 59 59 60 60 60 60 60 59 60 60 47 51 69 68 67 67 64 64 64 61 51 53 53 52 49 57 60 65 66 65 65 71 66 65 70 71 72 75 75
59 59 60 60 59 59 59 60 60 60 60 59 60 59 59 53 45 63 73 72 72 66 63 61 57 52 49 49 54 50 57 61 60 65 63 63 69 68 68 70 75 77 75 75 73
58 59 59 59 59 59 59 59 59 59 59 59 59 59 55 46 46 64 70 69 68 63 57 57 53 52 48 50 53 48 54 60 66 64 63 65 64 64 67 73 77 76 75 74 73
58 58 58 58 58 58 58 58 58 58 58 59 59 59 50 38 61 64 65 64 64 60 57 57 56 56 53 52 52 55 58 60 60 59 59 62 65 65 69 73 74 74 73 74 74
57 57 57 58 58 58 57 57 57 57 58 59 60 57 48 46 63 63 60 55 61 63 58 62 63 60 56 50 59 57 53 56 58 63 58 61 59 62 70 73 71 72 72 72 73
57 57 57 57 57 57 57 57 56 57 58 59 60 55 44 61 61 59 59 57 61 62 62 66 66 58 53 57 57 52 52 46 52 59 61 62 54 66 69 68 68 71 72 72 72
57 56 56 57 57 57 56 56 56 57 58 59 53 49 43 61 55 59 60 55 59 61 64 70 62 55 54 46 43 45 38 43 49 58 60 59 53 66 68 66 66 67 70 72 68
57 56 56 56 56 56 55 55 55 56 57 59 57 45 49 52 59 63 63 59 57 59 57 58 53 47 46 44 37 39 39 45 48 55 57 57 55 61 65 66 65 65 67 68 69
56 56 55 55 55 55 52 50 46 43 45 46 49 47 54 62 67 64 62 57 56 56 47 52 45 40 46 50 51 51 47 47 51 59 57 53 53 58 63 62 62 62 62 64 66
55 55 55 55 55 55 52 45 46 46 39 52 52 54 58 60 51 58 66 54 49 46 52 45 41 50 54 53 51 49 46 46 52 59 54 54 54 58 61 62 62 66 63 63 63
54 54 55 55 54 48 42 45 52 51 37 47 53 53 54 56 50 51 59 56 51 47 48 45 48 55 54 51 48 49 47 47 49 55 56 53 50 54 61 62 65 64 65 64 65
54 54 54 54 46 43 43 51 50 50 33 41 50 56 57 57 49 62 63 55 52 47 50 48 55 53 52 50 52 45 55 55 53 48 39 52 37 49 56 58 63 66 61 63 63
54 54 54 54 47 43 47 47 51 45 20 50 55 66 59 52 58 59 66 56 48 51 52 47 50 51 49 52 56 50 58 54 54 47 42 47 40 46 51 53 57 60 62 63 64
53 54 53 48 44 46 51 47 44 32 24 43 56 52 49 54 56 57 57 59 57 52 54 52 60 57 55 59 59 60 55 53 51 47 34 45 43 43 48 55 57 62 64 66 64
53 53 51 51 42 50 48 44 31 25 46 43 44 47 45 46 49 50 46 45 42 38 39 48 50 58 61 53 59 55 47 35 32 31 33 46 42 46 54 60 62 62 63 64 62
52 52 49 52 48 50 47 39 25 38 39 49 46 45 40 46 46 46 43 39 45 42 40 38 36 53 59 55 49 48 48 33 27 27 33 48 39 47 55 57 58 57 56 57 57
51 45 43 48 52 48 39 30 32 36 40 39 40 38 39 45 43 45 41 40 41 44 38 39 40 55 59 61 59 50 45 52 42 41 38 42 46 52 55 52 53 54 57 57 58
45 38 40 52 51 45 37 33 34 39 40 41 34 37 33 37 38 41 41 47 46 50 49 46 39 52 57 60 59 56 57 43 43 32 31 39 42 42 45 47 51 53 54 56 58
41 34 47 54 46 37 29 34 37 44 46 39 36 35 36 36 39 38 42 49 50 49 51 46 43 42 47 49 46 51 50 48 44 37 30 31 37 47 45 50 50 52 53 54 55
43 31 48 49 33 32 32 37 41 43 48 45 43 36 36 37 36 38 39 45 54 50 43 46 42 37 44 52 56 51 49 48 34 35 38 38 37 50 48 52 52 52 54 54 55
38 39 46 45 25 29 37 38 44 42 42 40 38 41 41 37 35 40 42 51 54 50 45 45 40 33 37 46 52 49 51 49 45 42 39 35 34 50 50 52 52 51 52 52 53
40 32 35 36 39 32 32 36 36 45 43 43 42 45 38 37 41 37 41 47 51 51 53 48 43 36 31 39 45 45 50 50 47 34 36 39 39 44 47 50 53 52 53 53 53
34 30 38 30 35 34 34 36 34 33 41 42 38 38 36 35 36 36 40 44 48 51 47 44 38 42 44 49 52 51 51 51 47 44 42 43 42 45 48 50 52 53 53 52 51
33 35 38 35 36 32 34 34 33 35 36 36 35 36 37 35 36 34 37 39 41 46 43 43 38 45 42 49 50 51 54 53 52 48 46 45 42 48 50 51 50 51 51 51 52
44 43 38 37 35 32 33 34 35 37 38 41 37 36 36 39 40 41 42 42 41 40 41 41 39 39 34 46 45 41 47 50 51 50 49 42 45 49 48 51 52 51 53 51 50

GFSSW_sfc_temp_126.txt.gz
Temp
61 61 61 61 60 60 60 60 60 60 60 60 61 61 61 61 61 53 46 55 57 65 67 62 63 61 60 55 59 56 43 37 43 47 51 62 59 67 73 70 71 75 73 77 74
59 60 60 60 60 60 60 60 60 60 60 60 60 60 60 60 52 48 58 64 66 67 58 55 57 59 52 54 55 50 40 45 54 56 54 61 57 61 67 67 68 71 76 75 74
59 59 59 59 59 59 59 59 60 60 61 60 60 60 60 59 43 50 69 68 66 66 60 60 61 58 50 50 52 50 46 53 57 63 64 62 63 66 63 61 67 66 71 71 72
58 59 59 59 59 59 59 59 59 60 60 60 60 59 59 51 45 59 72 70 70 64 60 57 56 52 48 48 52 46 53 57 58 63 61 60 64 63 64 66 72 71 74 72 71
58 58 58 58 58 58 58 58 58 58 59 59 59 59 53 44 45 61 68 65 65 61 56 55 53 49 46 48 50 46 52 57 62 61 59 62 60 60 62 69 72 71 73 71 70
57 57 57 57 57 57 57 57 57 57 57 58 59 59 50 38 60 62 61 61 61 58 54 53 55 54 51 50 52 53 56 57 57 56 57 60 63 61 64 69 70 68 70 70 70
57 57 57 57 57 57 57 56 56 56 57 58 59 57 48 45 61 60 58 53 58 60 54 58 59 59 54 48 56 54 49 52 55 59 55 58 56 58 65 69 68 69 68 69 68
57 56 56 57 57 57 57 56 55 56 57 58 59 53 43 58 61 58 59 57 60 59 57 59 62 54 51 54 53 48 48 43 50 55 57 59 50 60 65 66 66 68 68 69 69
56 56 56 56 56 56 56 55 56 56 58 59 53 49 42 59 53 58 59 52 56 57 58 64 60 51 52 45 42 43 35 38 46 54 57 54 48 62 65 63 63 65 67 68 68
56 55 55 55 55 55 55 55 55 55 56 59 56 44 47 49 56 60 59 57 55 53 52 53 53 44 46 43 36 36 37 41 44 53 53 51 48 58 60 62 61 62 64 65 66
55 55 55 55 55 55 53 50 44 41 43 43 46 45 52 57 64 60 59 53 53 51 42 49 43 38 43 47 50 46 44 45 48 55 52 53 51 55 59 58 57 59 61 61 63
55 54 55 55 55 54 52 43 44 42 35 47 48 49 55 57 49 54 62 49 45 42 47 42 39 48 51 50 48 47 43 43 50 55 52 50 50 55 58 57 59 59 60 61 60
54 54 54 54 53 46 40 43 49 47 34 42 48 49 50 53 46 49 55 50 45 42 44 41 46 53 50 47 44 44 43 43 46 52 52 50 47 51 58 57 61 60 61 61 62
53 53 54 54 47 43 41 49 46 46 32 38 45 51 54 53 46 59 60 54 47 41 46 44 52 49 47 45 47 40 51 51 50 46 38 50 35 45 53 56 57 61 59 60 61
53 54 53 53 47 40 48 45 46 45 19 46 51 62 56 50 54 56 64 55 46 46 48 44 47 46 44 47 51 45 54 50 50 44 39 42 37 42 49 52 56 58 58 60 61
53 53 53 46 41 44 47 45 44 33 23 41 52 48 46 51 52 55 54 58 56 49 50 47 56 53 50 53 54 55 52 49 47 43 33 41 40 39 46 53 55 58 60 62 61
53 53 50 49 42 46 46 42 28 23 45 40 41 44 43 44 46 48 45 44 39 34 36 45 47 54 57 49 55 53 45 30 30 31 31 41 39 42 50 53 54 55 56 57 59
52 52 48 49 47 45 45 36 24 36 38 44 44 41 38 43 44 45 41 38 44 42 38 36 34 48 57 51 47 48 46 30 25 27 30 44 36 43 50 52 54 54 53 55 56
51 42 41 46 50 44 40 28 30 33 37 37 37 37 39 43 40 40 38 39 41 44 37 37 35 53 55 57 54 47 44 46 37 35 33 38 42 48 50 51 55 54 55 57 59
43 36 39 50 47 42 35 32 33 38 39 39 33 37 32 35 35 36 37 46 43 46 44 42 36 49 54 56 58 54 55 41 41 28 28 35 39 40 44 48 52 53 53 55 57
38 34 46 52 44 35 23 31 36 45 43 36 35 34 34 34 36 35 39 48 48 45 47 41 41 41 50 45 44 48 47 48 42 35 28 28 33 44 49 52 51 52 54 53 53
42 29 46 47 32 30 31 35 40 42 46 42 41 36 34 36 34 36 37 44 48 48 40 44 41 35 41 46 51 50 47 43 37 32 35 34 34 47 52 52 53 52 52 52 52
38 34 45 44 27 29 36 36 41 40 39 38 36 41 40 35 32 37 40 48 52 48 43 44 39 33 34 41 47 44 48 47 42 40 37 32 35 50 52 52 52 50 51 51 52
35 31 34 34 36 33 31 34 35 43 40 40 39 40 37 34 39 34 38 45 46 50 52 47 41 37 32 35 41 37 47 52 45 34 36 36 40 46 49 50 50 50 51 51 52
32 29 37 30 33 34 35 33 32 32 39 41 36 38 35 32 35 35 38 39 46 48 46 43 34 41 44 49 48 48 49 51 47 44 40 39 42 46 49 50 50 51 51 50 50
31 34 38 34 35 33 34 33 32 34 35 34 34 36 35 32 34 32 35 37 37 42 43 42 35 41 41 49 51 49 52 52 52 48 45 45 41 52 53 53 51 51 51 50 49
42 43 37 35 32 32 33 34 34 35 37 40 36 34 34 37 39 39 39 40 39 38 39 40 34 37 35 45 45 42 48 52 51 50 48 42 44 50 49 51 50 50 50 48 46